<?xml version="1.0" encoding="UTF-8" standalone="no" ?>
<gpx xmlns="http://www.topografix.com/GPX/1/1" xmlns:xsi="http://www.w3.org/2001/XMLSchema-instance" xsi:schemaLocation="http://www.topografix.com/GPX/1/1 http://www.topografix.com/GPX/1/1/gpx.xsd" version="1.1" creator="VisuGPX - https://www.visugpx.com">
  <metadata>
    <name>rocher des vierge/les toboggans</name>
    <desc><![CDATA[Rocher des vierges / les toboggans ]]></desc>
  </metadata>
  <trk>
    <name><![CDATA[rocher des vierge/les toboggans_1]]></name>
    <trkseg>
      <trkpt lat="43.7067" lon="3.46772">
        <ele>343.8</ele>
        <time>2016-12-24T12:17:52Z</time>
      </trkpt>
      <trkpt lat="43.7067" lon="3.46772">
        <ele>343.8</ele>
        <time>2016-12-24T12:18:01Z</time>
      </trkpt>
      <trkpt lat="43.70689" lon="3.46769">
        <ele>333.9</ele>
        <time>2016-12-24T12:20:56Z</time>
      </trkpt>
      <trkpt lat="43.70693" lon="3.46768">
        <ele>334.7</ele>
        <time>2016-12-24T12:21:03Z</time>
      </trkpt>
      <trkpt lat="43.70696" lon="3.46766">
        <ele>335</ele>
        <time>2016-12-24T12:21:10Z</time>
      </trkpt>
      <trkpt lat="43.70699" lon="3.46771">
        <ele>338.8</ele>
        <time>2016-12-24T12:23:48Z</time>
      </trkpt>
      <trkpt lat="43.70697" lon="3.46766">
        <ele>338.7</ele>
        <time>2016-12-24T12:23:55Z</time>
      </trkpt>
      <trkpt lat="43.70699" lon="3.46759">
        <ele>339</ele>
        <time>2016-12-24T12:24:31Z</time>
      </trkpt>
      <trkpt lat="43.70711" lon="3.46774">
        <ele>338.9</ele>
        <time>2016-12-24T12:24:00Z</time>
      </trkpt>
      <trkpt lat="43.70718" lon="3.4678">
        <ele>338.6</ele>
        <time>2016-12-24T12:25:08Z</time>
      </trkpt>
      <trkpt lat="43.70725" lon="3.46786">
        <ele>338.2</ele>
        <time>2016-12-24T12:25:12Z</time>
      </trkpt>
      <trkpt lat="43.70732" lon="3.4679">
        <ele>337.9</ele>
        <time>2016-12-24T12:25:16Z</time>
      </trkpt>
      <trkpt lat="43.7074" lon="3.46792">
        <ele>337.7</ele>
        <time>2016-12-24T12:25:20Z</time>
      </trkpt>
      <trkpt lat="43.70748" lon="3.46796">
        <ele>337.5</ele>
        <time>2016-12-24T12:25:24Z</time>
      </trkpt>
      <trkpt lat="43.70756" lon="3.46799">
        <ele>337.5</ele>
        <time>2016-12-24T12:25:28Z</time>
      </trkpt>
      <trkpt lat="43.70762" lon="3.46805">
        <ele>337.5</ele>
        <time>2016-12-24T12:25:32Z</time>
      </trkpt>
      <trkpt lat="43.70765" lon="3.46815">
        <ele>337.4</ele>
        <time>2016-12-24T12:25:36Z</time>
      </trkpt>
      <trkpt lat="43.70762" lon="3.46825">
        <ele>337</ele>
        <time>2016-12-24T12:25:41Z</time>
      </trkpt>
      <trkpt lat="43.70756" lon="3.46832">
        <ele>336.5</ele>
        <time>2016-12-24T12:25:45Z</time>
      </trkpt>
      <trkpt lat="43.70749" lon="3.46837">
        <ele>335.7</ele>
        <time>2016-12-24T12:25:50Z</time>
      </trkpt>
      <trkpt lat="43.70742" lon="3.46843">
        <ele>335</ele>
        <time>2016-12-24T12:25:55Z</time>
      </trkpt>
      <trkpt lat="43.70736" lon="3.46849">
        <ele>334.3</ele>
        <time>2016-12-24T12:26:00Z</time>
      </trkpt>
      <trkpt lat="43.70731" lon="3.46857">
        <ele>333.6</ele>
        <time>2016-12-24T12:26:05Z</time>
      </trkpt>
      <trkpt lat="43.70725" lon="3.46866">
        <ele>333.1</ele>
        <time>2016-12-24T12:26:10Z</time>
      </trkpt>
      <trkpt lat="43.70722" lon="3.46875">
        <ele>333.2</ele>
        <time>2016-12-24T12:26:15Z</time>
      </trkpt>
      <trkpt lat="43.70718" lon="3.46885">
        <ele>333.6</ele>
        <time>2016-12-24T12:26:20Z</time>
      </trkpt>
      <trkpt lat="43.70714" lon="3.46895">
        <ele>334.3</ele>
        <time>2016-12-24T12:26:25Z</time>
      </trkpt>
      <trkpt lat="43.70709" lon="3.46904">
        <ele>335.1</ele>
        <time>2016-12-24T12:26:30Z</time>
      </trkpt>
      <trkpt lat="43.70705" lon="3.46914">
        <ele>335.6</ele>
        <time>2016-12-24T12:26:34Z</time>
      </trkpt>
      <trkpt lat="43.70701" lon="3.46924">
        <ele>336.1</ele>
        <time>2016-12-24T12:26:39Z</time>
      </trkpt>
      <trkpt lat="43.70698" lon="3.46934">
        <ele>336.4</ele>
        <time>2016-12-24T12:26:43Z</time>
      </trkpt>
      <trkpt lat="43.70695" lon="3.46943">
        <ele>336.9</ele>
        <time>2016-12-24T12:26:47Z</time>
      </trkpt>
      <trkpt lat="43.70692" lon="3.46953">
        <ele>337.3</ele>
        <time>2016-12-24T12:26:51Z</time>
      </trkpt>
      <trkpt lat="43.70691" lon="3.46962">
        <ele>337.6</ele>
        <time>2016-12-24T12:26:55Z</time>
      </trkpt>
      <trkpt lat="43.70689" lon="3.46974">
        <ele>338</ele>
        <time>2016-12-24T12:27:00Z</time>
      </trkpt>
      <trkpt lat="43.70689" lon="3.46985">
        <ele>338.3</ele>
        <time>2016-12-24T12:27:04Z</time>
      </trkpt>
      <trkpt lat="43.70689" lon="3.46996">
        <ele>338.6</ele>
        <time>2016-12-24T12:27:08Z</time>
      </trkpt>
      <trkpt lat="43.7069" lon="3.47005">
        <ele>339.1</ele>
        <time>2016-12-24T12:27:12Z</time>
      </trkpt>
      <trkpt lat="43.70692" lon="3.47016">
        <ele>339.6</ele>
        <time>2016-12-24T12:27:16Z</time>
      </trkpt>
      <trkpt lat="43.70695" lon="3.47027">
        <ele>340.1</ele>
        <time>2016-12-24T12:27:20Z</time>
      </trkpt>
      <trkpt lat="43.70698" lon="3.47038">
        <ele>340.8</ele>
        <time>2016-12-24T12:27:25Z</time>
      </trkpt>
      <trkpt lat="43.70702" lon="3.4705">
        <ele>341.4</ele>
        <time>2016-12-24T12:27:29Z</time>
      </trkpt>
      <trkpt lat="43.70704" lon="3.4706">
        <ele>342</ele>
        <time>2016-12-24T12:27:33Z</time>
      </trkpt>
      <trkpt lat="43.70708" lon="3.47069">
        <ele>342.8</ele>
        <time>2016-12-24T12:27:37Z</time>
      </trkpt>
      <trkpt lat="43.70713" lon="3.47079">
        <ele>343.5</ele>
        <time>2016-12-24T12:27:41Z</time>
      </trkpt>
      <trkpt lat="43.7072" lon="3.47086">
        <ele>344.3</ele>
        <time>2016-12-24T12:27:46Z</time>
      </trkpt>
      <trkpt lat="43.70727" lon="3.47091">
        <ele>345</ele>
        <time>2016-12-24T12:27:50Z</time>
      </trkpt>
      <trkpt lat="43.70733" lon="3.47096">
        <ele>345.7</ele>
        <time>2016-12-24T12:27:54Z</time>
      </trkpt>
      <trkpt lat="43.7074" lon="3.47101">
        <ele>346.5</ele>
        <time>2016-12-24T12:27:58Z</time>
      </trkpt>
      <trkpt lat="43.70749" lon="3.47107">
        <ele>347.6</ele>
        <time>2016-12-24T12:28:03Z</time>
      </trkpt>
      <trkpt lat="43.70757" lon="3.47111">
        <ele>348.6</ele>
        <time>2016-12-24T12:28:08Z</time>
      </trkpt>
      <trkpt lat="43.70764" lon="3.47115">
        <ele>349.5</ele>
        <time>2016-12-24T12:28:12Z</time>
      </trkpt>
      <trkpt lat="43.70772" lon="3.47118">
        <ele>350.2</ele>
        <time>2016-12-24T12:28:16Z</time>
      </trkpt>
      <trkpt lat="43.7078" lon="3.47118">
        <ele>351.1</ele>
        <time>2016-12-24T12:28:20Z</time>
      </trkpt>
      <trkpt lat="43.70789" lon="3.47119">
        <ele>352</ele>
        <time>2016-12-24T12:28:24Z</time>
      </trkpt>
      <trkpt lat="43.70797" lon="3.47119">
        <ele>353.1</ele>
        <time>2016-12-24T12:28:29Z</time>
      </trkpt>
      <trkpt lat="43.70805" lon="3.47121">
        <ele>354</ele>
        <time>2016-12-24T12:28:33Z</time>
      </trkpt>
      <trkpt lat="43.70814" lon="3.47121">
        <ele>355</ele>
        <time>2016-12-24T12:28:38Z</time>
      </trkpt>
      <trkpt lat="43.70823" lon="3.47121">
        <ele>355.9</ele>
        <time>2016-12-24T12:28:42Z</time>
      </trkpt>
      <trkpt lat="43.7083" lon="3.47121">
        <ele>356.6</ele>
        <time>2016-12-24T12:28:47Z</time>
      </trkpt>
      <trkpt lat="43.70839" lon="3.47122">
        <ele>357.3</ele>
        <time>2016-12-24T12:28:51Z</time>
      </trkpt>
      <trkpt lat="43.70846" lon="3.47121">
        <ele>357.8</ele>
        <time>2016-12-24T12:28:54Z</time>
      </trkpt>
      <trkpt lat="43.70854" lon="3.47123">
        <ele>358.2</ele>
        <time>2016-12-24T12:28:58Z</time>
      </trkpt>
      <trkpt lat="43.70862" lon="3.47121">
        <ele>358.8</ele>
        <time>2016-12-24T12:29:02Z</time>
      </trkpt>
      <trkpt lat="43.7087" lon="3.47119">
        <ele>359.4</ele>
        <time>2016-12-24T12:29:06Z</time>
      </trkpt>
      <trkpt lat="43.70878" lon="3.47116">
        <ele>360.2</ele>
        <time>2016-12-24T12:29:10Z</time>
      </trkpt>
      <trkpt lat="43.70885" lon="3.47113">
        <ele>361</ele>
        <time>2016-12-24T12:29:14Z</time>
      </trkpt>
      <trkpt lat="43.70893" lon="3.47112">
        <ele>361.8</ele>
        <time>2016-12-24T12:29:18Z</time>
      </trkpt>
      <trkpt lat="43.70901" lon="3.4711">
        <ele>362.3</ele>
        <time>2016-12-24T12:29:22Z</time>
      </trkpt>
      <trkpt lat="43.70909" lon="3.47108">
        <ele>362.8</ele>
        <time>2016-12-24T12:29:26Z</time>
      </trkpt>
      <trkpt lat="43.70916" lon="3.47106">
        <ele>363.3</ele>
        <time>2016-12-24T12:29:30Z</time>
      </trkpt>
      <trkpt lat="43.70924" lon="3.47102">
        <ele>364.2</ele>
        <time>2016-12-24T12:29:35Z</time>
      </trkpt>
      <trkpt lat="43.70931" lon="3.47097">
        <ele>365</ele>
        <time>2016-12-24T12:29:39Z</time>
      </trkpt>
      <trkpt lat="43.70938" lon="3.47093">
        <ele>365.9</ele>
        <time>2016-12-24T12:29:43Z</time>
      </trkpt>
      <trkpt lat="43.70945" lon="3.47086">
        <ele>367</ele>
        <time>2016-12-24T12:29:48Z</time>
      </trkpt>
      <trkpt lat="43.70952" lon="3.4708">
        <ele>367.8</ele>
        <time>2016-12-24T12:29:52Z</time>
      </trkpt>
      <trkpt lat="43.70959" lon="3.47074">
        <ele>368.7</ele>
        <time>2016-12-24T12:29:56Z</time>
      </trkpt>
      <trkpt lat="43.70966" lon="3.47068">
        <ele>369.6</ele>
        <time>2016-12-24T12:30:01Z</time>
      </trkpt>
      <trkpt lat="43.70972" lon="3.47061">
        <ele>370.3</ele>
        <time>2016-12-24T12:30:05Z</time>
      </trkpt>
      <trkpt lat="43.70978" lon="3.47054">
        <ele>371</ele>
        <time>2016-12-24T12:30:09Z</time>
      </trkpt>
      <trkpt lat="43.70985" lon="3.47048">
        <ele>371.8</ele>
        <time>2016-12-24T12:30:14Z</time>
      </trkpt>
      <trkpt lat="43.70991" lon="3.47041">
        <ele>372.5</ele>
        <time>2016-12-24T12:30:18Z</time>
      </trkpt>
      <trkpt lat="43.70997" lon="3.47035">
        <ele>373.3</ele>
        <time>2016-12-24T12:30:22Z</time>
      </trkpt>
      <trkpt lat="43.71002" lon="3.47028">
        <ele>374.1</ele>
        <time>2016-12-24T12:30:26Z</time>
      </trkpt>
      <trkpt lat="43.71009" lon="3.47019">
        <ele>375.1</ele>
        <time>2016-12-24T12:30:31Z</time>
      </trkpt>
      <trkpt lat="43.71016" lon="3.47011">
        <ele>376.3</ele>
        <time>2016-12-24T12:30:36Z</time>
      </trkpt>
      <trkpt lat="43.71021" lon="3.47004">
        <ele>377.2</ele>
        <time>2016-12-24T12:30:40Z</time>
      </trkpt>
      <trkpt lat="43.71028" lon="3.46996">
        <ele>378</ele>
        <time>2016-12-24T12:30:45Z</time>
      </trkpt>
      <trkpt lat="43.71034" lon="3.46988">
        <ele>378.5</ele>
        <time>2016-12-24T12:30:49Z</time>
      </trkpt>
      <trkpt lat="43.71039" lon="3.46982">
        <ele>379.1</ele>
        <time>2016-12-24T12:30:53Z</time>
      </trkpt>
      <trkpt lat="43.71046" lon="3.46977">
        <ele>379.6</ele>
        <time>2016-12-24T12:30:57Z</time>
      </trkpt>
      <trkpt lat="43.71053" lon="3.46973">
        <ele>380.1</ele>
        <time>2016-12-24T12:31:01Z</time>
      </trkpt>
      <trkpt lat="43.71061" lon="3.46969">
        <ele>380.7</ele>
        <time>2016-12-24T12:31:05Z</time>
      </trkpt>
      <trkpt lat="43.71068" lon="3.46966">
        <ele>381.1</ele>
        <time>2016-12-24T12:31:09Z</time>
      </trkpt>
      <trkpt lat="43.71075" lon="3.46961">
        <ele>381.5</ele>
        <time>2016-12-24T12:31:13Z</time>
      </trkpt>
      <trkpt lat="43.71082" lon="3.46958">
        <ele>382.1</ele>
        <time>2016-12-24T12:31:17Z</time>
      </trkpt>
      <trkpt lat="43.7109" lon="3.46956">
        <ele>382.3</ele>
        <time>2016-12-24T12:31:21Z</time>
      </trkpt>
      <trkpt lat="43.71097" lon="3.46954">
        <ele>382.7</ele>
        <time>2016-12-24T12:31:25Z</time>
      </trkpt>
      <trkpt lat="43.71105" lon="3.46952">
        <ele>383</ele>
        <time>2016-12-24T12:31:29Z</time>
      </trkpt>
      <trkpt lat="43.71112" lon="3.46951">
        <ele>383.5</ele>
        <time>2016-12-24T12:31:34Z</time>
      </trkpt>
      <trkpt lat="43.7112" lon="3.4695">
        <ele>383.9</ele>
        <time>2016-12-24T12:31:38Z</time>
      </trkpt>
      <trkpt lat="43.71128" lon="3.46947">
        <ele>384.3</ele>
        <time>2016-12-24T12:31:42Z</time>
      </trkpt>
      <trkpt lat="43.71135" lon="3.46946">
        <ele>385</ele>
        <time>2016-12-24T12:31:46Z</time>
      </trkpt>
      <trkpt lat="43.71142" lon="3.46944">
        <ele>385.6</ele>
        <time>2016-12-24T12:31:50Z</time>
      </trkpt>
      <trkpt lat="43.71152" lon="3.46942">
        <ele>386.5</ele>
        <time>2016-12-24T12:31:55Z</time>
      </trkpt>
      <trkpt lat="43.7116" lon="3.46939">
        <ele>387.4</ele>
        <time>2016-12-24T12:32:00Z</time>
      </trkpt>
      <trkpt lat="43.71169" lon="3.46937">
        <ele>388.1</ele>
        <time>2016-12-24T12:32:04Z</time>
      </trkpt>
      <trkpt lat="43.71176" lon="3.46935">
        <ele>388.6</ele>
        <time>2016-12-24T12:32:08Z</time>
      </trkpt>
      <trkpt lat="43.71185" lon="3.46933">
        <ele>389.5</ele>
        <time>2016-12-24T12:32:13Z</time>
      </trkpt>
      <trkpt lat="43.71193" lon="3.46931">
        <ele>390.1</ele>
        <time>2016-12-24T12:32:17Z</time>
      </trkpt>
      <trkpt lat="43.71201" lon="3.4693">
        <ele>390.7</ele>
        <time>2016-12-24T12:32:21Z</time>
      </trkpt>
      <trkpt lat="43.71208" lon="3.46931">
        <ele>391.1</ele>
        <time>2016-12-24T12:32:25Z</time>
      </trkpt>
      <trkpt lat="43.71216" lon="3.46934">
        <ele>391.8</ele>
        <time>2016-12-24T12:32:29Z</time>
      </trkpt>
      <trkpt lat="43.71223" lon="3.46939">
        <ele>392.3</ele>
        <time>2016-12-24T12:32:33Z</time>
      </trkpt>
      <trkpt lat="43.71229" lon="3.46946">
        <ele>392.8</ele>
        <time>2016-12-24T12:32:37Z</time>
      </trkpt>
      <trkpt lat="43.71232" lon="3.46954">
        <ele>393.5</ele>
        <time>2016-12-24T12:32:41Z</time>
      </trkpt>
      <trkpt lat="43.71236" lon="3.46966">
        <ele>394.1</ele>
        <time>2016-12-24T12:32:45Z</time>
      </trkpt>
      <trkpt lat="43.71239" lon="3.46977">
        <ele>394.7</ele>
        <time>2016-12-24T12:32:49Z</time>
      </trkpt>
      <trkpt lat="43.71243" lon="3.46986">
        <ele>395.5</ele>
        <time>2016-12-24T12:32:53Z</time>
      </trkpt>
      <trkpt lat="43.71251" lon="3.46992">
        <ele>396</ele>
        <time>2016-12-24T12:32:57Z</time>
      </trkpt>
      <trkpt lat="43.71259" lon="3.46986">
        <ele>396.9</ele>
        <time>2016-12-24T12:33:01Z</time>
      </trkpt>
      <trkpt lat="43.71264" lon="3.46978">
        <ele>397.5</ele>
        <time>2016-12-24T12:33:04Z</time>
      </trkpt>
      <trkpt lat="43.71267" lon="3.46968">
        <ele>398</ele>
        <time>2016-12-24T12:33:07Z</time>
      </trkpt>
      <trkpt lat="43.7127" lon="3.46958">
        <ele>398.4</ele>
        <time>2016-12-24T12:33:10Z</time>
      </trkpt>
      <trkpt lat="43.71272" lon="3.46948">
        <ele>398.8</ele>
        <time>2016-12-24T12:33:13Z</time>
      </trkpt>
      <trkpt lat="43.71275" lon="3.46937">
        <ele>399.4</ele>
        <time>2016-12-24T12:33:17Z</time>
      </trkpt>
      <trkpt lat="43.71278" lon="3.46926">
        <ele>399.9</ele>
        <time>2016-12-24T12:33:21Z</time>
      </trkpt>
      <trkpt lat="43.71281" lon="3.46914">
        <ele>400.7</ele>
        <time>2016-12-24T12:33:25Z</time>
      </trkpt>
      <trkpt lat="43.71286" lon="3.46905">
        <ele>401.4</ele>
        <time>2016-12-24T12:33:29Z</time>
      </trkpt>
      <trkpt lat="43.71292" lon="3.46896">
        <ele>402</ele>
        <time>2016-12-24T12:33:33Z</time>
      </trkpt>
      <trkpt lat="43.71298" lon="3.46888">
        <ele>402.6</ele>
        <time>2016-12-24T12:33:37Z</time>
      </trkpt>
      <trkpt lat="43.71303" lon="3.46879">
        <ele>403.2</ele>
        <time>2016-12-24T12:33:41Z</time>
      </trkpt>
      <trkpt lat="43.71309" lon="3.4687">
        <ele>404.1</ele>
        <time>2016-12-24T12:33:45Z</time>
      </trkpt>
      <trkpt lat="43.71313" lon="3.46861">
        <ele>404.8</ele>
        <time>2016-12-24T12:33:49Z</time>
      </trkpt>
      <trkpt lat="43.71315" lon="3.46848">
        <ele>405.5</ele>
        <time>2016-12-24T12:33:53Z</time>
      </trkpt>
      <trkpt lat="43.71316" lon="3.46836">
        <ele>406.3</ele>
        <time>2016-12-24T12:33:57Z</time>
      </trkpt>
      <trkpt lat="43.71316" lon="3.46825">
        <ele>407.6</ele>
        <time>2016-12-24T12:34:02Z</time>
      </trkpt>
      <trkpt lat="43.71316" lon="3.46814">
        <ele>408.8</ele>
        <time>2016-12-24T12:34:06Z</time>
      </trkpt>
      <trkpt lat="43.71314" lon="3.46802">
        <ele>410.3</ele>
        <time>2016-12-24T12:34:10Z</time>
      </trkpt>
      <trkpt lat="43.71313" lon="3.46791">
        <ele>411.9</ele>
        <time>2016-12-24T12:34:14Z</time>
      </trkpt>
      <trkpt lat="43.71311" lon="3.4678">
        <ele>413.2</ele>
        <time>2016-12-24T12:34:18Z</time>
      </trkpt>
      <trkpt lat="43.71309" lon="3.46769">
        <ele>414.2</ele>
        <time>2016-12-24T12:34:22Z</time>
      </trkpt>
      <trkpt lat="43.71305" lon="3.46757">
        <ele>415</ele>
        <time>2016-12-24T12:34:26Z</time>
      </trkpt>
      <trkpt lat="43.71302" lon="3.46746">
        <ele>415.5</ele>
        <time>2016-12-24T12:34:30Z</time>
      </trkpt>
      <trkpt lat="43.71299" lon="3.46736">
        <ele>415.7</ele>
        <time>2016-12-24T12:34:34Z</time>
      </trkpt>
      <trkpt lat="43.71296" lon="3.46724">
        <ele>415.9</ele>
        <time>2016-12-24T12:34:38Z</time>
      </trkpt>
      <trkpt lat="43.71292" lon="3.46713">
        <ele>416.3</ele>
        <time>2016-12-24T12:34:42Z</time>
      </trkpt>
      <trkpt lat="43.7129" lon="3.46703">
        <ele>416.6</ele>
        <time>2016-12-24T12:34:46Z</time>
      </trkpt>
      <trkpt lat="43.71289" lon="3.46692">
        <ele>416.8</ele>
        <time>2016-12-24T12:34:49Z</time>
      </trkpt>
      <trkpt lat="43.71288" lon="3.46682">
        <ele>416.9</ele>
        <time>2016-12-24T12:34:53Z</time>
      </trkpt>
      <trkpt lat="43.71287" lon="3.46669">
        <ele>416.9</ele>
        <time>2016-12-24T12:34:57Z</time>
      </trkpt>
      <trkpt lat="43.71284" lon="3.4666">
        <ele>417.1</ele>
        <time>2016-12-24T12:35:00Z</time>
      </trkpt>
      <trkpt lat="43.71278" lon="3.46652">
        <ele>417.4</ele>
        <time>2016-12-24T12:35:03Z</time>
      </trkpt>
      <trkpt lat="43.71269" lon="3.46647">
        <ele>417.9</ele>
        <time>2016-12-24T12:35:07Z</time>
      </trkpt>
      <trkpt lat="43.71261" lon="3.46644">
        <ele>418</ele>
        <time>2016-12-24T12:35:11Z</time>
      </trkpt>
      <trkpt lat="43.71252" lon="3.46645">
        <ele>418.3</ele>
        <time>2016-12-24T12:35:16Z</time>
      </trkpt>
      <trkpt lat="43.71245" lon="3.4665">
        <ele>418.2</ele>
        <time>2016-12-24T12:35:19Z</time>
      </trkpt>
      <trkpt lat="43.71238" lon="3.46652">
        <ele>418.5</ele>
        <time>2016-12-24T12:35:23Z</time>
      </trkpt>
      <trkpt lat="43.71228" lon="3.46656">
        <ele>418.9</ele>
        <time>2016-12-24T12:35:27Z</time>
      </trkpt>
      <trkpt lat="43.71221" lon="3.46663">
        <ele>418.8</ele>
        <time>2016-12-24T12:35:31Z</time>
      </trkpt>
      <trkpt lat="43.71216" lon="3.4667">
        <ele>418.7</ele>
        <time>2016-12-24T12:35:35Z</time>
      </trkpt>
      <trkpt lat="43.71213" lon="3.46679">
        <ele>418.8</ele>
        <time>2016-12-24T12:35:40Z</time>
      </trkpt>
      <trkpt lat="43.7121" lon="3.46689">
        <ele>419.7</ele>
        <time>2016-12-24T12:36:01Z</time>
      </trkpt>
      <trkpt lat="43.7122" lon="3.46661">
        <ele>422</ele>
        <time>2016-12-24T12:37:18Z</time>
      </trkpt>
      <trkpt lat="43.71226" lon="3.46655">
        <ele>422</ele>
        <time>2016-12-24T12:37:21Z</time>
      </trkpt>
      <trkpt lat="43.71235" lon="3.46651">
        <ele>422.1</ele>
        <time>2016-12-24T12:37:24Z</time>
      </trkpt>
      <trkpt lat="43.71242" lon="3.46647">
        <ele>421.6</ele>
        <time>2016-12-24T12:37:26Z</time>
      </trkpt>
      <trkpt lat="43.71244" lon="3.46636">
        <ele>421.5</ele>
        <time>2016-12-24T12:37:29Z</time>
      </trkpt>
      <trkpt lat="43.71242" lon="3.46622">
        <ele>421.3</ele>
        <time>2016-12-24T12:37:32Z</time>
      </trkpt>
      <trkpt lat="43.71241" lon="3.46612">
        <ele>421</ele>
        <time>2016-12-24T12:37:34Z</time>
      </trkpt>
      <trkpt lat="43.71242" lon="3.46598">
        <ele>420.8</ele>
        <time>2016-12-24T12:37:37Z</time>
      </trkpt>
      <trkpt lat="43.71244" lon="3.46588">
        <ele>420.7</ele>
        <time>2016-12-24T12:37:39Z</time>
      </trkpt>
      <trkpt lat="43.71248" lon="3.46578">
        <ele>420.6</ele>
        <time>2016-12-24T12:37:42Z</time>
      </trkpt>
      <trkpt lat="43.71253" lon="3.4657">
        <ele>420.9</ele>
        <time>2016-12-24T12:37:46Z</time>
      </trkpt>
      <trkpt lat="43.71259" lon="3.4656">
        <ele>421.2</ele>
        <time>2016-12-24T12:37:52Z</time>
      </trkpt>
      <trkpt lat="43.71264" lon="3.46554">
        <ele>421.7</ele>
        <time>2016-12-24T12:37:57Z</time>
      </trkpt>
      <trkpt lat="43.71272" lon="3.46548">
        <ele>422.2</ele>
        <time>2016-12-24T12:38:02Z</time>
      </trkpt>
      <trkpt lat="43.71279" lon="3.46546">
        <ele>422.3</ele>
        <time>2016-12-24T12:38:06Z</time>
      </trkpt>
      <trkpt lat="43.71286" lon="3.46544">
        <ele>422.4</ele>
        <time>2016-12-24T12:38:10Z</time>
      </trkpt>
      <trkpt lat="43.71295" lon="3.4654">
        <ele>422.6</ele>
        <time>2016-12-24T12:38:15Z</time>
      </trkpt>
      <trkpt lat="43.71302" lon="3.46538">
        <ele>422.8</ele>
        <time>2016-12-24T12:38:19Z</time>
      </trkpt>
      <trkpt lat="43.7131" lon="3.46535">
        <ele>423.2</ele>
        <time>2016-12-24T12:38:24Z</time>
      </trkpt>
      <trkpt lat="43.71319" lon="3.46533">
        <ele>423.7</ele>
        <time>2016-12-24T12:38:29Z</time>
      </trkpt>
      <trkpt lat="43.71328" lon="3.46531">
        <ele>424.1</ele>
        <time>2016-12-24T12:38:34Z</time>
      </trkpt>
      <trkpt lat="43.71337" lon="3.46533">
        <ele>424.3</ele>
        <time>2016-12-24T12:38:38Z</time>
      </trkpt>
      <trkpt lat="43.71345" lon="3.46531">
        <ele>424.7</ele>
        <time>2016-12-24T12:38:42Z</time>
      </trkpt>
      <trkpt lat="43.71352" lon="3.46529">
        <ele>425.5</ele>
        <time>2016-12-24T12:38:47Z</time>
      </trkpt>
      <trkpt lat="43.71359" lon="3.46527">
        <ele>426.1</ele>
        <time>2016-12-24T12:38:51Z</time>
      </trkpt>
      <trkpt lat="43.71367" lon="3.46525">
        <ele>426.7</ele>
        <time>2016-12-24T12:38:55Z</time>
      </trkpt>
      <trkpt lat="43.71374" lon="3.4652">
        <ele>427.2</ele>
        <time>2016-12-24T12:38:59Z</time>
      </trkpt>
      <trkpt lat="43.71381" lon="3.46514">
        <ele>427.6</ele>
        <time>2016-12-24T12:39:03Z</time>
      </trkpt>
      <trkpt lat="43.71388" lon="3.46509">
        <ele>428.1</ele>
        <time>2016-12-24T12:39:08Z</time>
      </trkpt>
      <trkpt lat="43.71394" lon="3.46503">
        <ele>428.7</ele>
        <time>2016-12-24T12:39:12Z</time>
      </trkpt>
      <trkpt lat="43.714" lon="3.46495">
        <ele>429.5</ele>
        <time>2016-12-24T12:39:17Z</time>
      </trkpt>
      <trkpt lat="43.71407" lon="3.46489">
        <ele>430.3</ele>
        <time>2016-12-24T12:39:22Z</time>
      </trkpt>
      <trkpt lat="43.71414" lon="3.46483">
        <ele>431.1</ele>
        <time>2016-12-24T12:39:27Z</time>
      </trkpt>
      <trkpt lat="43.71419" lon="3.46476">
        <ele>431.9</ele>
        <time>2016-12-24T12:39:32Z</time>
      </trkpt>
      <trkpt lat="43.71424" lon="3.46469">
        <ele>432.6</ele>
        <time>2016-12-24T12:39:36Z</time>
      </trkpt>
      <trkpt lat="43.71427" lon="3.46458">
        <ele>433.2</ele>
        <time>2016-12-24T12:39:40Z</time>
      </trkpt>
      <trkpt lat="43.71429" lon="3.46448">
        <ele>433.8</ele>
        <time>2016-12-24T12:39:45Z</time>
      </trkpt>
      <trkpt lat="43.71431" lon="3.46438">
        <ele>434.7</ele>
        <time>2016-12-24T12:39:50Z</time>
      </trkpt>
      <trkpt lat="43.71436" lon="3.46431">
        <ele>435.5</ele>
        <time>2016-12-24T12:39:55Z</time>
      </trkpt>
      <trkpt lat="43.71443" lon="3.46427">
        <ele>436.2</ele>
        <time>2016-12-24T12:40:00Z</time>
      </trkpt>
      <trkpt lat="43.71449" lon="3.46419">
        <ele>437.5</ele>
        <time>2016-12-24T12:40:06Z</time>
      </trkpt>
      <trkpt lat="43.71453" lon="3.46411">
        <ele>438.5</ele>
        <time>2016-12-24T12:40:11Z</time>
      </trkpt>
      <trkpt lat="43.71455" lon="3.46401">
        <ele>439.3</ele>
        <time>2016-12-24T12:40:16Z</time>
      </trkpt>
      <trkpt lat="43.71459" lon="3.46392">
        <ele>440.4</ele>
        <time>2016-12-24T12:40:23Z</time>
      </trkpt>
      <trkpt lat="43.71465" lon="3.46386">
        <ele>441.8</ele>
        <time>2016-12-24T12:40:28Z</time>
      </trkpt>
      <trkpt lat="43.71472" lon="3.46382">
        <ele>443.2</ele>
        <time>2016-12-24T12:40:34Z</time>
      </trkpt>
      <trkpt lat="43.71478" lon="3.46376">
        <ele>444.7</ele>
        <time>2016-12-24T12:40:40Z</time>
      </trkpt>
      <trkpt lat="43.71483" lon="3.46369">
        <ele>446.2</ele>
        <time>2016-12-24T12:40:47Z</time>
      </trkpt>
      <trkpt lat="43.71484" lon="3.46368">
        <ele>446.7</ele>
        <time>2016-12-24T12:40:54Z</time>
      </trkpt>
      <trkpt lat="43.71487" lon="3.46351">
        <ele>449.7</ele>
        <time>2016-12-24T12:41:31Z</time>
      </trkpt>
      <trkpt lat="43.71493" lon="3.46339">
        <ele>454</ele>
        <time>2016-12-24T12:41:52Z</time>
      </trkpt>
      <trkpt lat="43.71499" lon="3.46333">
        <ele>455.1</ele>
        <time>2016-12-24T12:41:59Z</time>
      </trkpt>
      <trkpt lat="43.71505" lon="3.46325">
        <ele>455.6</ele>
        <time>2016-12-24T12:42:03Z</time>
      </trkpt>
      <trkpt lat="43.71511" lon="3.46319">
        <ele>456.3</ele>
        <time>2016-12-24T12:42:08Z</time>
      </trkpt>
      <trkpt lat="43.71519" lon="3.46314">
        <ele>457.2</ele>
        <time>2016-12-24T12:42:13Z</time>
      </trkpt>
      <trkpt lat="43.71526" lon="3.4631">
        <ele>458.2</ele>
        <time>2016-12-24T12:42:18Z</time>
      </trkpt>
      <trkpt lat="43.71534" lon="3.46307">
        <ele>458.9</ele>
        <time>2016-12-24T12:42:23Z</time>
      </trkpt>
      <trkpt lat="43.71542" lon="3.46304">
        <ele>459.5</ele>
        <time>2016-12-24T12:42:28Z</time>
      </trkpt>
      <trkpt lat="43.71548" lon="3.46296">
        <ele>460</ele>
        <time>2016-12-24T12:42:32Z</time>
      </trkpt>
      <trkpt lat="43.71552" lon="3.46287">
        <ele>460.9</ele>
        <time>2016-12-24T12:42:38Z</time>
      </trkpt>
      <trkpt lat="43.71554" lon="3.46278">
        <ele>462.1</ele>
        <time>2016-12-24T12:42:45Z</time>
      </trkpt>
      <trkpt lat="43.71555" lon="3.4627">
        <ele>462.7</ele>
        <time>2016-12-24T12:42:52Z</time>
      </trkpt>
      <trkpt lat="43.71555" lon="3.46263">
        <ele>463.7</ele>
        <time>2016-12-24T12:42:59Z</time>
      </trkpt>
      <trkpt lat="43.71556" lon="3.46254">
        <ele>464.7</ele>
        <time>2016-12-24T12:43:06Z</time>
      </trkpt>
      <trkpt lat="43.71556" lon="3.46248">
        <ele>465.6</ele>
        <time>2016-12-24T12:43:13Z</time>
      </trkpt>
      <trkpt lat="43.71555" lon="3.46243">
        <ele>466.8</ele>
        <time>2016-12-24T12:43:20Z</time>
      </trkpt>
      <trkpt lat="43.71556" lon="3.46238">
        <ele>468.2</ele>
        <time>2016-12-24T12:43:27Z</time>
      </trkpt>
      <trkpt lat="43.71557" lon="3.46231">
        <ele>469</ele>
        <time>2016-12-24T12:43:34Z</time>
      </trkpt>
      <trkpt lat="43.71561" lon="3.4622">
        <ele>469.7</ele>
        <time>2016-12-24T12:43:39Z</time>
      </trkpt>
      <trkpt lat="43.71564" lon="3.46211">
        <ele>470.1</ele>
        <time>2016-12-24T12:43:43Z</time>
      </trkpt>
      <trkpt lat="43.71568" lon="3.46201">
        <ele>470.8</ele>
        <time>2016-12-24T12:43:47Z</time>
      </trkpt>
      <trkpt lat="43.71572" lon="3.4619">
        <ele>471.3</ele>
        <time>2016-12-24T12:43:50Z</time>
      </trkpt>
      <trkpt lat="43.71573" lon="3.4618">
        <ele>471.9</ele>
        <time>2016-12-24T12:43:53Z</time>
      </trkpt>
      <trkpt lat="43.71574" lon="3.4617">
        <ele>472.3</ele>
        <time>2016-12-24T12:43:57Z</time>
      </trkpt>
      <trkpt lat="43.71576" lon="3.4616">
        <ele>472.6</ele>
        <time>2016-12-24T12:44:01Z</time>
      </trkpt>
      <trkpt lat="43.71579" lon="3.46149">
        <ele>472.7</ele>
        <time>2016-12-24T12:44:05Z</time>
      </trkpt>
      <trkpt lat="43.71581" lon="3.46138">
        <ele>473</ele>
        <time>2016-12-24T12:44:09Z</time>
      </trkpt>
      <trkpt lat="43.71584" lon="3.46127">
        <ele>473.4</ele>
        <time>2016-12-24T12:44:12Z</time>
      </trkpt>
      <trkpt lat="43.71585" lon="3.46116">
        <ele>474.2</ele>
        <time>2016-12-24T12:44:18Z</time>
      </trkpt>
      <trkpt lat="43.71588" lon="3.4611">
        <ele>475.1</ele>
        <time>2016-12-24T12:44:25Z</time>
      </trkpt>
      <trkpt lat="43.71586" lon="3.46105">
        <ele>476.1</ele>
        <time>2016-12-24T12:44:32Z</time>
      </trkpt>
      <trkpt lat="43.71588" lon="3.46097">
        <ele>477.1</ele>
        <time>2016-12-24T12:44:39Z</time>
      </trkpt>
      <trkpt lat="43.71592" lon="3.46087">
        <ele>477.8</ele>
        <time>2016-12-24T12:44:44Z</time>
      </trkpt>
      <trkpt lat="43.71595" lon="3.46077">
        <ele>478.5</ele>
        <time>2016-12-24T12:44:48Z</time>
      </trkpt>
      <trkpt lat="43.71598" lon="3.46066">
        <ele>478.8</ele>
        <time>2016-12-24T12:44:53Z</time>
      </trkpt>
      <trkpt lat="43.71601" lon="3.46056">
        <ele>479.4</ele>
        <time>2016-12-24T12:44:58Z</time>
      </trkpt>
      <trkpt lat="43.71603" lon="3.46046">
        <ele>479.6</ele>
        <time>2016-12-24T12:45:02Z</time>
      </trkpt>
      <trkpt lat="43.71605" lon="3.46034">
        <ele>480.1</ele>
        <time>2016-12-24T12:45:07Z</time>
      </trkpt>
      <trkpt lat="43.71607" lon="3.46023">
        <ele>481</ele>
        <time>2016-12-24T12:45:12Z</time>
      </trkpt>
      <trkpt lat="43.71607" lon="3.46012">
        <ele>481.8</ele>
        <time>2016-12-24T12:45:16Z</time>
      </trkpt>
      <trkpt lat="43.71607" lon="3.46004">
        <ele>483.4</ele>
        <time>2016-12-24T12:45:23Z</time>
      </trkpt>
      <trkpt lat="43.71607" lon="3.45993">
        <ele>484.8</ele>
        <time>2016-12-24T12:45:28Z</time>
      </trkpt>
      <trkpt lat="43.71607" lon="3.45982">
        <ele>485.8</ele>
        <time>2016-12-24T12:45:33Z</time>
      </trkpt>
      <trkpt lat="43.71607" lon="3.45972">
        <ele>487.1</ele>
        <time>2016-12-24T12:45:39Z</time>
      </trkpt>
      <trkpt lat="43.71605" lon="3.45962">
        <ele>488.2</ele>
        <time>2016-12-24T12:45:44Z</time>
      </trkpt>
      <trkpt lat="43.71608" lon="3.4595">
        <ele>489.4</ele>
        <time>2016-12-24T12:45:50Z</time>
      </trkpt>
      <trkpt lat="43.7161" lon="3.45939">
        <ele>490.4</ele>
        <time>2016-12-24T12:45:55Z</time>
      </trkpt>
      <trkpt lat="43.7161" lon="3.45929">
        <ele>491.4</ele>
        <time>2016-12-24T12:46:00Z</time>
      </trkpt>
      <trkpt lat="43.71609" lon="3.45918">
        <ele>492.5</ele>
        <time>2016-12-24T12:46:06Z</time>
      </trkpt>
      <trkpt lat="43.7161" lon="3.45907">
        <ele>493.5</ele>
        <time>2016-12-24T12:46:12Z</time>
      </trkpt>
      <trkpt lat="43.71604" lon="3.45899">
        <ele>494.3</ele>
        <time>2016-12-24T12:46:17Z</time>
      </trkpt>
      <trkpt lat="43.71602" lon="3.45888">
        <ele>495.3</ele>
        <time>2016-12-24T12:46:23Z</time>
      </trkpt>
      <trkpt lat="43.71597" lon="3.4588">
        <ele>496.3</ele>
        <time>2016-12-24T12:46:29Z</time>
      </trkpt>
      <trkpt lat="43.71594" lon="3.45877">
        <ele>497.3</ele>
        <time>2016-12-24T12:46:36Z</time>
      </trkpt>
      <trkpt lat="43.71595" lon="3.45876">
        <ele>502.1</ele>
        <time>2016-12-24T12:47:54Z</time>
      </trkpt>
      <trkpt lat="43.71598" lon="3.4586">
        <ele>501.6</ele>
        <time>2016-12-24T12:47:48Z</time>
      </trkpt>
      <trkpt lat="43.716" lon="3.4585">
        <ele>501.5</ele>
        <time>2016-12-24T12:48:56Z</time>
      </trkpt>
      <trkpt lat="43.71605" lon="3.45839">
        <ele>501.4</ele>
        <time>2016-12-24T12:49:00Z</time>
      </trkpt>
      <trkpt lat="43.7161" lon="3.45829">
        <ele>501.2</ele>
        <time>2016-12-24T12:49:03Z</time>
      </trkpt>
      <trkpt lat="43.71618" lon="3.45822">
        <ele>500</ele>
        <time>2016-12-24T12:49:05Z</time>
      </trkpt>
      <trkpt lat="43.71626" lon="3.45812">
        <ele>497.5</ele>
        <time>2016-12-24T12:49:07Z</time>
      </trkpt>
      <trkpt lat="43.71636" lon="3.45806">
        <ele>495.9</ele>
        <time>2016-12-24T12:49:09Z</time>
      </trkpt>
      <trkpt lat="43.71644" lon="3.45799">
        <ele>495.7</ele>
        <time>2016-12-24T12:49:11Z</time>
      </trkpt>
      <trkpt lat="43.71652" lon="3.45803">
        <ele>495.5</ele>
        <time>2016-12-24T12:49:14Z</time>
      </trkpt>
      <trkpt lat="43.71661" lon="3.45801">
        <ele>495.1</ele>
        <time>2016-12-24T12:49:18Z</time>
      </trkpt>
      <trkpt lat="43.71667" lon="3.45793">
        <ele>494.4</ele>
        <time>2016-12-24T12:49:22Z</time>
      </trkpt>
      <trkpt lat="43.71672" lon="3.45784">
        <ele>493.7</ele>
        <time>2016-12-24T12:49:27Z</time>
      </trkpt>
      <trkpt lat="43.71672" lon="3.45776">
        <ele>492.8</ele>
        <time>2016-12-24T12:49:34Z</time>
      </trkpt>
      <trkpt lat="43.71674" lon="3.45766">
        <ele>492.2</ele>
        <time>2016-12-24T12:49:54Z</time>
      </trkpt>
      <trkpt lat="43.71679" lon="3.45766">
        <ele>492.4</ele>
        <time>2016-12-24T12:50:01Z</time>
      </trkpt>
      <trkpt lat="43.71682" lon="3.45765">
        <ele>492.5</ele>
        <time>2016-12-24T12:50:08Z</time>
      </trkpt>
      <trkpt lat="43.71686" lon="3.45763">
        <ele>493.2</ele>
        <time>2016-12-24T12:50:15Z</time>
      </trkpt>
      <trkpt lat="43.71688" lon="3.4576">
        <ele>493.8</ele>
        <time>2016-12-24T12:50:22Z</time>
      </trkpt>
      <trkpt lat="43.71691" lon="3.45756">
        <ele>494.3</ele>
        <time>2016-12-24T12:50:29Z</time>
      </trkpt>
      <trkpt lat="43.71691" lon="3.45752">
        <ele>494.4</ele>
        <time>2016-12-24T12:50:36Z</time>
      </trkpt>
      <trkpt lat="43.717" lon="3.45742">
        <ele>496</ele>
        <time>2016-12-24T12:50:57Z</time>
      </trkpt>
      <trkpt lat="43.71704" lon="3.45739">
        <ele>496.8</ele>
        <time>2016-12-24T12:51:04Z</time>
      </trkpt>
      <trkpt lat="43.71706" lon="3.45735">
        <ele>497.4</ele>
        <time>2016-12-24T12:51:11Z</time>
      </trkpt>
      <trkpt lat="43.7171" lon="3.45726">
        <ele>497.7</ele>
        <time>2016-12-24T12:51:16Z</time>
      </trkpt>
      <trkpt lat="43.71716" lon="3.45718">
        <ele>498</ele>
        <time>2016-12-24T12:51:20Z</time>
      </trkpt>
      <trkpt lat="43.71721" lon="3.45716">
        <ele>498.7</ele>
        <time>2016-12-24T12:51:27Z</time>
      </trkpt>
      <trkpt lat="43.71729" lon="3.45717">
        <ele>499.4</ele>
        <time>2016-12-24T12:51:33Z</time>
      </trkpt>
      <trkpt lat="43.71733" lon="3.45718">
        <ele>500</ele>
        <time>2016-12-24T12:51:40Z</time>
      </trkpt>
      <trkpt lat="43.7174" lon="3.45712">
        <ele>500.6</ele>
        <time>2016-12-24T12:51:46Z</time>
      </trkpt>
      <trkpt lat="43.71748" lon="3.45709">
        <ele>501.2</ele>
        <time>2016-12-24T12:51:50Z</time>
      </trkpt>
      <trkpt lat="43.71756" lon="3.45706">
        <ele>501.7</ele>
        <time>2016-12-24T12:51:55Z</time>
      </trkpt>
      <trkpt lat="43.71761" lon="3.45697">
        <ele>502.3</ele>
        <time>2016-12-24T12:52:00Z</time>
      </trkpt>
      <trkpt lat="43.71766" lon="3.45688">
        <ele>502.9</ele>
        <time>2016-12-24T12:52:04Z</time>
      </trkpt>
      <trkpt lat="43.71771" lon="3.45679">
        <ele>503.5</ele>
        <time>2016-12-24T12:52:09Z</time>
      </trkpt>
      <trkpt lat="43.71779" lon="3.45674">
        <ele>504.2</ele>
        <time>2016-12-24T12:52:13Z</time>
      </trkpt>
      <trkpt lat="43.71781" lon="3.45665">
        <ele>505.1</ele>
        <time>2016-12-24T12:52:18Z</time>
      </trkpt>
      <trkpt lat="43.7178" lon="3.45655">
        <ele>505.6</ele>
        <time>2016-12-24T12:52:22Z</time>
      </trkpt>
      <trkpt lat="43.71781" lon="3.45644">
        <ele>506.1</ele>
        <time>2016-12-24T12:52:27Z</time>
      </trkpt>
      <trkpt lat="43.71779" lon="3.45633">
        <ele>506.9</ele>
        <time>2016-12-24T12:52:34Z</time>
      </trkpt>
      <trkpt lat="43.7178" lon="3.45625">
        <ele>508.2</ele>
        <time>2016-12-24T12:52:41Z</time>
      </trkpt>
      <trkpt lat="43.71778" lon="3.45622">
        <ele>511.6</ele>
        <time>2016-12-24T12:53:12Z</time>
      </trkpt>
      <trkpt lat="43.7178" lon="3.4561">
        <ele>511.8</ele>
        <time>2016-12-24T12:53:17Z</time>
      </trkpt>
      <trkpt lat="43.71784" lon="3.456">
        <ele>512.2</ele>
        <time>2016-12-24T12:53:21Z</time>
      </trkpt>
      <trkpt lat="43.71787" lon="3.45588">
        <ele>512.7</ele>
        <time>2016-12-24T12:53:25Z</time>
      </trkpt>
      <trkpt lat="43.71792" lon="3.45579">
        <ele>513.1</ele>
        <time>2016-12-24T12:53:29Z</time>
      </trkpt>
      <trkpt lat="43.71798" lon="3.45571">
        <ele>513.5</ele>
        <time>2016-12-24T12:53:33Z</time>
      </trkpt>
      <trkpt lat="43.71801" lon="3.45562">
        <ele>514.2</ele>
        <time>2016-12-24T12:53:37Z</time>
      </trkpt>
      <trkpt lat="43.71807" lon="3.45553">
        <ele>514.7</ele>
        <time>2016-12-24T12:53:41Z</time>
      </trkpt>
      <trkpt lat="43.71811" lon="3.45544">
        <ele>515.2</ele>
        <time>2016-12-24T12:53:44Z</time>
      </trkpt>
      <trkpt lat="43.71817" lon="3.45534">
        <ele>515.8</ele>
        <time>2016-12-24T12:53:48Z</time>
      </trkpt>
      <trkpt lat="43.71823" lon="3.45526">
        <ele>516.3</ele>
        <time>2016-12-24T12:53:53Z</time>
      </trkpt>
      <trkpt lat="43.7183" lon="3.45521">
        <ele>516.6</ele>
        <time>2016-12-24T12:53:56Z</time>
      </trkpt>
      <trkpt lat="43.71835" lon="3.45513">
        <ele>518.7</ele>
        <time>2016-12-24T12:53:58Z</time>
      </trkpt>
      <trkpt lat="43.71844" lon="3.45503">
        <ele>519.3</ele>
        <time>2016-12-24T12:54:00Z</time>
      </trkpt>
      <trkpt lat="43.71852" lon="3.45496">
        <ele>519.3</ele>
        <time>2016-12-24T12:54:02Z</time>
      </trkpt>
      <trkpt lat="43.71861" lon="3.45491">
        <ele>519.4</ele>
        <time>2016-12-24T12:54:05Z</time>
      </trkpt>
      <trkpt lat="43.71869" lon="3.45487">
        <ele>519.4</ele>
        <time>2016-12-24T12:54:09Z</time>
      </trkpt>
      <trkpt lat="43.71874" lon="3.45477">
        <ele>519.4</ele>
        <time>2016-12-24T12:54:13Z</time>
      </trkpt>
      <trkpt lat="43.71878" lon="3.45468">
        <ele>519.5</ele>
        <time>2016-12-24T12:54:20Z</time>
      </trkpt>
      <trkpt lat="43.71879" lon="3.45458">
        <ele>519.4</ele>
        <time>2016-12-24T12:54:25Z</time>
      </trkpt>
      <trkpt lat="43.71878" lon="3.45448">
        <ele>519.3</ele>
        <time>2016-12-24T12:54:31Z</time>
      </trkpt>
      <trkpt lat="43.71878" lon="3.45436">
        <ele>519.3</ele>
        <time>2016-12-24T12:54:36Z</time>
      </trkpt>
      <trkpt lat="43.71878" lon="3.45424">
        <ele>519.6</ele>
        <time>2016-12-24T12:54:41Z</time>
      </trkpt>
      <trkpt lat="43.71879" lon="3.45412">
        <ele>519.9</ele>
        <time>2016-12-24T12:54:46Z</time>
      </trkpt>
      <trkpt lat="43.71881" lon="3.45402">
        <ele>520.2</ele>
        <time>2016-12-24T12:54:50Z</time>
      </trkpt>
      <trkpt lat="43.71882" lon="3.45391">
        <ele>520.5</ele>
        <time>2016-12-24T12:54:56Z</time>
      </trkpt>
      <trkpt lat="43.71883" lon="3.45381">
        <ele>520.9</ele>
        <time>2016-12-24T12:55:01Z</time>
      </trkpt>
      <trkpt lat="43.71882" lon="3.45371">
        <ele>521.3</ele>
        <time>2016-12-24T12:55:04Z</time>
      </trkpt>
      <trkpt lat="43.71881" lon="3.4536">
        <ele>521.4</ele>
        <time>2016-12-24T12:55:06Z</time>
      </trkpt>
      <trkpt lat="43.7188" lon="3.45348">
        <ele>522.3</ele>
        <time>2016-12-24T12:55:08Z</time>
      </trkpt>
      <trkpt lat="43.71882" lon="3.45334">
        <ele>522.1</ele>
        <time>2016-12-24T12:55:10Z</time>
      </trkpt>
      <trkpt lat="43.71883" lon="3.45319">
        <ele>521.6</ele>
        <time>2016-12-24T12:55:12Z</time>
      </trkpt>
      <trkpt lat="43.71884" lon="3.45305">
        <ele>521.2</ele>
        <time>2016-12-24T12:55:14Z</time>
      </trkpt>
      <trkpt lat="43.71885" lon="3.45293">
        <ele>521.1</ele>
        <time>2016-12-24T12:55:16Z</time>
      </trkpt>
      <trkpt lat="43.71885" lon="3.45279">
        <ele>520.2</ele>
        <time>2016-12-24T12:55:18Z</time>
      </trkpt>
      <trkpt lat="43.71885" lon="3.45266">
        <ele>520.1</ele>
        <time>2016-12-24T12:55:20Z</time>
      </trkpt>
      <trkpt lat="43.71887" lon="3.45254">
        <ele>520.3</ele>
        <time>2016-12-24T12:55:22Z</time>
      </trkpt>
      <trkpt lat="43.71888" lon="3.45243">
        <ele>520.2</ele>
        <time>2016-12-24T12:55:25Z</time>
      </trkpt>
      <trkpt lat="43.71888" lon="3.45232">
        <ele>520.3</ele>
        <time>2016-12-24T12:55:27Z</time>
      </trkpt>
      <trkpt lat="43.71888" lon="3.45221">
        <ele>520.2</ele>
        <time>2016-12-24T12:55:29Z</time>
      </trkpt>
      <trkpt lat="43.71889" lon="3.4521">
        <ele>520.3</ele>
        <time>2016-12-24T12:55:31Z</time>
      </trkpt>
      <trkpt lat="43.71889" lon="3.45197">
        <ele>520.3</ele>
        <time>2016-12-24T12:55:33Z</time>
      </trkpt>
      <trkpt lat="43.7189" lon="3.45186">
        <ele>520.5</ele>
        <time>2016-12-24T12:55:35Z</time>
      </trkpt>
      <trkpt lat="43.71891" lon="3.45176">
        <ele>520.6</ele>
        <time>2016-12-24T12:55:37Z</time>
      </trkpt>
      <trkpt lat="43.71892" lon="3.45166">
        <ele>520.7</ele>
        <time>2016-12-24T12:55:39Z</time>
      </trkpt>
      <trkpt lat="43.71894" lon="3.45153">
        <ele>520.8</ele>
        <time>2016-12-24T12:55:42Z</time>
      </trkpt>
      <trkpt lat="43.71898" lon="3.45139">
        <ele>520.9</ele>
        <time>2016-12-24T12:55:45Z</time>
      </trkpt>
      <trkpt lat="43.71898" lon="3.45129">
        <ele>521</ele>
        <time>2016-12-24T12:55:48Z</time>
      </trkpt>
      <trkpt lat="43.71899" lon="3.45116">
        <ele>521.1</ele>
        <time>2016-12-24T12:55:51Z</time>
      </trkpt>
      <trkpt lat="43.71901" lon="3.45104">
        <ele>521.1</ele>
        <time>2016-12-24T12:55:54Z</time>
      </trkpt>
      <trkpt lat="43.71902" lon="3.45093">
        <ele>521</ele>
        <time>2016-12-24T12:55:58Z</time>
      </trkpt>
      <trkpt lat="43.71905" lon="3.4508">
        <ele>520.7</ele>
        <time>2016-12-24T12:56:03Z</time>
      </trkpt>
      <trkpt lat="43.71906" lon="3.45069">
        <ele>521.7</ele>
        <time>2016-12-24T12:56:06Z</time>
      </trkpt>
      <trkpt lat="43.71909" lon="3.45054">
        <ele>521.3</ele>
        <time>2016-12-24T12:56:08Z</time>
      </trkpt>
      <trkpt lat="43.71912" lon="3.45041">
        <ele>519.9</ele>
        <time>2016-12-24T12:56:10Z</time>
      </trkpt>
      <trkpt lat="43.71914" lon="3.45029">
        <ele>519.5</ele>
        <time>2016-12-24T12:56:12Z</time>
      </trkpt>
      <trkpt lat="43.71916" lon="3.45019">
        <ele>519.2</ele>
        <time>2016-12-24T12:56:14Z</time>
      </trkpt>
      <trkpt lat="43.71918" lon="3.45009">
        <ele>519.1</ele>
        <time>2016-12-24T12:56:16Z</time>
      </trkpt>
      <trkpt lat="43.7192" lon="3.44995">
        <ele>518.7</ele>
        <time>2016-12-24T12:56:18Z</time>
      </trkpt>
      <trkpt lat="43.71923" lon="3.44978">
        <ele>518.1</ele>
        <time>2016-12-24T12:56:20Z</time>
      </trkpt>
      <trkpt lat="43.71927" lon="3.44961">
        <ele>517.8</ele>
        <time>2016-12-24T12:56:22Z</time>
      </trkpt>
      <trkpt lat="43.7193" lon="3.44949">
        <ele>517.7</ele>
        <time>2016-12-24T12:56:23Z</time>
      </trkpt>
      <trkpt lat="43.71932" lon="3.4494">
        <ele>517</ele>
        <time>2016-12-24T12:56:24Z</time>
      </trkpt>
      <trkpt lat="43.71935" lon="3.44929">
        <ele>516.7</ele>
        <time>2016-12-24T12:56:25Z</time>
      </trkpt>
      <trkpt lat="43.7194" lon="3.44919">
        <ele>516</ele>
        <time>2016-12-24T12:56:26Z</time>
      </trkpt>
      <trkpt lat="43.71945" lon="3.44908">
        <ele>515.7</ele>
        <time>2016-12-24T12:56:27Z</time>
      </trkpt>
      <trkpt lat="43.71949" lon="3.44899">
        <ele>515.3</ele>
        <time>2016-12-24T12:56:28Z</time>
      </trkpt>
      <trkpt lat="43.71954" lon="3.44881">
        <ele>514.4</ele>
        <time>2016-12-24T12:56:30Z</time>
      </trkpt>
      <trkpt lat="43.71958" lon="3.44872">
        <ele>514.1</ele>
        <time>2016-12-24T12:56:31Z</time>
      </trkpt>
      <trkpt lat="43.71961" lon="3.44855">
        <ele>513.8</ele>
        <time>2016-12-24T12:56:33Z</time>
      </trkpt>
      <trkpt lat="43.71966" lon="3.44837">
        <ele>513.7</ele>
        <time>2016-12-24T12:56:35Z</time>
      </trkpt>
      <trkpt lat="43.71973" lon="3.44827">
        <ele>512.8</ele>
        <time>2016-12-24T12:56:37Z</time>
      </trkpt>
      <trkpt lat="43.71981" lon="3.44821">
        <ele>512.2</ele>
        <time>2016-12-24T12:56:39Z</time>
      </trkpt>
      <trkpt lat="43.71987" lon="3.44815">
        <ele>512.7</ele>
        <time>2016-12-24T12:56:41Z</time>
      </trkpt>
      <trkpt lat="43.71997" lon="3.44814">
        <ele>512.9</ele>
        <time>2016-12-24T12:56:45Z</time>
      </trkpt>
      <trkpt lat="43.72005" lon="3.44814">
        <ele>513.2</ele>
        <time>2016-12-24T12:56:48Z</time>
      </trkpt>
      <trkpt lat="43.72014" lon="3.44817">
        <ele>513.4</ele>
        <time>2016-12-24T12:56:51Z</time>
      </trkpt>
      <trkpt lat="43.72021" lon="3.44822">
        <ele>513.6</ele>
        <time>2016-12-24T12:56:54Z</time>
      </trkpt>
      <trkpt lat="43.72029" lon="3.44825">
        <ele>513.8</ele>
        <time>2016-12-24T12:56:57Z</time>
      </trkpt>
      <trkpt lat="43.72037" lon="3.44828">
        <ele>514</ele>
        <time>2016-12-24T12:57:00Z</time>
      </trkpt>
      <trkpt lat="43.72044" lon="3.44834">
        <ele>514.5</ele>
        <time>2016-12-24T12:57:04Z</time>
      </trkpt>
      <trkpt lat="43.72052" lon="3.44839">
        <ele>514.8</ele>
        <time>2016-12-24T12:57:07Z</time>
      </trkpt>
      <trkpt lat="43.72059" lon="3.44843">
        <ele>515</ele>
        <time>2016-12-24T12:57:10Z</time>
      </trkpt>
      <trkpt lat="43.72067" lon="3.44847">
        <ele>515.4</ele>
        <time>2016-12-24T12:57:13Z</time>
      </trkpt>
      <trkpt lat="43.72073" lon="3.44851">
        <ele>515.7</ele>
        <time>2016-12-24T12:57:16Z</time>
      </trkpt>
      <trkpt lat="43.72081" lon="3.44855">
        <ele>515.9</ele>
        <time>2016-12-24T12:57:19Z</time>
      </trkpt>
      <trkpt lat="43.72089" lon="3.4486">
        <ele>516.2</ele>
        <time>2016-12-24T12:57:22Z</time>
      </trkpt>
      <trkpt lat="43.72096" lon="3.44864">
        <ele>516.4</ele>
        <time>2016-12-24T12:57:25Z</time>
      </trkpt>
      <trkpt lat="43.72105" lon="3.44866">
        <ele>516.9</ele>
        <time>2016-12-24T12:57:29Z</time>
      </trkpt>
      <trkpt lat="43.72113" lon="3.44869">
        <ele>517.4</ele>
        <time>2016-12-24T12:57:33Z</time>
      </trkpt>
      <trkpt lat="43.72123" lon="3.44871">
        <ele>517.8</ele>
        <time>2016-12-24T12:57:37Z</time>
      </trkpt>
      <trkpt lat="43.7213" lon="3.44873">
        <ele>518.3</ele>
        <time>2016-12-24T12:57:41Z</time>
      </trkpt>
      <trkpt lat="43.72137" lon="3.44877">
        <ele>518.9</ele>
        <time>2016-12-24T12:57:46Z</time>
      </trkpt>
      <trkpt lat="43.72145" lon="3.44873">
        <ele>519.6</ele>
        <time>2016-12-24T12:57:52Z</time>
      </trkpt>
      <trkpt lat="43.72151" lon="3.44868">
        <ele>519.9</ele>
        <time>2016-12-24T12:57:56Z</time>
      </trkpt>
      <trkpt lat="43.72159" lon="3.44863">
        <ele>520.2</ele>
        <time>2016-12-24T12:57:59Z</time>
      </trkpt>
      <trkpt lat="43.72169" lon="3.44862">
        <ele>521.4</ele>
        <time>2016-12-24T12:58:02Z</time>
      </trkpt>
      <trkpt lat="43.72181" lon="3.44861">
        <ele>522.6</ele>
        <time>2016-12-24T12:58:04Z</time>
      </trkpt>
      <trkpt lat="43.72191" lon="3.44853">
        <ele>522.2</ele>
        <time>2016-12-24T12:58:06Z</time>
      </trkpt>
      <trkpt lat="43.72201" lon="3.44854">
        <ele>521.4</ele>
        <time>2016-12-24T12:58:08Z</time>
      </trkpt>
      <trkpt lat="43.7221" lon="3.44856">
        <ele>520.5</ele>
        <time>2016-12-24T12:58:10Z</time>
      </trkpt>
      <trkpt lat="43.7222" lon="3.44852">
        <ele>519.7</ele>
        <time>2016-12-24T12:58:12Z</time>
      </trkpt>
      <trkpt lat="43.72227" lon="3.44842">
        <ele>519.4</ele>
        <time>2016-12-24T12:58:15Z</time>
      </trkpt>
      <trkpt lat="43.7223" lon="3.4483">
        <ele>519</ele>
        <time>2016-12-24T12:58:19Z</time>
      </trkpt>
      <trkpt lat="43.72233" lon="3.44818">
        <ele>518.8</ele>
        <time>2016-12-24T12:58:24Z</time>
      </trkpt>
      <trkpt lat="43.72236" lon="3.44808">
        <ele>518.5</ele>
        <time>2016-12-24T12:58:28Z</time>
      </trkpt>
      <trkpt lat="43.72242" lon="3.44798">
        <ele>518.2</ele>
        <time>2016-12-24T12:58:34Z</time>
      </trkpt>
      <trkpt lat="43.72249" lon="3.44792">
        <ele>518.1</ele>
        <time>2016-12-24T12:58:38Z</time>
      </trkpt>
      <trkpt lat="43.72256" lon="3.44795">
        <ele>518.1</ele>
        <time>2016-12-24T12:58:44Z</time>
      </trkpt>
      <trkpt lat="43.72261" lon="3.4479">
        <ele>517.8</ele>
        <time>2016-12-24T12:58:51Z</time>
      </trkpt>
      <trkpt lat="43.72265" lon="3.44781">
        <ele>518</ele>
        <time>2016-12-24T12:58:56Z</time>
      </trkpt>
      <trkpt lat="43.72273" lon="3.44778">
        <ele>518.7</ele>
        <time>2016-12-24T12:59:01Z</time>
      </trkpt>
      <trkpt lat="43.72274" lon="3.44776">
        <ele>519.1</ele>
        <time>2016-12-24T12:59:08Z</time>
      </trkpt>
      <trkpt lat="43.72265" lon="3.4476">
        <ele>520</ele>
        <time>2016-12-24T12:59:18Z</time>
      </trkpt>
      <trkpt lat="43.72259" lon="3.44753">
        <ele>520.6</ele>
        <time>2016-12-24T12:59:23Z</time>
      </trkpt>
      <trkpt lat="43.72255" lon="3.44744">
        <ele>521</ele>
        <time>2016-12-24T12:59:27Z</time>
      </trkpt>
      <trkpt lat="43.72254" lon="3.44738">
        <ele>521.6</ele>
        <time>2016-12-24T12:59:34Z</time>
      </trkpt>
      <trkpt lat="43.72287" lon="3.44701">
        <ele>528.9</ele>
        <time>2016-12-24T13:00:42Z</time>
      </trkpt>
      <trkpt lat="43.72294" lon="3.447">
        <ele>529.6</ele>
        <time>2016-12-24T13:00:49Z</time>
      </trkpt>
      <trkpt lat="43.72302" lon="3.44698">
        <ele>530.1</ele>
        <time>2016-12-24T13:00:54Z</time>
      </trkpt>
      <trkpt lat="43.72309" lon="3.44694">
        <ele>530.3</ele>
        <time>2016-12-24T13:00:58Z</time>
      </trkpt>
      <trkpt lat="43.72324" lon="3.4469">
        <ele>531</ele>
        <time>2016-12-24T13:01:18Z</time>
      </trkpt>
      <trkpt lat="43.72331" lon="3.44689">
        <ele>531.4</ele>
        <time>2016-12-24T13:01:24Z</time>
      </trkpt>
      <trkpt lat="43.72333" lon="3.44686">
        <ele>532</ele>
        <time>2016-12-24T13:01:48Z</time>
      </trkpt>
      <trkpt lat="43.72329" lon="3.44692">
        <ele>532.4</ele>
        <time>2016-12-24T13:01:55Z</time>
      </trkpt>
      <trkpt lat="43.72329" lon="3.447">
        <ele>532.7</ele>
        <time>2016-12-24T13:02:02Z</time>
      </trkpt>
      <trkpt lat="43.7233" lon="3.44709">
        <ele>533.1</ele>
        <time>2016-12-24T13:02:09Z</time>
      </trkpt>
      <trkpt lat="43.72327" lon="3.44717">
        <ele>533.2</ele>
        <time>2016-12-24T13:02:16Z</time>
      </trkpt>
      <trkpt lat="43.72328" lon="3.44725">
        <ele>533.4</ele>
        <time>2016-12-24T13:02:23Z</time>
      </trkpt>
      <trkpt lat="43.72334" lon="3.44727">
        <ele>534.4</ele>
        <time>2016-12-24T13:02:30Z</time>
      </trkpt>
      <trkpt lat="43.72337" lon="3.44729">
        <ele>535.1</ele>
        <time>2016-12-24T13:02:37Z</time>
      </trkpt>
      <trkpt lat="43.72332" lon="3.44726">
        <ele>534.1</ele>
        <time>2016-12-24T13:02:54Z</time>
      </trkpt>
      <trkpt lat="43.72329" lon="3.44719">
        <ele>534.4</ele>
        <time>2016-12-24T13:03:01Z</time>
      </trkpt>
      <trkpt lat="43.72327" lon="3.4471">
        <ele>534.5</ele>
        <time>2016-12-24T13:03:08Z</time>
      </trkpt>
      <trkpt lat="43.72328" lon="3.44702">
        <ele>534.2</ele>
        <time>2016-12-24T13:03:15Z</time>
      </trkpt>
      <trkpt lat="43.7233" lon="3.44696">
        <ele>534.5</ele>
        <time>2016-12-24T13:03:22Z</time>
      </trkpt>
      <trkpt lat="43.72328" lon="3.44691">
        <ele>534.3</ele>
        <time>2016-12-24T13:03:29Z</time>
      </trkpt>
      <trkpt lat="43.72319" lon="3.44686">
        <ele>532</ele>
        <time>2016-12-24T13:03:54Z</time>
      </trkpt>
      <trkpt lat="43.72321" lon="3.4468">
        <ele>532</ele>
        <time>2016-12-24T13:04:01Z</time>
      </trkpt>
      <trkpt lat="43.72322" lon="3.44675">
        <ele>532.1</ele>
        <time>2016-12-24T13:04:08Z</time>
      </trkpt>
      <trkpt lat="43.72321" lon="3.44671">
        <ele>532.1</ele>
        <time>2016-12-24T13:04:15Z</time>
      </trkpt>
      <trkpt lat="43.72317" lon="3.44665">
        <ele>531.5</ele>
        <time>2016-12-24T13:04:22Z</time>
      </trkpt>
      <trkpt lat="43.72316" lon="3.44673">
        <ele>530.7</ele>
        <time>2016-12-24T13:05:09Z</time>
      </trkpt>
      <trkpt lat="43.72317" lon="3.44682">
        <ele>531.8</ele>
        <time>2016-12-24T13:05:16Z</time>
      </trkpt>
      <trkpt lat="43.7232" lon="3.44687">
        <ele>532.6</ele>
        <time>2016-12-24T13:05:23Z</time>
      </trkpt>
      <trkpt lat="43.72323" lon="3.4469">
        <ele>532.7</ele>
        <time>2016-12-24T13:05:30Z</time>
      </trkpt>
      <trkpt lat="43.72326" lon="3.44691">
        <ele>532.8</ele>
        <time>2016-12-24T13:05:37Z</time>
      </trkpt>
      <trkpt lat="43.72332" lon="3.44689">
        <ele>533.3</ele>
        <time>2016-12-24T13:05:44Z</time>
      </trkpt>
      <trkpt lat="43.72334" lon="3.44687">
        <ele>532.6</ele>
        <time>2016-12-24T13:05:51Z</time>
      </trkpt>
      <trkpt lat="43.7232" lon="3.44695">
        <ele>531.3</ele>
        <time>2016-12-24T13:06:06Z</time>
      </trkpt>
      <trkpt lat="43.72312" lon="3.44695">
        <ele>530.7</ele>
        <time>2016-12-24T13:06:13Z</time>
      </trkpt>
      <trkpt lat="43.72306" lon="3.44694">
        <ele>531</ele>
        <time>2016-12-24T13:06:20Z</time>
      </trkpt>
      <trkpt lat="43.723" lon="3.44689">
        <ele>531.5</ele>
        <time>2016-12-24T13:06:27Z</time>
      </trkpt>
      <trkpt lat="43.72294" lon="3.44681">
        <ele>532.1</ele>
        <time>2016-12-24T13:06:33Z</time>
      </trkpt>
      <trkpt lat="43.72298" lon="3.44673">
        <ele>533</ele>
        <time>2016-12-24T13:07:10Z</time>
      </trkpt>
      <trkpt lat="43.72312" lon="3.4466">
        <ele>533</ele>
        <time>2016-12-24T13:07:55Z</time>
      </trkpt>
      <trkpt lat="43.72319" lon="3.44657">
        <ele>532.9</ele>
        <time>2016-12-24T13:07:59Z</time>
      </trkpt>
      <trkpt lat="43.72327" lon="3.44649">
        <ele>532.5</ele>
        <time>2016-12-24T13:08:05Z</time>
      </trkpt>
      <trkpt lat="43.72331" lon="3.4464">
        <ele>531.6</ele>
        <time>2016-12-24T13:08:09Z</time>
      </trkpt>
      <trkpt lat="43.72334" lon="3.44629">
        <ele>530.3</ele>
        <time>2016-12-24T13:08:13Z</time>
      </trkpt>
      <trkpt lat="43.72336" lon="3.44619">
        <ele>529.3</ele>
        <time>2016-12-24T13:08:17Z</time>
      </trkpt>
      <trkpt lat="43.7234" lon="3.44609">
        <ele>528.3</ele>
        <time>2016-12-24T13:08:21Z</time>
      </trkpt>
      <trkpt lat="43.72339" lon="3.44598">
        <ele>527.3</ele>
        <time>2016-12-24T13:08:25Z</time>
      </trkpt>
      <trkpt lat="43.72341" lon="3.44588">
        <ele>526.4</ele>
        <time>2016-12-24T13:08:28Z</time>
      </trkpt>
      <trkpt lat="43.72343" lon="3.44579">
        <ele>525.5</ele>
        <time>2016-12-24T13:08:31Z</time>
      </trkpt>
      <trkpt lat="43.7235" lon="3.44568">
        <ele>524.4</ele>
        <time>2016-12-24T13:08:35Z</time>
      </trkpt>
      <trkpt lat="43.72357" lon="3.44562">
        <ele>523.3</ele>
        <time>2016-12-24T13:08:38Z</time>
      </trkpt>
      <trkpt lat="43.72362" lon="3.44555">
        <ele>522.1</ele>
        <time>2016-12-24T13:08:41Z</time>
      </trkpt>
      <trkpt lat="43.72369" lon="3.44544">
        <ele>520.8</ele>
        <time>2016-12-24T13:08:44Z</time>
      </trkpt>
      <trkpt lat="43.72373" lon="3.44537">
        <ele>517.9</ele>
        <time>2016-12-24T13:08:51Z</time>
      </trkpt>
      <trkpt lat="43.72376" lon="3.44539">
        <ele>515.2</ele>
        <time>2016-12-24T13:08:58Z</time>
      </trkpt>
      <trkpt lat="43.7238" lon="3.44528">
        <ele>507.7</ele>
        <time>2016-12-24T13:09:27Z</time>
      </trkpt>
      <trkpt lat="43.72384" lon="3.44518">
        <ele>506.5</ele>
        <time>2016-12-24T13:09:30Z</time>
      </trkpt>
      <trkpt lat="43.72382" lon="3.44508">
        <ele>504.1</ele>
        <time>2016-12-24T13:09:35Z</time>
      </trkpt>
      <trkpt lat="43.72377" lon="3.44501">
        <ele>503.1</ele>
        <time>2016-12-24T13:09:37Z</time>
      </trkpt>
      <trkpt lat="43.72372" lon="3.44488">
        <ele>501.4</ele>
        <time>2016-12-24T13:09:40Z</time>
      </trkpt>
      <trkpt lat="43.7237" lon="3.44474">
        <ele>500.3</ele>
        <time>2016-12-24T13:09:42Z</time>
      </trkpt>
      <trkpt lat="43.72369" lon="3.44462">
        <ele>498.8</ele>
        <time>2016-12-24T13:09:45Z</time>
      </trkpt>
      <trkpt lat="43.72366" lon="3.44452">
        <ele>497.3</ele>
        <time>2016-12-24T13:09:48Z</time>
      </trkpt>
      <trkpt lat="43.72366" lon="3.4444">
        <ele>496.2</ele>
        <time>2016-12-24T13:09:50Z</time>
      </trkpt>
      <trkpt lat="43.72367" lon="3.44429">
        <ele>495</ele>
        <time>2016-12-24T13:09:52Z</time>
      </trkpt>
      <trkpt lat="43.72367" lon="3.44418">
        <ele>493.2</ele>
        <time>2016-12-24T13:09:55Z</time>
      </trkpt>
      <trkpt lat="43.72364" lon="3.44408">
        <ele>491.1</ele>
        <time>2016-12-24T13:09:58Z</time>
      </trkpt>
      <trkpt lat="43.72359" lon="3.44398">
        <ele>489.1</ele>
        <time>2016-12-24T13:10:01Z</time>
      </trkpt>
      <trkpt lat="43.72358" lon="3.44387">
        <ele>487.8</ele>
        <time>2016-12-24T13:10:03Z</time>
      </trkpt>
      <trkpt lat="43.72357" lon="3.44377">
        <ele>486.5</ele>
        <time>2016-12-24T13:10:05Z</time>
      </trkpt>
      <trkpt lat="43.7236" lon="3.44365">
        <ele>485.2</ele>
        <time>2016-12-24T13:10:07Z</time>
      </trkpt>
      <trkpt lat="43.72361" lon="3.44354">
        <ele>483.8</ele>
        <time>2016-12-24T13:10:09Z</time>
      </trkpt>
      <trkpt lat="43.72359" lon="3.44354">
        <ele>480.4</ele>
        <time>2016-12-24T13:10:16Z</time>
      </trkpt>
      <trkpt lat="43.72357" lon="3.4437">
        <ele>468.7</ele>
        <time>2016-12-24T13:10:37Z</time>
      </trkpt>
      <trkpt lat="43.72355" lon="3.44378">
        <ele>466.4</ele>
        <time>2016-12-24T13:10:44Z</time>
      </trkpt>
      <trkpt lat="43.72354" lon="3.44383">
        <ele>464.9</ele>
        <time>2016-12-24T13:10:51Z</time>
      </trkpt>
      <trkpt lat="43.72355" lon="3.4439">
        <ele>463</ele>
        <time>2016-12-24T13:10:58Z</time>
      </trkpt>
      <trkpt lat="43.72355" lon="3.44394">
        <ele>461.4</ele>
        <time>2016-12-24T13:11:05Z</time>
      </trkpt>
      <trkpt lat="43.72358" lon="3.44397">
        <ele>460.5</ele>
        <time>2016-12-24T13:11:12Z</time>
      </trkpt>
      <trkpt lat="43.72362" lon="3.44386">
        <ele>456.9</ele>
        <time>2016-12-24T13:11:59Z</time>
      </trkpt>
      <trkpt lat="43.72361" lon="3.44371">
        <ele>457.3</ele>
        <time>2016-12-24T13:12:01Z</time>
      </trkpt>
      <trkpt lat="43.72362" lon="3.44354">
        <ele>457.5</ele>
        <time>2016-12-24T13:12:04Z</time>
      </trkpt>
      <trkpt lat="43.72362" lon="3.44341">
        <ele>456.7</ele>
        <time>2016-12-24T13:12:06Z</time>
      </trkpt>
      <trkpt lat="43.72362" lon="3.4433">
        <ele>456.3</ele>
        <time>2016-12-24T13:12:09Z</time>
      </trkpt>
      <trkpt lat="43.72361" lon="3.44329">
        <ele>454.8</ele>
        <time>2016-12-24T13:12:16Z</time>
      </trkpt>
      <trkpt lat="43.72358" lon="3.4435">
        <ele>450.6</ele>
        <time>2016-12-24T13:12:45Z</time>
      </trkpt>
      <trkpt lat="43.72357" lon="3.44357">
        <ele>450.8</ele>
        <time>2016-12-24T13:12:52Z</time>
      </trkpt>
      <trkpt lat="43.72361" lon="3.44367">
        <ele>450.9</ele>
        <time>2016-12-24T13:12:57Z</time>
      </trkpt>
      <trkpt lat="43.72362" lon="3.44369">
        <ele>451</ele>
        <time>2016-12-24T13:13:04Z</time>
      </trkpt>
      <trkpt lat="43.72358" lon="3.44351">
        <ele>450.2</ele>
        <time>2016-12-24T13:13:28Z</time>
      </trkpt>
      <trkpt lat="43.72358" lon="3.44341">
        <ele>450.1</ele>
        <time>2016-12-24T13:13:30Z</time>
      </trkpt>
      <trkpt lat="43.72361" lon="3.44324">
        <ele>448.9</ele>
        <time>2016-12-24T13:13:32Z</time>
      </trkpt>
      <trkpt lat="43.72364" lon="3.44312">
        <ele>448.7</ele>
        <time>2016-12-24T13:13:34Z</time>
      </trkpt>
      <trkpt lat="43.72366" lon="3.44301">
        <ele>448.4</ele>
        <time>2016-12-24T13:13:36Z</time>
      </trkpt>
      <trkpt lat="43.72364" lon="3.44295">
        <ele>447.5</ele>
        <time>2016-12-24T13:13:43Z</time>
      </trkpt>
      <trkpt lat="43.72368" lon="3.44291">
        <ele>445.2</ele>
        <time>2016-12-24T13:14:32Z</time>
      </trkpt>
      <trkpt lat="43.72373" lon="3.44291">
        <ele>442.7</ele>
        <time>2016-12-24T13:15:07Z</time>
      </trkpt>
      <trkpt lat="43.72368" lon="3.44274">
        <ele>439.4</ele>
        <time>2016-12-24T13:16:33Z</time>
      </trkpt>
      <trkpt lat="43.72365" lon="3.44265">
        <ele>438.1</ele>
        <time>2016-12-24T13:16:40Z</time>
      </trkpt>
      <trkpt lat="43.72358" lon="3.44258">
        <ele>437.8</ele>
        <time>2016-12-24T13:16:46Z</time>
      </trkpt>
      <trkpt lat="43.72355" lon="3.44257">
        <ele>437.7</ele>
        <time>2016-12-24T13:16:53Z</time>
      </trkpt>
      <trkpt lat="43.72362" lon="3.44261">
        <ele>437.8</ele>
        <time>2016-12-24T13:16:56Z</time>
      </trkpt>
      <trkpt lat="43.72369" lon="3.44263">
        <ele>438.1</ele>
        <time>2016-12-24T13:16:59Z</time>
      </trkpt>
      <trkpt lat="43.72375" lon="3.44259">
        <ele>438</ele>
        <time>2016-12-24T13:17:06Z</time>
      </trkpt>
      <trkpt lat="43.72377" lon="3.44247">
        <ele>437.6</ele>
        <time>2016-12-24T13:17:24Z</time>
      </trkpt>
      <trkpt lat="43.72393" lon="3.44229">
        <ele>439.9</ele>
        <time>2016-12-24T13:17:57Z</time>
      </trkpt>
      <trkpt lat="43.72396" lon="3.44218">
        <ele>439.5</ele>
        <time>2016-12-24T13:18:02Z</time>
      </trkpt>
      <trkpt lat="43.72401" lon="3.44208">
        <ele>439</ele>
        <time>2016-12-24T13:18:06Z</time>
      </trkpt>
      <trkpt lat="43.72407" lon="3.44199">
        <ele>438.4</ele>
        <time>2016-12-24T13:18:09Z</time>
      </trkpt>
      <trkpt lat="43.72408" lon="3.44188">
        <ele>437.3</ele>
        <time>2016-12-24T13:18:13Z</time>
      </trkpt>
      <trkpt lat="43.7241" lon="3.4418">
        <ele>435.7</ele>
        <time>2016-12-24T13:18:20Z</time>
      </trkpt>
      <trkpt lat="43.72408" lon="3.4417">
        <ele>434.2</ele>
        <time>2016-12-24T13:18:27Z</time>
      </trkpt>
      <trkpt lat="43.72409" lon="3.44158">
        <ele>433.4</ele>
        <time>2016-12-24T13:18:32Z</time>
      </trkpt>
      <trkpt lat="43.72406" lon="3.44147">
        <ele>432.8</ele>
        <time>2016-12-24T13:18:35Z</time>
      </trkpt>
      <trkpt lat="43.72403" lon="3.44138">
        <ele>432.3</ele>
        <time>2016-12-24T13:18:37Z</time>
      </trkpt>
      <trkpt lat="43.72398" lon="3.44129">
        <ele>431.8</ele>
        <time>2016-12-24T13:18:40Z</time>
      </trkpt>
      <trkpt lat="43.72401" lon="3.44118">
        <ele>430.1</ele>
        <time>2016-12-24T13:18:45Z</time>
      </trkpt>
      <trkpt lat="43.72407" lon="3.44107">
        <ele>428.2</ele>
        <time>2016-12-24T13:18:50Z</time>
      </trkpt>
      <trkpt lat="43.72412" lon="3.441">
        <ele>426.4</ele>
        <time>2016-12-24T13:18:55Z</time>
      </trkpt>
      <trkpt lat="43.72415" lon="3.441">
        <ele>424.7</ele>
        <time>2016-12-24T13:19:02Z</time>
      </trkpt>
      <trkpt lat="43.7241" lon="3.44103">
        <ele>417.2</ele>
        <time>2016-12-24T13:19:30Z</time>
      </trkpt>
      <trkpt lat="43.72408" lon="3.44106">
        <ele>414.9</ele>
        <time>2016-12-24T13:19:37Z</time>
      </trkpt>
      <trkpt lat="43.72406" lon="3.44108">
        <ele>413.9</ele>
        <time>2016-12-24T13:19:44Z</time>
      </trkpt>
      <trkpt lat="43.724" lon="3.44117">
        <ele>412.1</ele>
        <time>2016-12-24T13:20:04Z</time>
      </trkpt>
      <trkpt lat="43.72398" lon="3.4412">
        <ele>412.3</ele>
        <time>2016-12-24T13:20:11Z</time>
      </trkpt>
      <trkpt lat="43.72398" lon="3.44123">
        <ele>412.6</ele>
        <time>2016-12-24T13:20:18Z</time>
      </trkpt>
      <trkpt lat="43.72401" lon="3.44124">
        <ele>413.8</ele>
        <time>2016-12-24T13:20:25Z</time>
      </trkpt>
      <trkpt lat="43.72403" lon="3.44126">
        <ele>414.5</ele>
        <time>2016-12-24T13:20:32Z</time>
      </trkpt>
      <trkpt lat="43.72392" lon="3.44106">
        <ele>415.3</ele>
        <time>2016-12-24T13:21:52Z</time>
      </trkpt>
      <trkpt lat="43.72386" lon="3.441">
        <ele>415.3</ele>
        <time>2016-12-24T13:21:55Z</time>
      </trkpt>
      <trkpt lat="43.72379" lon="3.44095">
        <ele>414.8</ele>
        <time>2016-12-24T13:21:59Z</time>
      </trkpt>
      <trkpt lat="43.72373" lon="3.4409">
        <ele>414.2</ele>
        <time>2016-12-24T13:22:04Z</time>
      </trkpt>
      <trkpt lat="43.72366" lon="3.44085">
        <ele>413.9</ele>
        <time>2016-12-24T13:22:07Z</time>
      </trkpt>
      <trkpt lat="43.72361" lon="3.44081">
        <ele>413</ele>
        <time>2016-12-24T13:22:14Z</time>
      </trkpt>
      <trkpt lat="43.72362" lon="3.4408">
        <ele>412</ele>
        <time>2016-12-24T13:22:21Z</time>
      </trkpt>
      <trkpt lat="43.72359" lon="3.44058">
        <ele>410.5</ele>
        <time>2016-12-24T13:23:07Z</time>
      </trkpt>
      <trkpt lat="43.72359" lon="3.44047">
        <ele>409.4</ele>
        <time>2016-12-24T13:23:11Z</time>
      </trkpt>
      <trkpt lat="43.72361" lon="3.44036">
        <ele>408.3</ele>
        <time>2016-12-24T13:23:15Z</time>
      </trkpt>
      <trkpt lat="43.72361" lon="3.44025">
        <ele>407.1</ele>
        <time>2016-12-24T13:23:20Z</time>
      </trkpt>
      <trkpt lat="43.72356" lon="3.44016">
        <ele>405.2</ele>
        <time>2016-12-24T13:23:26Z</time>
      </trkpt>
      <trkpt lat="43.72355" lon="3.4401">
        <ele>402.6</ele>
        <time>2016-12-24T13:23:33Z</time>
      </trkpt>
      <trkpt lat="43.72345" lon="3.4401">
        <ele>395.6</ele>
        <time>2016-12-24T13:24:03Z</time>
      </trkpt>
      <trkpt lat="43.7234" lon="3.44012">
        <ele>393.3</ele>
        <time>2016-12-24T13:24:10Z</time>
      </trkpt>
      <trkpt lat="43.72333" lon="3.44016">
        <ele>391.6</ele>
        <time>2016-12-24T13:24:15Z</time>
      </trkpt>
      <trkpt lat="43.72325" lon="3.44022">
        <ele>390.4</ele>
        <time>2016-12-24T13:24:19Z</time>
      </trkpt>
      <trkpt lat="43.72319" lon="3.44026">
        <ele>389.6</ele>
        <time>2016-12-24T13:24:22Z</time>
      </trkpt>
      <trkpt lat="43.72311" lon="3.44032">
        <ele>388.4</ele>
        <time>2016-12-24T13:24:26Z</time>
      </trkpt>
      <trkpt lat="43.72304" lon="3.44037">
        <ele>387</ele>
        <time>2016-12-24T13:24:31Z</time>
      </trkpt>
      <trkpt lat="43.72297" lon="3.4404">
        <ele>386</ele>
        <time>2016-12-24T13:24:35Z</time>
      </trkpt>
      <trkpt lat="43.72289" lon="3.44039">
        <ele>384.9</ele>
        <time>2016-12-24T13:24:41Z</time>
      </trkpt>
      <trkpt lat="43.72281" lon="3.44043">
        <ele>384.5</ele>
        <time>2016-12-24T13:24:46Z</time>
      </trkpt>
      <trkpt lat="43.72275" lon="3.44051">
        <ele>384.2</ele>
        <time>2016-12-24T13:24:50Z</time>
      </trkpt>
      <trkpt lat="43.72271" lon="3.44059">
        <ele>383.9</ele>
        <time>2016-12-24T13:24:54Z</time>
      </trkpt>
      <trkpt lat="43.72269" lon="3.44062">
        <ele>383.3</ele>
        <time>2016-12-24T13:25:01Z</time>
      </trkpt>
      <trkpt lat="43.72267" lon="3.44067">
        <ele>382.9</ele>
        <time>2016-12-24T13:25:08Z</time>
      </trkpt>
      <trkpt lat="43.72266" lon="3.44073">
        <ele>383</ele>
        <time>2016-12-24T13:25:15Z</time>
      </trkpt>
      <trkpt lat="43.72263" lon="3.44079">
        <ele>383.2</ele>
        <time>2016-12-24T13:25:22Z</time>
      </trkpt>
      <trkpt lat="43.72261" lon="3.44082">
        <ele>382.6</ele>
        <time>2016-12-24T13:25:29Z</time>
      </trkpt>
      <trkpt lat="43.72259" lon="3.44091">
        <ele>382.6</ele>
        <time>2016-12-24T13:25:36Z</time>
      </trkpt>
      <trkpt lat="43.72257" lon="3.44096">
        <ele>382.4</ele>
        <time>2016-12-24T13:25:43Z</time>
      </trkpt>
      <trkpt lat="43.72253" lon="3.44104">
        <ele>382.1</ele>
        <time>2016-12-24T13:25:49Z</time>
      </trkpt>
      <trkpt lat="43.72249" lon="3.44109">
        <ele>382.4</ele>
        <time>2016-12-24T13:25:56Z</time>
      </trkpt>
      <trkpt lat="43.72244" lon="3.44114">
        <ele>382.4</ele>
        <time>2016-12-24T13:26:03Z</time>
      </trkpt>
      <trkpt lat="43.72239" lon="3.44116">
        <ele>382.4</ele>
        <time>2016-12-24T13:26:10Z</time>
      </trkpt>
      <trkpt lat="43.72238" lon="3.44119">
        <ele>382.4</ele>
        <time>2016-12-24T13:26:17Z</time>
      </trkpt>
      <trkpt lat="43.72234" lon="3.44122">
        <ele>382.4</ele>
        <time>2016-12-24T13:26:24Z</time>
      </trkpt>
      <trkpt lat="43.72228" lon="3.44127">
        <ele>382.3</ele>
        <time>2016-12-24T13:26:31Z</time>
      </trkpt>
      <trkpt lat="43.72224" lon="3.44131">
        <ele>382.1</ele>
        <time>2016-12-24T13:26:38Z</time>
      </trkpt>
      <trkpt lat="43.72218" lon="3.44138">
        <ele>382.9</ele>
        <time>2016-12-24T13:26:45Z</time>
      </trkpt>
      <trkpt lat="43.72213" lon="3.44144">
        <ele>383.4</ele>
        <time>2016-12-24T13:26:50Z</time>
      </trkpt>
      <trkpt lat="43.7221" lon="3.44155">
        <ele>384</ele>
        <time>2016-12-24T13:26:56Z</time>
      </trkpt>
      <trkpt lat="43.72209" lon="3.44165">
        <ele>384.3</ele>
        <time>2016-12-24T13:27:02Z</time>
      </trkpt>
      <trkpt lat="43.72209" lon="3.44162">
        <ele>384.5</ele>
        <time>2016-12-24T13:27:09Z</time>
      </trkpt>
      <trkpt lat="43.72213" lon="3.44156">
        <ele>384.2</ele>
        <time>2016-12-24T13:27:16Z</time>
      </trkpt>
      <trkpt lat="43.72208" lon="3.4416">
        <ele>384</ele>
        <time>2016-12-24T13:27:23Z</time>
      </trkpt>
      <trkpt lat="43.72211" lon="3.44163">
        <ele>383.7</ele>
        <time>2016-12-24T13:27:30Z</time>
      </trkpt>
      <trkpt lat="43.72207" lon="3.44163">
        <ele>383.8</ele>
        <time>2016-12-24T13:27:37Z</time>
      </trkpt>
      <trkpt lat="43.7221" lon="3.44161">
        <ele>384</ele>
        <time>2016-12-24T13:27:44Z</time>
      </trkpt>
      <trkpt lat="43.72213" lon="3.44158">
        <ele>386.2</ele>
        <time>2016-12-24T13:28:23Z</time>
      </trkpt>
      <trkpt lat="43.72213" lon="3.44167">
        <ele>386.1</ele>
        <time>2016-12-24T13:28:40Z</time>
      </trkpt>
      <trkpt lat="43.72209" lon="3.44164">
        <ele>386.1</ele>
        <time>2016-12-24T13:28:47Z</time>
      </trkpt>
      <trkpt lat="43.72207" lon="3.44161">
        <ele>385.8</ele>
        <time>2016-12-24T13:28:54Z</time>
      </trkpt>
      <trkpt lat="43.72205" lon="3.44157">
        <ele>386.5</ele>
        <time>2016-12-24T13:29:01Z</time>
      </trkpt>
      <trkpt lat="43.72214" lon="3.44162">
        <ele>385.9</ele>
        <time>2016-12-24T13:29:21Z</time>
      </trkpt>
      <trkpt lat="43.72196" lon="3.4417">
        <ele>386.4</ele>
        <time>2016-12-24T13:29:46Z</time>
      </trkpt>
      <trkpt lat="43.72186" lon="3.44177">
        <ele>386.4</ele>
        <time>2016-12-24T13:29:48Z</time>
      </trkpt>
      <trkpt lat="43.72174" lon="3.4418">
        <ele>384.7</ele>
        <time>2016-12-24T13:29:50Z</time>
      </trkpt>
      <trkpt lat="43.72162" lon="3.44185">
        <ele>383.7</ele>
        <time>2016-12-24T13:29:52Z</time>
      </trkpt>
      <trkpt lat="43.72151" lon="3.44191">
        <ele>382.4</ele>
        <time>2016-12-24T13:29:54Z</time>
      </trkpt>
      <trkpt lat="43.72143" lon="3.44203">
        <ele>381.1</ele>
        <time>2016-12-24T13:29:56Z</time>
      </trkpt>
      <trkpt lat="43.72134" lon="3.44216">
        <ele>379.7</ele>
        <time>2016-12-24T13:29:58Z</time>
      </trkpt>
      <trkpt lat="43.72124" lon="3.44229">
        <ele>379.4</ele>
        <time>2016-12-24T13:30:00Z</time>
      </trkpt>
      <trkpt lat="43.72112" lon="3.44243">
        <ele>378.9</ele>
        <time>2016-12-24T13:30:02Z</time>
      </trkpt>
      <trkpt lat="43.72106" lon="3.44251">
        <ele>378.3</ele>
        <time>2016-12-24T13:30:03Z</time>
      </trkpt>
      <trkpt lat="43.72099" lon="3.44259">
        <ele>378.4</ele>
        <time>2016-12-24T13:30:04Z</time>
      </trkpt>
      <trkpt lat="43.72093" lon="3.44268">
        <ele>378.3</ele>
        <time>2016-12-24T13:30:05Z</time>
      </trkpt>
      <trkpt lat="43.72087" lon="3.44275">
        <ele>377.9</ele>
        <time>2016-12-24T13:30:06Z</time>
      </trkpt>
      <trkpt lat="43.7208" lon="3.44282">
        <ele>377.9</ele>
        <time>2016-12-24T13:30:07Z</time>
      </trkpt>
      <trkpt lat="43.72073" lon="3.44288">
        <ele>377.8</ele>
        <time>2016-12-24T13:30:08Z</time>
      </trkpt>
      <trkpt lat="43.72065" lon="3.44294">
        <ele>377</ele>
        <time>2016-12-24T13:30:09Z</time>
      </trkpt>
      <trkpt lat="43.72057" lon="3.44297">
        <ele>376.4</ele>
        <time>2016-12-24T13:30:10Z</time>
      </trkpt>
      <trkpt lat="43.72049" lon="3.443">
        <ele>375.8</ele>
        <time>2016-12-24T13:30:11Z</time>
      </trkpt>
      <trkpt lat="43.72042" lon="3.44302">
        <ele>375.2</ele>
        <time>2016-12-24T13:30:12Z</time>
      </trkpt>
      <trkpt lat="43.72032" lon="3.44306">
        <ele>374.7</ele>
        <time>2016-12-24T13:30:13Z</time>
      </trkpt>
      <trkpt lat="43.72023" lon="3.44309">
        <ele>373.7</ele>
        <time>2016-12-24T13:30:14Z</time>
      </trkpt>
      <trkpt lat="43.72016" lon="3.44316">
        <ele>373</ele>
        <time>2016-12-24T13:30:15Z</time>
      </trkpt>
      <trkpt lat="43.72009" lon="3.44322">
        <ele>371.9</ele>
        <time>2016-12-24T13:30:16Z</time>
      </trkpt>
      <trkpt lat="43.72002" lon="3.44328">
        <ele>371.6</ele>
        <time>2016-12-24T13:30:17Z</time>
      </trkpt>
      <trkpt lat="43.71994" lon="3.44332">
        <ele>371.2</ele>
        <time>2016-12-24T13:30:18Z</time>
      </trkpt>
      <trkpt lat="43.71986" lon="3.44331">
        <ele>370.7</ele>
        <time>2016-12-24T13:30:19Z</time>
      </trkpt>
      <trkpt lat="43.71977" lon="3.44329">
        <ele>370.5</ele>
        <time>2016-12-24T13:30:20Z</time>
      </trkpt>
      <trkpt lat="43.71969" lon="3.44326">
        <ele>370.3</ele>
        <time>2016-12-24T13:30:21Z</time>
      </trkpt>
      <trkpt lat="43.71958" lon="3.4432">
        <ele>368.7</ele>
        <time>2016-12-24T13:30:23Z</time>
      </trkpt>
      <trkpt lat="43.71946" lon="3.44317">
        <ele>367.5</ele>
        <time>2016-12-24T13:30:25Z</time>
      </trkpt>
      <trkpt lat="43.71935" lon="3.44316">
        <ele>367</ele>
        <time>2016-12-24T13:30:27Z</time>
      </trkpt>
      <trkpt lat="43.71926" lon="3.44316">
        <ele>366.2</ele>
        <time>2016-12-24T13:30:29Z</time>
      </trkpt>
      <trkpt lat="43.71919" lon="3.44314">
        <ele>366.2</ele>
        <time>2016-12-24T13:30:32Z</time>
      </trkpt>
      <trkpt lat="43.71926" lon="3.44317">
        <ele>366.4</ele>
        <time>2016-12-24T13:30:39Z</time>
      </trkpt>
      <trkpt lat="43.7193" lon="3.44312">
        <ele>366.8</ele>
        <time>2016-12-24T13:30:46Z</time>
      </trkpt>
      <trkpt lat="43.71922" lon="3.44314">
        <ele>366.6</ele>
        <time>2016-12-24T13:30:48Z</time>
      </trkpt>
      <trkpt lat="43.71912" lon="3.44316">
        <ele>365</ele>
        <time>2016-12-24T13:30:50Z</time>
      </trkpt>
      <trkpt lat="43.71903" lon="3.44317">
        <ele>364</ele>
        <time>2016-12-24T13:30:52Z</time>
      </trkpt>
      <trkpt lat="43.71891" lon="3.44318">
        <ele>363.1</ele>
        <time>2016-12-24T13:30:54Z</time>
      </trkpt>
      <trkpt lat="43.71878" lon="3.44321">
        <ele>362.7</ele>
        <time>2016-12-24T13:30:56Z</time>
      </trkpt>
      <trkpt lat="43.71866" lon="3.44326">
        <ele>362.5</ele>
        <time>2016-12-24T13:30:58Z</time>
      </trkpt>
      <trkpt lat="43.71859" lon="3.44331">
        <ele>362.4</ele>
        <time>2016-12-24T13:30:59Z</time>
      </trkpt>
      <trkpt lat="43.71853" lon="3.44336">
        <ele>362.1</ele>
        <time>2016-12-24T13:31:00Z</time>
      </trkpt>
      <trkpt lat="43.71847" lon="3.44341">
        <ele>362</ele>
        <time>2016-12-24T13:31:01Z</time>
      </trkpt>
      <trkpt lat="43.7184" lon="3.44347">
        <ele>361.9</ele>
        <time>2016-12-24T13:31:02Z</time>
      </trkpt>
      <trkpt lat="43.71826" lon="3.44348">
        <ele>361.3</ele>
        <time>2016-12-24T13:31:04Z</time>
      </trkpt>
      <trkpt lat="43.71818" lon="3.44349">
        <ele>361.3</ele>
        <time>2016-12-24T13:31:05Z</time>
      </trkpt>
      <trkpt lat="43.71811" lon="3.44351">
        <ele>360.9</ele>
        <time>2016-12-24T13:31:06Z</time>
      </trkpt>
      <trkpt lat="43.718" lon="3.44357">
        <ele>360</ele>
        <time>2016-12-24T13:31:08Z</time>
      </trkpt>
      <trkpt lat="43.71792" lon="3.44362">
        <ele>359.1</ele>
        <time>2016-12-24T13:31:10Z</time>
      </trkpt>
      <trkpt lat="43.71784" lon="3.44364">
        <ele>358</ele>
        <time>2016-12-24T13:31:12Z</time>
      </trkpt>
      <trkpt lat="43.71774" lon="3.44365">
        <ele>357.4</ele>
        <time>2016-12-24T13:31:15Z</time>
      </trkpt>
      <trkpt lat="43.71768" lon="3.4437">
        <ele>357</ele>
        <time>2016-12-24T13:31:19Z</time>
      </trkpt>
      <trkpt lat="43.71766" lon="3.44375">
        <ele>356.5</ele>
        <time>2016-12-24T13:31:26Z</time>
      </trkpt>
      <trkpt lat="43.71769" lon="3.4434">
        <ele>353.2</ele>
        <time>2016-12-24T13:31:48Z</time>
      </trkpt>
      <trkpt lat="43.71764" lon="3.44327">
        <ele>352.3</ele>
        <time>2016-12-24T13:31:50Z</time>
      </trkpt>
      <trkpt lat="43.71762" lon="3.44316">
        <ele>352.2</ele>
        <time>2016-12-24T13:31:52Z</time>
      </trkpt>
      <trkpt lat="43.71758" lon="3.44302">
        <ele>351.9</ele>
        <time>2016-12-24T13:31:55Z</time>
      </trkpt>
      <trkpt lat="43.71756" lon="3.44291">
        <ele>351.7</ele>
        <time>2016-12-24T13:31:57Z</time>
      </trkpt>
      <trkpt lat="43.71756" lon="3.44281">
        <ele>351</ele>
        <time>2016-12-24T13:32:01Z</time>
      </trkpt>
      <trkpt lat="43.71755" lon="3.44269">
        <ele>350.1</ele>
        <time>2016-12-24T13:32:05Z</time>
      </trkpt>
      <trkpt lat="43.71754" lon="3.44268">
        <ele>348.5</ele>
        <time>2016-12-24T13:32:12Z</time>
      </trkpt>
      <trkpt lat="43.71741" lon="3.44231">
        <ele>339.8</ele>
        <time>2016-12-24T13:32:10Z</time>
      </trkpt>
      <trkpt lat="43.71732" lon="3.44226">
        <ele>339.3</ele>
        <time>2016-12-24T13:33:18Z</time>
      </trkpt>
      <trkpt lat="43.71729" lon="3.44212">
        <ele>336.4</ele>
        <time>2016-12-24T13:33:22Z</time>
      </trkpt>
      <trkpt lat="43.71728" lon="3.44197">
        <ele>335.9</ele>
        <time>2016-12-24T13:33:25Z</time>
      </trkpt>
      <trkpt lat="43.71725" lon="3.44184">
        <ele>335.3</ele>
        <time>2016-12-24T13:33:28Z</time>
      </trkpt>
      <trkpt lat="43.71722" lon="3.44171">
        <ele>334.6</ele>
        <time>2016-12-24T13:33:31Z</time>
      </trkpt>
      <trkpt lat="43.7172" lon="3.4416">
        <ele>329.8</ele>
        <time>2016-12-24T13:33:34Z</time>
      </trkpt>
      <trkpt lat="43.71721" lon="3.44149">
        <ele>328.8</ele>
        <time>2016-12-24T13:33:37Z</time>
      </trkpt>
      <trkpt lat="43.71721" lon="3.44144">
        <ele>327.6</ele>
        <time>2016-12-24T13:33:44Z</time>
      </trkpt>
      <trkpt lat="43.7172" lon="3.44108">
        <ele>315.3</ele>
        <time>2016-12-24T13:34:36Z</time>
      </trkpt>
      <trkpt lat="43.71726" lon="3.441">
        <ele>314.3</ele>
        <time>2016-12-24T13:34:39Z</time>
      </trkpt>
      <trkpt lat="43.71721" lon="3.44105">
        <ele>297.7</ele>
        <time>2016-12-24T13:37:59Z</time>
      </trkpt>
      <trkpt lat="43.71714" lon="3.44107">
        <ele>295.8</ele>
        <time>2016-12-24T13:38:17Z</time>
      </trkpt>
      <trkpt lat="43.71718" lon="3.44095">
        <ele>292.8</ele>
        <time>2016-12-24T13:39:04Z</time>
      </trkpt>
      <trkpt lat="43.71725" lon="3.44091">
        <ele>292.1</ele>
        <time>2016-12-24T13:39:10Z</time>
      </trkpt>
      <trkpt lat="43.71732" lon="3.4408">
        <ele>291.8</ele>
        <time>2016-12-24T13:39:14Z</time>
      </trkpt>
      <trkpt lat="43.71738" lon="3.44069">
        <ele>291.6</ele>
        <time>2016-12-24T13:39:16Z</time>
      </trkpt>
      <trkpt lat="43.71739" lon="3.44059">
        <ele>291.3</ele>
        <time>2016-12-24T13:39:18Z</time>
      </trkpt>
      <trkpt lat="43.71739" lon="3.44049">
        <ele>290.8</ele>
        <time>2016-12-24T13:39:21Z</time>
      </trkpt>
      <trkpt lat="43.71736" lon="3.44035">
        <ele>290.3</ele>
        <time>2016-12-24T13:39:24Z</time>
      </trkpt>
      <trkpt lat="43.71743" lon="3.44031">
        <ele>289.9</ele>
        <time>2016-12-24T13:39:28Z</time>
      </trkpt>
      <trkpt lat="43.71747" lon="3.4404">
        <ele>288.7</ele>
        <time>2016-12-24T13:39:35Z</time>
      </trkpt>
      <trkpt lat="43.71746" lon="3.44038">
        <ele>287.3</ele>
        <time>2016-12-24T13:39:42Z</time>
      </trkpt>
      <trkpt lat="43.7174" lon="3.44034">
        <ele>286.2</ele>
        <time>2016-12-24T13:39:49Z</time>
      </trkpt>
      <trkpt lat="43.71746" lon="3.44038">
        <ele>285.5</ele>
        <time>2016-12-24T13:39:56Z</time>
      </trkpt>
      <trkpt lat="43.71749" lon="3.44039">
        <ele>285</ele>
        <time>2016-12-24T13:40:03Z</time>
      </trkpt>
      <trkpt lat="43.71745" lon="3.44036">
        <ele>284.6</ele>
        <time>2016-12-24T13:40:10Z</time>
      </trkpt>
      <trkpt lat="43.71741" lon="3.44034">
        <ele>283.7</ele>
        <time>2016-12-24T13:40:17Z</time>
      </trkpt>
      <trkpt lat="43.71746" lon="3.44041">
        <ele>283.2</ele>
        <time>2016-12-24T13:40:24Z</time>
      </trkpt>
      <trkpt lat="43.71752" lon="3.44048">
        <ele>282.3</ele>
        <time>2016-12-24T13:40:31Z</time>
      </trkpt>
      <trkpt lat="43.71759" lon="3.44053">
        <ele>281.9</ele>
        <time>2016-12-24T13:40:35Z</time>
      </trkpt>
      <trkpt lat="43.71767" lon="3.44056">
        <ele>281.8</ele>
        <time>2016-12-24T13:40:40Z</time>
      </trkpt>
      <trkpt lat="43.71774" lon="3.44058">
        <ele>282.2</ele>
        <time>2016-12-24T13:40:44Z</time>
      </trkpt>
      <trkpt lat="43.71782" lon="3.44059">
        <ele>283</ele>
        <time>2016-12-24T13:40:48Z</time>
      </trkpt>
      <trkpt lat="43.7179" lon="3.44064">
        <ele>283.8</ele>
        <time>2016-12-24T13:40:53Z</time>
      </trkpt>
      <trkpt lat="43.71788" lon="3.44076">
        <ele>284.2</ele>
        <time>2016-12-24T13:40:58Z</time>
      </trkpt>
      <trkpt lat="43.7178" lon="3.44081">
        <ele>284.3</ele>
        <time>2016-12-24T13:41:02Z</time>
      </trkpt>
      <trkpt lat="43.71772" lon="3.44082">
        <ele>284.4</ele>
        <time>2016-12-24T13:41:06Z</time>
      </trkpt>
      <trkpt lat="43.71764" lon="3.44081">
        <ele>284.6</ele>
        <time>2016-12-24T13:41:10Z</time>
      </trkpt>
      <trkpt lat="43.71757" lon="3.44083">
        <ele>284.8</ele>
        <time>2016-12-24T13:41:15Z</time>
      </trkpt>
      <trkpt lat="43.7175" lon="3.44086">
        <ele>285.1</ele>
        <time>2016-12-24T13:41:19Z</time>
      </trkpt>
      <trkpt lat="43.71742" lon="3.4409">
        <ele>285.2</ele>
        <time>2016-12-24T13:41:23Z</time>
      </trkpt>
      <trkpt lat="43.71736" lon="3.44095">
        <ele>285.5</ele>
        <time>2016-12-24T13:41:27Z</time>
      </trkpt>
      <trkpt lat="43.71729" lon="3.441">
        <ele>285.9</ele>
        <time>2016-12-24T13:41:31Z</time>
      </trkpt>
      <trkpt lat="43.71721" lon="3.44104">
        <ele>286.2</ele>
        <time>2016-12-24T13:41:35Z</time>
      </trkpt>
      <trkpt lat="43.71713" lon="3.44107">
        <ele>286.5</ele>
        <time>2016-12-24T13:41:39Z</time>
      </trkpt>
      <trkpt lat="43.71704" lon="3.44108">
        <ele>286.8</ele>
        <time>2016-12-24T13:41:43Z</time>
      </trkpt>
      <trkpt lat="43.71696" lon="3.4411">
        <ele>287.2</ele>
        <time>2016-12-24T13:41:47Z</time>
      </trkpt>
      <trkpt lat="43.71688" lon="3.44115">
        <ele>287.7</ele>
        <time>2016-12-24T13:41:52Z</time>
      </trkpt>
      <trkpt lat="43.71681" lon="3.44122">
        <ele>288.2</ele>
        <time>2016-12-24T13:41:55Z</time>
      </trkpt>
      <trkpt lat="43.71674" lon="3.44127">
        <ele>288.8</ele>
        <time>2016-12-24T13:41:59Z</time>
      </trkpt>
      <trkpt lat="43.71666" lon="3.44131">
        <ele>289.5</ele>
        <time>2016-12-24T13:42:03Z</time>
      </trkpt>
      <trkpt lat="43.71658" lon="3.44134">
        <ele>290.3</ele>
        <time>2016-12-24T13:42:07Z</time>
      </trkpt>
      <trkpt lat="43.7165" lon="3.44136">
        <ele>290.8</ele>
        <time>2016-12-24T13:42:12Z</time>
      </trkpt>
      <trkpt lat="43.71647" lon="3.44148">
        <ele>291.3</ele>
        <time>2016-12-24T13:42:17Z</time>
      </trkpt>
      <trkpt lat="43.71654" lon="3.44153">
        <ele>291.7</ele>
        <time>2016-12-24T13:42:21Z</time>
      </trkpt>
      <trkpt lat="43.71662" lon="3.44153">
        <ele>292.3</ele>
        <time>2016-12-24T13:42:25Z</time>
      </trkpt>
      <trkpt lat="43.7167" lon="3.44152">
        <ele>292.9</ele>
        <time>2016-12-24T13:42:28Z</time>
      </trkpt>
      <trkpt lat="43.71677" lon="3.44151">
        <ele>293.8</ele>
        <time>2016-12-24T13:42:32Z</time>
      </trkpt>
      <trkpt lat="43.71686" lon="3.44149">
        <ele>294.7</ele>
        <time>2016-12-24T13:42:36Z</time>
      </trkpt>
      <trkpt lat="43.71693" lon="3.44147">
        <ele>295.6</ele>
        <time>2016-12-24T13:42:40Z</time>
      </trkpt>
      <trkpt lat="43.71702" lon="3.44146">
        <ele>296.5</ele>
        <time>2016-12-24T13:42:44Z</time>
      </trkpt>
      <trkpt lat="43.7171" lon="3.44145">
        <ele>297.6</ele>
        <time>2016-12-24T13:42:49Z</time>
      </trkpt>
      <trkpt lat="43.71717" lon="3.44147">
        <ele>298.2</ele>
        <time>2016-12-24T13:42:53Z</time>
      </trkpt>
      <trkpt lat="43.71726" lon="3.44147">
        <ele>299</ele>
        <time>2016-12-24T13:42:58Z</time>
      </trkpt>
      <trkpt lat="43.71729" lon="3.44146">
        <ele>300.1</ele>
        <time>2016-12-24T13:43:05Z</time>
      </trkpt>
      <trkpt lat="43.71745" lon="3.4415">
        <ele>301.3</ele>
        <time>2016-12-24T13:43:30Z</time>
      </trkpt>
      <trkpt lat="43.71753" lon="3.44153">
        <ele>301.6</ele>
        <time>2016-12-24T13:43:34Z</time>
      </trkpt>
      <trkpt lat="43.71761" lon="3.44154">
        <ele>302.2</ele>
        <time>2016-12-24T13:43:38Z</time>
      </trkpt>
      <trkpt lat="43.7177" lon="3.44157">
        <ele>303</ele>
        <time>2016-12-24T13:43:43Z</time>
      </trkpt>
      <trkpt lat="43.71777" lon="3.44161">
        <ele>303.4</ele>
        <time>2016-12-24T13:43:47Z</time>
      </trkpt>
      <trkpt lat="43.71784" lon="3.44167">
        <ele>303.8</ele>
        <time>2016-12-24T13:43:51Z</time>
      </trkpt>
      <trkpt lat="43.71789" lon="3.44176">
        <ele>304.2</ele>
        <time>2016-12-24T13:43:55Z</time>
      </trkpt>
      <trkpt lat="43.71792" lon="3.44186">
        <ele>304.4</ele>
        <time>2016-12-24T13:43:59Z</time>
      </trkpt>
      <trkpt lat="43.71795" lon="3.44198">
        <ele>304.7</ele>
        <time>2016-12-24T13:44:03Z</time>
      </trkpt>
      <trkpt lat="43.71797" lon="3.44209">
        <ele>305</ele>
        <time>2016-12-24T13:44:07Z</time>
      </trkpt>
      <trkpt lat="43.71805" lon="3.44215">
        <ele>305.3</ele>
        <time>2016-12-24T13:44:11Z</time>
      </trkpt>
      <trkpt lat="43.71812" lon="3.4421">
        <ele>305.6</ele>
        <time>2016-12-24T13:44:16Z</time>
      </trkpt>
      <trkpt lat="43.71817" lon="3.44202">
        <ele>306.1</ele>
        <time>2016-12-24T13:44:20Z</time>
      </trkpt>
      <trkpt lat="43.71822" lon="3.44192">
        <ele>306.3</ele>
        <time>2016-12-24T13:44:24Z</time>
      </trkpt>
      <trkpt lat="43.71827" lon="3.44182">
        <ele>306.7</ele>
        <time>2016-12-24T13:44:28Z</time>
      </trkpt>
      <trkpt lat="43.71833" lon="3.44174">
        <ele>307.2</ele>
        <time>2016-12-24T13:44:32Z</time>
      </trkpt>
      <trkpt lat="43.7184" lon="3.44166">
        <ele>308.1</ele>
        <time>2016-12-24T13:44:36Z</time>
      </trkpt>
      <trkpt lat="43.71847" lon="3.4416">
        <ele>308.9</ele>
        <time>2016-12-24T13:44:40Z</time>
      </trkpt>
      <trkpt lat="43.71856" lon="3.44156">
        <ele>309.8</ele>
        <time>2016-12-24T13:44:44Z</time>
      </trkpt>
      <trkpt lat="43.71864" lon="3.44154">
        <ele>310.8</ele>
        <time>2016-12-24T13:44:48Z</time>
      </trkpt>
      <trkpt lat="43.71873" lon="3.44152">
        <ele>311.4</ele>
        <time>2016-12-24T13:44:51Z</time>
      </trkpt>
      <trkpt lat="43.7188" lon="3.44149">
        <ele>311.9</ele>
        <time>2016-12-24T13:44:55Z</time>
      </trkpt>
      <trkpt lat="43.71889" lon="3.44147">
        <ele>312.4</ele>
        <time>2016-12-24T13:44:59Z</time>
      </trkpt>
      <trkpt lat="43.71898" lon="3.44145">
        <ele>312.9</ele>
        <time>2016-12-24T13:45:04Z</time>
      </trkpt>
      <trkpt lat="43.71906" lon="3.44147">
        <ele>313.2</ele>
        <time>2016-12-24T13:45:08Z</time>
      </trkpt>
      <trkpt lat="43.71901" lon="3.44156">
        <ele>314</ele>
        <time>2016-12-24T13:45:15Z</time>
      </trkpt>
      <trkpt lat="43.71893" lon="3.4416">
        <ele>314.3</ele>
        <time>2016-12-24T13:45:19Z</time>
      </trkpt>
      <trkpt lat="43.71886" lon="3.44165">
        <ele>314.7</ele>
        <time>2016-12-24T13:45:23Z</time>
      </trkpt>
      <trkpt lat="43.71879" lon="3.4417">
        <ele>315.5</ele>
        <time>2016-12-24T13:45:27Z</time>
      </trkpt>
      <trkpt lat="43.71873" lon="3.44179">
        <ele>316.2</ele>
        <time>2016-12-24T13:45:31Z</time>
      </trkpt>
      <trkpt lat="43.71866" lon="3.44186">
        <ele>317</ele>
        <time>2016-12-24T13:45:35Z</time>
      </trkpt>
      <trkpt lat="43.7186" lon="3.44194">
        <ele>317.7</ele>
        <time>2016-12-24T13:45:39Z</time>
      </trkpt>
      <trkpt lat="43.71854" lon="3.44202">
        <ele>318.4</ele>
        <time>2016-12-24T13:45:43Z</time>
      </trkpt>
      <trkpt lat="43.71849" lon="3.44213">
        <ele>319.2</ele>
        <time>2016-12-24T13:45:47Z</time>
      </trkpt>
      <trkpt lat="43.71844" lon="3.44223">
        <ele>319.8</ele>
        <time>2016-12-24T13:45:51Z</time>
      </trkpt>
      <trkpt lat="43.71839" lon="3.44233">
        <ele>320.2</ele>
        <time>2016-12-24T13:45:55Z</time>
      </trkpt>
      <trkpt lat="43.71833" lon="3.44243">
        <ele>320.6</ele>
        <time>2016-12-24T13:45:59Z</time>
      </trkpt>
      <trkpt lat="43.71828" lon="3.44253">
        <ele>321</ele>
        <time>2016-12-24T13:46:03Z</time>
      </trkpt>
      <trkpt lat="43.71822" lon="3.44263">
        <ele>321.8</ele>
        <time>2016-12-24T13:46:07Z</time>
      </trkpt>
      <trkpt lat="43.71816" lon="3.4427">
        <ele>322.6</ele>
        <time>2016-12-24T13:46:11Z</time>
      </trkpt>
      <trkpt lat="43.71808" lon="3.44274">
        <ele>323</ele>
        <time>2016-12-24T13:46:14Z</time>
      </trkpt>
      <trkpt lat="43.71799" lon="3.44275">
        <ele>323.3</ele>
        <time>2016-12-24T13:46:18Z</time>
      </trkpt>
      <trkpt lat="43.71791" lon="3.44275">
        <ele>323.5</ele>
        <time>2016-12-24T13:46:21Z</time>
      </trkpt>
      <trkpt lat="43.71782" lon="3.44274">
        <ele>324</ele>
        <time>2016-12-24T13:46:25Z</time>
      </trkpt>
      <trkpt lat="43.71773" lon="3.44272">
        <ele>324.3</ele>
        <time>2016-12-24T13:46:28Z</time>
      </trkpt>
      <trkpt lat="43.71765" lon="3.44271">
        <ele>324.7</ele>
        <time>2016-12-24T13:46:31Z</time>
      </trkpt>
      <trkpt lat="43.71756" lon="3.44273">
        <ele>325</ele>
        <time>2016-12-24T13:46:35Z</time>
      </trkpt>
      <trkpt lat="43.71748" lon="3.44278">
        <ele>325.3</ele>
        <time>2016-12-24T13:46:39Z</time>
      </trkpt>
      <trkpt lat="43.71742" lon="3.44286">
        <ele>325.6</ele>
        <time>2016-12-24T13:46:43Z</time>
      </trkpt>
      <trkpt lat="43.71737" lon="3.44296">
        <ele>326</ele>
        <time>2016-12-24T13:46:47Z</time>
      </trkpt>
      <trkpt lat="43.71733" lon="3.44306">
        <ele>326.4</ele>
        <time>2016-12-24T13:46:50Z</time>
      </trkpt>
      <trkpt lat="43.7173" lon="3.44315">
        <ele>326.8</ele>
        <time>2016-12-24T13:46:53Z</time>
      </trkpt>
      <trkpt lat="43.71726" lon="3.44324">
        <ele>327.1</ele>
        <time>2016-12-24T13:46:56Z</time>
      </trkpt>
      <trkpt lat="43.71722" lon="3.44334">
        <ele>327.4</ele>
        <time>2016-12-24T13:47:00Z</time>
      </trkpt>
      <trkpt lat="43.71718" lon="3.44343">
        <ele>327.6</ele>
        <time>2016-12-24T13:47:03Z</time>
      </trkpt>
      <trkpt lat="43.71714" lon="3.44351">
        <ele>327.9</ele>
        <time>2016-12-24T13:47:06Z</time>
      </trkpt>
      <trkpt lat="43.71711" lon="3.44364">
        <ele>328.3</ele>
        <time>2016-12-24T13:47:10Z</time>
      </trkpt>
      <trkpt lat="43.71709" lon="3.44375">
        <ele>328.4</ele>
        <time>2016-12-24T13:47:14Z</time>
      </trkpt>
      <trkpt lat="43.71706" lon="3.44385">
        <ele>328.5</ele>
        <time>2016-12-24T13:47:17Z</time>
      </trkpt>
      <trkpt lat="43.71703" lon="3.44393">
        <ele>328.8</ele>
        <time>2016-12-24T13:47:20Z</time>
      </trkpt>
      <trkpt lat="43.71696" lon="3.44403">
        <ele>329.2</ele>
        <time>2016-12-24T13:47:24Z</time>
      </trkpt>
      <trkpt lat="43.71691" lon="3.44409">
        <ele>329.7</ele>
        <time>2016-12-24T13:47:28Z</time>
      </trkpt>
      <trkpt lat="43.71686" lon="3.44417">
        <ele>330.2</ele>
        <time>2016-12-24T13:47:32Z</time>
      </trkpt>
      <trkpt lat="43.71692" lon="3.44425">
        <ele>331.3</ele>
        <time>2016-12-24T13:47:38Z</time>
      </trkpt>
      <trkpt lat="43.71699" lon="3.4442">
        <ele>331.9</ele>
        <time>2016-12-24T13:47:42Z</time>
      </trkpt>
      <trkpt lat="43.71707" lon="3.44414">
        <ele>332.5</ele>
        <time>2016-12-24T13:47:46Z</time>
      </trkpt>
      <trkpt lat="43.71713" lon="3.44409">
        <ele>333</ele>
        <time>2016-12-24T13:47:50Z</time>
      </trkpt>
      <trkpt lat="43.71719" lon="3.44402">
        <ele>333.6</ele>
        <time>2016-12-24T13:47:54Z</time>
      </trkpt>
      <trkpt lat="43.71726" lon="3.44395">
        <ele>334.2</ele>
        <time>2016-12-24T13:47:58Z</time>
      </trkpt>
      <trkpt lat="43.71734" lon="3.44389">
        <ele>335.1</ele>
        <time>2016-12-24T13:48:02Z</time>
      </trkpt>
      <trkpt lat="43.71741" lon="3.44386">
        <ele>336</ele>
        <time>2016-12-24T13:48:06Z</time>
      </trkpt>
      <trkpt lat="43.7175" lon="3.44384">
        <ele>336.8</ele>
        <time>2016-12-24T13:48:10Z</time>
      </trkpt>
      <trkpt lat="43.71757" lon="3.44381">
        <ele>337.2</ele>
        <time>2016-12-24T13:48:13Z</time>
      </trkpt>
      <trkpt lat="43.71764" lon="3.44375">
        <ele>337.7</ele>
        <time>2016-12-24T13:48:17Z</time>
      </trkpt>
      <trkpt lat="43.71773" lon="3.44371">
        <ele>338.4</ele>
        <time>2016-12-24T13:48:21Z</time>
      </trkpt>
      <trkpt lat="43.7178" lon="3.44368">
        <ele>339</ele>
        <time>2016-12-24T13:48:24Z</time>
      </trkpt>
      <trkpt lat="43.71788" lon="3.44366">
        <ele>339.8</ele>
        <time>2016-12-24T13:48:28Z</time>
      </trkpt>
      <trkpt lat="43.71797" lon="3.44362">
        <ele>340.4</ele>
        <time>2016-12-24T13:48:32Z</time>
      </trkpt>
      <trkpt lat="43.71804" lon="3.44357">
        <ele>341</ele>
        <time>2016-12-24T13:48:36Z</time>
      </trkpt>
      <trkpt lat="43.71814" lon="3.44356">
        <ele>341.8</ele>
        <time>2016-12-24T13:48:40Z</time>
      </trkpt>
      <trkpt lat="43.71823" lon="3.44355">
        <ele>342.5</ele>
        <time>2016-12-24T13:48:44Z</time>
      </trkpt>
      <trkpt lat="43.7183" lon="3.44355">
        <ele>343.1</ele>
        <time>2016-12-24T13:48:47Z</time>
      </trkpt>
      <trkpt lat="43.71838" lon="3.44352">
        <ele>343.7</ele>
        <time>2016-12-24T13:48:51Z</time>
      </trkpt>
      <trkpt lat="43.71846" lon="3.44346">
        <ele>344.5</ele>
        <time>2016-12-24T13:48:55Z</time>
      </trkpt>
      <trkpt lat="43.71852" lon="3.44341">
        <ele>345.1</ele>
        <time>2016-12-24T13:48:59Z</time>
      </trkpt>
      <trkpt lat="43.71859" lon="3.44334">
        <ele>345.7</ele>
        <time>2016-12-24T13:49:03Z</time>
      </trkpt>
      <trkpt lat="43.71867" lon="3.44328">
        <ele>346.6</ele>
        <time>2016-12-24T13:49:07Z</time>
      </trkpt>
      <trkpt lat="43.71876" lon="3.44324">
        <ele>347</ele>
        <time>2016-12-24T13:49:11Z</time>
      </trkpt>
      <trkpt lat="43.71884" lon="3.44322">
        <ele>347.7</ele>
        <time>2016-12-24T13:49:15Z</time>
      </trkpt>
      <trkpt lat="43.71891" lon="3.44321">
        <ele>348.6</ele>
        <time>2016-12-24T13:49:19Z</time>
      </trkpt>
      <trkpt lat="43.719" lon="3.4432">
        <ele>349.2</ele>
        <time>2016-12-24T13:49:23Z</time>
      </trkpt>
      <trkpt lat="43.71908" lon="3.4432">
        <ele>349.6</ele>
        <time>2016-12-24T13:49:26Z</time>
      </trkpt>
      <trkpt lat="43.71917" lon="3.44319">
        <ele>350.2</ele>
        <time>2016-12-24T13:49:31Z</time>
      </trkpt>
      <trkpt lat="43.71924" lon="3.44318">
        <ele>350.7</ele>
        <time>2016-12-24T13:49:34Z</time>
      </trkpt>
      <trkpt lat="43.71934" lon="3.44318">
        <ele>351.4</ele>
        <time>2016-12-24T13:49:38Z</time>
      </trkpt>
      <trkpt lat="43.71942" lon="3.44317">
        <ele>352</ele>
        <time>2016-12-24T13:49:42Z</time>
      </trkpt>
      <trkpt lat="43.71951" lon="3.44318">
        <ele>352.6</ele>
        <time>2016-12-24T13:49:46Z</time>
      </trkpt>
      <trkpt lat="43.71959" lon="3.44321">
        <ele>353.2</ele>
        <time>2016-12-24T13:49:50Z</time>
      </trkpt>
      <trkpt lat="43.71968" lon="3.44325">
        <ele>353.9</ele>
        <time>2016-12-24T13:49:54Z</time>
      </trkpt>
      <trkpt lat="43.71976" lon="3.4433">
        <ele>354.3</ele>
        <time>2016-12-24T13:49:58Z</time>
      </trkpt>
      <trkpt lat="43.71984" lon="3.44334">
        <ele>354.7</ele>
        <time>2016-12-24T13:50:02Z</time>
      </trkpt>
      <trkpt lat="43.71994" lon="3.44335">
        <ele>355</ele>
        <time>2016-12-24T13:50:06Z</time>
      </trkpt>
      <trkpt lat="43.72002" lon="3.4433">
        <ele>355.7</ele>
        <time>2016-12-24T13:50:10Z</time>
      </trkpt>
      <trkpt lat="43.72009" lon="3.44323">
        <ele>356.8</ele>
        <time>2016-12-24T13:50:15Z</time>
      </trkpt>
      <trkpt lat="43.72016" lon="3.44317">
        <ele>357.8</ele>
        <time>2016-12-24T13:50:19Z</time>
      </trkpt>
      <trkpt lat="43.72023" lon="3.44311">
        <ele>358.6</ele>
        <time>2016-12-24T13:50:23Z</time>
      </trkpt>
      <trkpt lat="43.72032" lon="3.44306">
        <ele>359.3</ele>
        <time>2016-12-24T13:50:27Z</time>
      </trkpt>
      <trkpt lat="43.72041" lon="3.44304">
        <ele>360</ele>
        <time>2016-12-24T13:50:31Z</time>
      </trkpt>
      <trkpt lat="43.72048" lon="3.44302">
        <ele>360.4</ele>
        <time>2016-12-24T13:50:34Z</time>
      </trkpt>
      <trkpt lat="43.72056" lon="3.44298">
        <ele>360.9</ele>
        <time>2016-12-24T13:50:38Z</time>
      </trkpt>
      <trkpt lat="43.72064" lon="3.44293">
        <ele>361.5</ele>
        <time>2016-12-24T13:50:42Z</time>
      </trkpt>
      <trkpt lat="43.72072" lon="3.44287">
        <ele>362.1</ele>
        <time>2016-12-24T13:50:46Z</time>
      </trkpt>
      <trkpt lat="43.72079" lon="3.44282">
        <ele>362.9</ele>
        <time>2016-12-24T13:50:50Z</time>
      </trkpt>
      <trkpt lat="43.72087" lon="3.44275">
        <ele>363.7</ele>
        <time>2016-12-24T13:50:54Z</time>
      </trkpt>
      <trkpt lat="43.72094" lon="3.44268">
        <ele>364.3</ele>
        <time>2016-12-24T13:50:58Z</time>
      </trkpt>
      <trkpt lat="43.72102" lon="3.44261">
        <ele>364.8</ele>
        <time>2016-12-24T13:51:02Z</time>
      </trkpt>
      <trkpt lat="43.72108" lon="3.44252">
        <ele>365.3</ele>
        <time>2016-12-24T13:51:07Z</time>
      </trkpt>
      <trkpt lat="43.72114" lon="3.44245">
        <ele>365.7</ele>
        <time>2016-12-24T13:51:11Z</time>
      </trkpt>
      <trkpt lat="43.7212" lon="3.44237">
        <ele>366.3</ele>
        <time>2016-12-24T13:51:16Z</time>
      </trkpt>
      <trkpt lat="43.72127" lon="3.44229">
        <ele>366.9</ele>
        <time>2016-12-24T13:51:21Z</time>
      </trkpt>
      <trkpt lat="43.72132" lon="3.44222">
        <ele>367.2</ele>
        <time>2016-12-24T13:51:24Z</time>
      </trkpt>
      <trkpt lat="43.72137" lon="3.44214">
        <ele>367.6</ele>
        <time>2016-12-24T13:51:27Z</time>
      </trkpt>
      <trkpt lat="43.72143" lon="3.44206">
        <ele>368</ele>
        <time>2016-12-24T13:51:31Z</time>
      </trkpt>
      <trkpt lat="43.72151" lon="3.44197">
        <ele>368.5</ele>
        <time>2016-12-24T13:51:35Z</time>
      </trkpt>
      <trkpt lat="43.72158" lon="3.44192">
        <ele>369.2</ele>
        <time>2016-12-24T13:51:38Z</time>
      </trkpt>
      <trkpt lat="43.72165" lon="3.44188">
        <ele>369.8</ele>
        <time>2016-12-24T13:51:41Z</time>
      </trkpt>
      <trkpt lat="43.72173" lon="3.44182">
        <ele>370.5</ele>
        <time>2016-12-24T13:51:45Z</time>
      </trkpt>
      <trkpt lat="43.72181" lon="3.44178">
        <ele>371.4</ele>
        <time>2016-12-24T13:51:49Z</time>
      </trkpt>
      <trkpt lat="43.72189" lon="3.44174">
        <ele>372.3</ele>
        <time>2016-12-24T13:51:53Z</time>
      </trkpt>
      <trkpt lat="43.72194" lon="3.44172">
        <ele>373.3</ele>
        <time>2016-12-24T13:52:00Z</time>
      </trkpt>
      <trkpt lat="43.722" lon="3.44181">
        <ele>375</ele>
        <time>2016-12-24T13:52:36Z</time>
      </trkpt>
      <trkpt lat="43.72195" lon="3.44189">
        <ele>374.7</ele>
        <time>2016-12-24T13:52:43Z</time>
      </trkpt>
      <trkpt lat="43.72193" lon="3.44189">
        <ele>374.5</ele>
        <time>2016-12-24T13:52:50Z</time>
      </trkpt>
      <trkpt lat="43.72207" lon="3.44162">
        <ele>378.1</ele>
        <time>2016-12-24T13:54:10Z</time>
      </trkpt>
      <trkpt lat="43.72215" lon="3.44164">
        <ele>378.9</ele>
        <time>2016-12-24T13:54:15Z</time>
      </trkpt>
      <trkpt lat="43.72216" lon="3.44175">
        <ele>379.7</ele>
        <time>2016-12-24T13:54:22Z</time>
      </trkpt>
      <trkpt lat="43.72212" lon="3.44184">
        <ele>380.5</ele>
        <time>2016-12-24T13:54:27Z</time>
      </trkpt>
      <trkpt lat="43.72208" lon="3.44193">
        <ele>381.5</ele>
        <time>2016-12-24T13:54:33Z</time>
      </trkpt>
      <trkpt lat="43.72203" lon="3.44202">
        <ele>382</ele>
        <time>2016-12-24T13:54:37Z</time>
      </trkpt>
      <trkpt lat="43.72197" lon="3.4421">
        <ele>383.2</ele>
        <time>2016-12-24T13:54:42Z</time>
      </trkpt>
      <trkpt lat="43.7219" lon="3.44217">
        <ele>384.3</ele>
        <time>2016-12-24T13:54:47Z</time>
      </trkpt>
      <trkpt lat="43.72185" lon="3.44223">
        <ele>385.8</ele>
        <time>2016-12-24T13:54:52Z</time>
      </trkpt>
      <trkpt lat="43.72178" lon="3.44232">
        <ele>386.8</ele>
        <time>2016-12-24T13:54:57Z</time>
      </trkpt>
      <trkpt lat="43.72172" lon="3.44239">
        <ele>387.3</ele>
        <time>2016-12-24T13:55:00Z</time>
      </trkpt>
      <trkpt lat="43.72168" lon="3.44248">
        <ele>387.8</ele>
        <time>2016-12-24T13:55:03Z</time>
      </trkpt>
      <trkpt lat="43.72164" lon="3.44258">
        <ele>388.5</ele>
        <time>2016-12-24T13:55:08Z</time>
      </trkpt>
      <trkpt lat="43.7216" lon="3.44269">
        <ele>388.9</ele>
        <time>2016-12-24T13:55:13Z</time>
      </trkpt>
      <trkpt lat="43.72156" lon="3.44277">
        <ele>389.2</ele>
        <time>2016-12-24T13:55:17Z</time>
      </trkpt>
      <trkpt lat="43.7215" lon="3.44286">
        <ele>390.2</ele>
        <time>2016-12-24T13:55:22Z</time>
      </trkpt>
      <trkpt lat="43.72146" lon="3.44296">
        <ele>391.2</ele>
        <time>2016-12-24T13:55:26Z</time>
      </trkpt>
      <trkpt lat="43.72142" lon="3.44305">
        <ele>391.9</ele>
        <time>2016-12-24T13:55:30Z</time>
      </trkpt>
      <trkpt lat="43.72138" lon="3.44316">
        <ele>392.4</ele>
        <time>2016-12-24T13:55:34Z</time>
      </trkpt>
      <trkpt lat="43.72135" lon="3.44325">
        <ele>393</ele>
        <time>2016-12-24T13:55:38Z</time>
      </trkpt>
      <trkpt lat="43.72131" lon="3.44336">
        <ele>393.8</ele>
        <time>2016-12-24T13:55:43Z</time>
      </trkpt>
      <trkpt lat="43.72127" lon="3.44345">
        <ele>394.7</ele>
        <time>2016-12-24T13:55:47Z</time>
      </trkpt>
      <trkpt lat="43.72123" lon="3.44354">
        <ele>395.8</ele>
        <time>2016-12-24T13:55:52Z</time>
      </trkpt>
      <trkpt lat="43.72117" lon="3.44365">
        <ele>397.1</ele>
        <time>2016-12-24T13:55:57Z</time>
      </trkpt>
      <trkpt lat="43.72113" lon="3.44373">
        <ele>398</ele>
        <time>2016-12-24T13:56:01Z</time>
      </trkpt>
      <trkpt lat="43.72108" lon="3.44382">
        <ele>398.8</ele>
        <time>2016-12-24T13:56:05Z</time>
      </trkpt>
      <trkpt lat="43.72103" lon="3.4439">
        <ele>399.6</ele>
        <time>2016-12-24T13:56:09Z</time>
      </trkpt>
      <trkpt lat="43.72097" lon="3.44399">
        <ele>400.9</ele>
        <time>2016-12-24T13:56:13Z</time>
      </trkpt>
      <trkpt lat="43.72093" lon="3.44409">
        <ele>402.2</ele>
        <time>2016-12-24T13:56:17Z</time>
      </trkpt>
      <trkpt lat="43.72088" lon="3.44419">
        <ele>402.8</ele>
        <time>2016-12-24T13:56:21Z</time>
      </trkpt>
      <trkpt lat="43.72082" lon="3.44428">
        <ele>403.2</ele>
        <time>2016-12-24T13:56:25Z</time>
      </trkpt>
      <trkpt lat="43.72075" lon="3.44436">
        <ele>403.7</ele>
        <time>2016-12-24T13:56:29Z</time>
      </trkpt>
      <trkpt lat="43.72069" lon="3.44443">
        <ele>404.3</ele>
        <time>2016-12-24T13:56:33Z</time>
      </trkpt>
      <trkpt lat="43.72062" lon="3.4445">
        <ele>405</ele>
        <time>2016-12-24T13:56:37Z</time>
      </trkpt>
      <trkpt lat="43.72055" lon="3.44457">
        <ele>405.8</ele>
        <time>2016-12-24T13:56:41Z</time>
      </trkpt>
      <trkpt lat="43.72047" lon="3.44463">
        <ele>406.6</ele>
        <time>2016-12-24T13:56:45Z</time>
      </trkpt>
      <trkpt lat="43.72039" lon="3.44468">
        <ele>407.1</ele>
        <time>2016-12-24T13:56:49Z</time>
      </trkpt>
      <trkpt lat="43.72032" lon="3.44474">
        <ele>407.3</ele>
        <time>2016-12-24T13:56:53Z</time>
      </trkpt>
      <trkpt lat="43.72024" lon="3.4448">
        <ele>407.7</ele>
        <time>2016-12-24T13:56:57Z</time>
      </trkpt>
      <trkpt lat="43.72017" lon="3.44483">
        <ele>408</ele>
        <time>2016-12-24T13:57:00Z</time>
      </trkpt>
      <trkpt lat="43.72008" lon="3.44487">
        <ele>408.2</ele>
        <time>2016-12-24T13:57:04Z</time>
      </trkpt>
      <trkpt lat="43.72" lon="3.44486">
        <ele>408</ele>
        <time>2016-12-24T13:57:08Z</time>
      </trkpt>
      <trkpt lat="43.71992" lon="3.44483">
        <ele>407.9</ele>
        <time>2016-12-24T13:57:12Z</time>
      </trkpt>
      <trkpt lat="43.71985" lon="3.44478">
        <ele>408</ele>
        <time>2016-12-24T13:57:16Z</time>
      </trkpt>
      <trkpt lat="43.71978" lon="3.44473">
        <ele>408.3</ele>
        <time>2016-12-24T13:57:19Z</time>
      </trkpt>
      <trkpt lat="43.71968" lon="3.44467">
        <ele>408.7</ele>
        <time>2016-12-24T13:57:23Z</time>
      </trkpt>
      <trkpt lat="43.71961" lon="3.44464">
        <ele>409</ele>
        <time>2016-12-24T13:57:26Z</time>
      </trkpt>
      <trkpt lat="43.71954" lon="3.44462">
        <ele>409.3</ele>
        <time>2016-12-24T13:57:29Z</time>
      </trkpt>
      <trkpt lat="43.71945" lon="3.44461">
        <ele>409.5</ele>
        <time>2016-12-24T13:57:33Z</time>
      </trkpt>
      <trkpt lat="43.71938" lon="3.44465">
        <ele>409.8</ele>
        <time>2016-12-24T13:57:36Z</time>
      </trkpt>
      <trkpt lat="43.71932" lon="3.44471">
        <ele>410</ele>
        <time>2016-12-24T13:57:39Z</time>
      </trkpt>
      <trkpt lat="43.71926" lon="3.44479">
        <ele>410.4</ele>
        <time>2016-12-24T13:57:43Z</time>
      </trkpt>
      <trkpt lat="43.7192" lon="3.44486">
        <ele>411.2</ele>
        <time>2016-12-24T13:57:47Z</time>
      </trkpt>
      <trkpt lat="43.71912" lon="3.44493">
        <ele>411.8</ele>
        <time>2016-12-24T13:57:51Z</time>
      </trkpt>
      <trkpt lat="43.71904" lon="3.44498">
        <ele>412.2</ele>
        <time>2016-12-24T13:57:55Z</time>
      </trkpt>
      <trkpt lat="43.71895" lon="3.44501">
        <ele>412.4</ele>
        <time>2016-12-24T13:57:59Z</time>
      </trkpt>
      <trkpt lat="43.71887" lon="3.44503">
        <ele>412.5</ele>
        <time>2016-12-24T13:58:02Z</time>
      </trkpt>
      <trkpt lat="43.71878" lon="3.44507">
        <ele>412.8</ele>
        <time>2016-12-24T13:58:06Z</time>
      </trkpt>
      <trkpt lat="43.7187" lon="3.44512">
        <ele>413.1</ele>
        <time>2016-12-24T13:58:10Z</time>
      </trkpt>
      <trkpt lat="43.71863" lon="3.4452">
        <ele>413.6</ele>
        <time>2016-12-24T13:58:14Z</time>
      </trkpt>
      <trkpt lat="43.71857" lon="3.44527">
        <ele>414.1</ele>
        <time>2016-12-24T13:58:17Z</time>
      </trkpt>
      <trkpt lat="43.71852" lon="3.44536">
        <ele>414.5</ele>
        <time>2016-12-24T13:58:20Z</time>
      </trkpt>
      <trkpt lat="43.71847" lon="3.44545">
        <ele>415.5</ele>
        <time>2016-12-24T13:58:24Z</time>
      </trkpt>
      <trkpt lat="43.71843" lon="3.44553">
        <ele>416.1</ele>
        <time>2016-12-24T13:58:27Z</time>
      </trkpt>
      <trkpt lat="43.71839" lon="3.44562">
        <ele>416.5</ele>
        <time>2016-12-24T13:58:30Z</time>
      </trkpt>
      <trkpt lat="43.71834" lon="3.44572">
        <ele>416.9</ele>
        <time>2016-12-24T13:58:34Z</time>
      </trkpt>
      <trkpt lat="43.7183" lon="3.44582">
        <ele>417.2</ele>
        <time>2016-12-24T13:58:38Z</time>
      </trkpt>
      <trkpt lat="43.71828" lon="3.44592">
        <ele>417.5</ele>
        <time>2016-12-24T13:58:42Z</time>
      </trkpt>
      <trkpt lat="43.71835" lon="3.44595">
        <ele>417.6</ele>
        <time>2016-12-24T13:58:48Z</time>
      </trkpt>
      <trkpt lat="43.71839" lon="3.44586">
        <ele>417.6</ele>
        <time>2016-12-24T13:58:52Z</time>
      </trkpt>
      <trkpt lat="43.71844" lon="3.44576">
        <ele>417.6</ele>
        <time>2016-12-24T13:58:56Z</time>
      </trkpt>
      <trkpt lat="43.7185" lon="3.44568">
        <ele>417.6</ele>
        <time>2016-12-24T13:59:00Z</time>
      </trkpt>
      <trkpt lat="43.71857" lon="3.44561">
        <ele>417.7</ele>
        <time>2016-12-24T13:59:04Z</time>
      </trkpt>
      <trkpt lat="43.71864" lon="3.44556">
        <ele>418</ele>
        <time>2016-12-24T13:59:07Z</time>
      </trkpt>
      <trkpt lat="43.71871" lon="3.44551">
        <ele>418</ele>
        <time>2016-12-24T13:59:11Z</time>
      </trkpt>
      <trkpt lat="43.71878" lon="3.44547">
        <ele>418.1</ele>
        <time>2016-12-24T13:59:14Z</time>
      </trkpt>
      <trkpt lat="43.71885" lon="3.44543">
        <ele>418.3</ele>
        <time>2016-12-24T13:59:17Z</time>
      </trkpt>
      <trkpt lat="43.71893" lon="3.44539">
        <ele>418.7</ele>
        <time>2016-12-24T13:59:21Z</time>
      </trkpt>
      <trkpt lat="43.71902" lon="3.44535">
        <ele>419.1</ele>
        <time>2016-12-24T13:59:25Z</time>
      </trkpt>
      <trkpt lat="43.7191" lon="3.44532">
        <ele>419.3</ele>
        <time>2016-12-24T13:59:28Z</time>
      </trkpt>
      <trkpt lat="43.71919" lon="3.44532">
        <ele>419.7</ele>
        <time>2016-12-24T13:59:32Z</time>
      </trkpt>
      <trkpt lat="43.71928" lon="3.44533">
        <ele>420.1</ele>
        <time>2016-12-24T13:59:36Z</time>
      </trkpt>
      <trkpt lat="43.71937" lon="3.44533">
        <ele>420.8</ele>
        <time>2016-12-24T13:59:40Z</time>
      </trkpt>
      <trkpt lat="43.71947" lon="3.44536">
        <ele>421.4</ele>
        <time>2016-12-24T13:59:44Z</time>
      </trkpt>
      <trkpt lat="43.71955" lon="3.44541">
        <ele>422</ele>
        <time>2016-12-24T13:59:48Z</time>
      </trkpt>
      <trkpt lat="43.71964" lon="3.44547">
        <ele>422.6</ele>
        <time>2016-12-24T13:59:52Z</time>
      </trkpt>
      <trkpt lat="43.71972" lon="3.44551">
        <ele>423.2</ele>
        <time>2016-12-24T13:59:56Z</time>
      </trkpt>
      <trkpt lat="43.71979" lon="3.44555">
        <ele>423.6</ele>
        <time>2016-12-24T13:59:59Z</time>
      </trkpt>
      <trkpt lat="43.71986" lon="3.44558">
        <ele>423.9</ele>
        <time>2016-12-24T14:00:02Z</time>
      </trkpt>
      <trkpt lat="43.71994" lon="3.44561">
        <ele>424.3</ele>
        <time>2016-12-24T14:00:05Z</time>
      </trkpt>
      <trkpt lat="43.72003" lon="3.44565">
        <ele>424.7</ele>
        <time>2016-12-24T14:00:09Z</time>
      </trkpt>
      <trkpt lat="43.72011" lon="3.44567">
        <ele>424.9</ele>
        <time>2016-12-24T14:00:12Z</time>
      </trkpt>
      <trkpt lat="43.72018" lon="3.44568">
        <ele>425.2</ele>
        <time>2016-12-24T14:00:15Z</time>
      </trkpt>
      <trkpt lat="43.72025" lon="3.4457">
        <ele>425.7</ele>
        <time>2016-12-24T14:00:19Z</time>
      </trkpt>
      <trkpt lat="43.72034" lon="3.44569">
        <ele>426.5</ele>
        <time>2016-12-24T14:00:23Z</time>
      </trkpt>
      <trkpt lat="43.72041" lon="3.44566">
        <ele>427.1</ele>
        <time>2016-12-24T14:00:26Z</time>
      </trkpt>
      <trkpt lat="43.72049" lon="3.44563">
        <ele>428</ele>
        <time>2016-12-24T14:00:30Z</time>
      </trkpt>
      <trkpt lat="43.72059" lon="3.44563">
        <ele>428.7</ele>
        <time>2016-12-24T14:00:34Z</time>
      </trkpt>
      <trkpt lat="43.72066" lon="3.44562">
        <ele>429.1</ele>
        <time>2016-12-24T14:00:37Z</time>
      </trkpt>
      <trkpt lat="43.72075" lon="3.44557">
        <ele>429.9</ele>
        <time>2016-12-24T14:00:42Z</time>
      </trkpt>
      <trkpt lat="43.72083" lon="3.44551">
        <ele>430.8</ele>
        <time>2016-12-24T14:00:46Z</time>
      </trkpt>
      <trkpt lat="43.72091" lon="3.44547">
        <ele>431.5</ele>
        <time>2016-12-24T14:00:51Z</time>
      </trkpt>
      <trkpt lat="43.72098" lon="3.44542">
        <ele>431.7</ele>
        <time>2016-12-24T14:00:55Z</time>
      </trkpt>
      <trkpt lat="43.72106" lon="3.44534">
        <ele>432.1</ele>
        <time>2016-12-24T14:00:59Z</time>
      </trkpt>
      <trkpt lat="43.72113" lon="3.44526">
        <ele>433</ele>
        <time>2016-12-24T14:01:04Z</time>
      </trkpt>
      <trkpt lat="43.72121" lon="3.44521">
        <ele>433.5</ele>
        <time>2016-12-24T14:01:07Z</time>
      </trkpt>
      <trkpt lat="43.72128" lon="3.44513">
        <ele>433.8</ele>
        <time>2016-12-24T14:01:10Z</time>
      </trkpt>
      <trkpt lat="43.72134" lon="3.44506">
        <ele>433.7</ele>
        <time>2016-12-24T14:01:13Z</time>
      </trkpt>
      <trkpt lat="43.72139" lon="3.44498">
        <ele>432.9</ele>
        <time>2016-12-24T14:01:16Z</time>
      </trkpt>
      <trkpt lat="43.72144" lon="3.44489">
        <ele>432</ele>
        <time>2016-12-24T14:01:19Z</time>
      </trkpt>
      <trkpt lat="43.72149" lon="3.44481">
        <ele>431.1</ele>
        <time>2016-12-24T14:01:22Z</time>
      </trkpt>
      <trkpt lat="43.72154" lon="3.44472">
        <ele>430.3</ele>
        <time>2016-12-24T14:01:25Z</time>
      </trkpt>
      <trkpt lat="43.72158" lon="3.44459">
        <ele>430</ele>
        <time>2016-12-24T14:01:28Z</time>
      </trkpt>
      <trkpt lat="43.72162" lon="3.44445">
        <ele>429.6</ele>
        <time>2016-12-24T14:01:31Z</time>
      </trkpt>
      <trkpt lat="43.72164" lon="3.44431">
        <ele>429.9</ele>
        <time>2016-12-24T14:01:33Z</time>
      </trkpt>
      <trkpt lat="43.72165" lon="3.44419">
        <ele>429.8</ele>
        <time>2016-12-24T14:01:35Z</time>
      </trkpt>
      <trkpt lat="43.72169" lon="3.44406">
        <ele>430.2</ele>
        <time>2016-12-24T14:01:37Z</time>
      </trkpt>
      <trkpt lat="43.72174" lon="3.44395">
        <ele>432.3</ele>
        <time>2016-12-24T14:01:39Z</time>
      </trkpt>
      <trkpt lat="43.72181" lon="3.44386">
        <ele>432.9</ele>
        <time>2016-12-24T14:01:41Z</time>
      </trkpt>
      <trkpt lat="43.72189" lon="3.44378">
        <ele>433.3</ele>
        <time>2016-12-24T14:01:43Z</time>
      </trkpt>
      <trkpt lat="43.72197" lon="3.44372">
        <ele>433.2</ele>
        <time>2016-12-24T14:01:45Z</time>
      </trkpt>
      <trkpt lat="43.72205" lon="3.44368">
        <ele>432.9</ele>
        <time>2016-12-24T14:01:47Z</time>
      </trkpt>
      <trkpt lat="43.72215" lon="3.44367">
        <ele>433.1</ele>
        <time>2016-12-24T14:01:50Z</time>
      </trkpt>
      <trkpt lat="43.72225" lon="3.44364">
        <ele>433.3</ele>
        <time>2016-12-24T14:01:53Z</time>
      </trkpt>
      <trkpt lat="43.72231" lon="3.4436">
        <ele>433.2</ele>
        <time>2016-12-24T14:01:55Z</time>
      </trkpt>
      <trkpt lat="43.7224" lon="3.44355">
        <ele>432</ele>
        <time>2016-12-24T14:01:57Z</time>
      </trkpt>
      <trkpt lat="43.72247" lon="3.4435">
        <ele>432</ele>
        <time>2016-12-24T14:01:59Z</time>
      </trkpt>
      <trkpt lat="43.72257" lon="3.44344">
        <ele>432</ele>
        <time>2016-12-24T14:02:02Z</time>
      </trkpt>
      <trkpt lat="43.72265" lon="3.44339">
        <ele>432</ele>
        <time>2016-12-24T14:02:04Z</time>
      </trkpt>
      <trkpt lat="43.72273" lon="3.44333">
        <ele>431.9</ele>
        <time>2016-12-24T14:02:07Z</time>
      </trkpt>
      <trkpt lat="43.72282" lon="3.44328">
        <ele>432</ele>
        <time>2016-12-24T14:02:10Z</time>
      </trkpt>
      <trkpt lat="43.72289" lon="3.4432">
        <ele>432</ele>
        <time>2016-12-24T14:02:13Z</time>
      </trkpt>
      <trkpt lat="43.72295" lon="3.44312">
        <ele>432.1</ele>
        <time>2016-12-24T14:02:16Z</time>
      </trkpt>
      <trkpt lat="43.72302" lon="3.44302">
        <ele>432.2</ele>
        <time>2016-12-24T14:02:20Z</time>
      </trkpt>
      <trkpt lat="43.72309" lon="3.44292">
        <ele>432.1</ele>
        <time>2016-12-24T14:02:23Z</time>
      </trkpt>
      <trkpt lat="43.72313" lon="3.44285">
        <ele>432.2</ele>
        <time>2016-12-24T14:02:25Z</time>
      </trkpt>
      <trkpt lat="43.72317" lon="3.44274">
        <ele>432.3</ele>
        <time>2016-12-24T14:02:28Z</time>
      </trkpt>
      <trkpt lat="43.72323" lon="3.44265">
        <ele>432.1</ele>
        <time>2016-12-24T14:02:31Z</time>
      </trkpt>
      <trkpt lat="43.7233" lon="3.44261">
        <ele>432</ele>
        <time>2016-12-24T14:02:34Z</time>
      </trkpt>
      <trkpt lat="43.72339" lon="3.44256">
        <ele>431.9</ele>
        <time>2016-12-24T14:02:37Z</time>
      </trkpt>
      <trkpt lat="43.72347" lon="3.44257">
        <ele>432</ele>
        <time>2016-12-24T14:02:40Z</time>
      </trkpt>
      <trkpt lat="43.72355" lon="3.4426">
        <ele>432</ele>
        <time>2016-12-24T14:02:44Z</time>
      </trkpt>
      <trkpt lat="43.72362" lon="3.44265">
        <ele>432.4</ele>
        <time>2016-12-24T14:02:50Z</time>
      </trkpt>
      <trkpt lat="43.72369" lon="3.44269">
        <ele>432.7</ele>
        <time>2016-12-24T14:02:57Z</time>
      </trkpt>
      <trkpt lat="43.72372" lon="3.44271">
        <ele>432.9</ele>
        <time>2016-12-24T14:03:04Z</time>
      </trkpt>
      <trkpt lat="43.7237" lon="3.44267">
        <ele>433.9</ele>
        <time>2016-12-24T14:03:26Z</time>
      </trkpt>
      <trkpt lat="43.72373" lon="3.44281">
        <ele>432.4</ele>
        <time>2016-12-24T14:03:55Z</time>
      </trkpt>
      <trkpt lat="43.72382" lon="3.44287">
        <ele>432.4</ele>
        <time>2016-12-24T14:03:58Z</time>
      </trkpt>
      <trkpt lat="43.72389" lon="3.44294">
        <ele>432.5</ele>
        <time>2016-12-24T14:04:00Z</time>
      </trkpt>
      <trkpt lat="43.72397" lon="3.44299">
        <ele>432.7</ele>
        <time>2016-12-24T14:04:02Z</time>
      </trkpt>
      <trkpt lat="43.72404" lon="3.44305">
        <ele>432.9</ele>
        <time>2016-12-24T14:04:04Z</time>
      </trkpt>
      <trkpt lat="43.72413" lon="3.44313">
        <ele>431.9</ele>
        <time>2016-12-24T14:04:06Z</time>
      </trkpt>
      <trkpt lat="43.72421" lon="3.44322">
        <ele>431.2</ele>
        <time>2016-12-24T14:04:08Z</time>
      </trkpt>
      <trkpt lat="43.7243" lon="3.44332">
        <ele>430.9</ele>
        <time>2016-12-24T14:04:10Z</time>
      </trkpt>
      <trkpt lat="43.72438" lon="3.44344">
        <ele>430.1</ele>
        <time>2016-12-24T14:04:12Z</time>
      </trkpt>
      <trkpt lat="43.72445" lon="3.44355">
        <ele>430.8</ele>
        <time>2016-12-24T14:04:14Z</time>
      </trkpt>
      <trkpt lat="43.72452" lon="3.44367">
        <ele>432.4</ele>
        <time>2016-12-24T14:04:16Z</time>
      </trkpt>
      <trkpt lat="43.72458" lon="3.44375">
        <ele>433.2</ele>
        <time>2016-12-24T14:04:18Z</time>
      </trkpt>
      <trkpt lat="43.72464" lon="3.44383">
        <ele>433.6</ele>
        <time>2016-12-24T14:04:20Z</time>
      </trkpt>
      <trkpt lat="43.72472" lon="3.4439">
        <ele>433.6</ele>
        <time>2016-12-24T14:04:23Z</time>
      </trkpt>
      <trkpt lat="43.7248" lon="3.44393">
        <ele>433.6</ele>
        <time>2016-12-24T14:04:26Z</time>
      </trkpt>
      <trkpt lat="43.72489" lon="3.44393">
        <ele>433.5</ele>
        <time>2016-12-24T14:04:29Z</time>
      </trkpt>
      <trkpt lat="43.72496" lon="3.4439">
        <ele>433.4</ele>
        <time>2016-12-24T14:04:31Z</time>
      </trkpt>
      <trkpt lat="43.72505" lon="3.44387">
        <ele>433.1</ele>
        <time>2016-12-24T14:04:34Z</time>
      </trkpt>
      <trkpt lat="43.72513" lon="3.44386">
        <ele>432.9</ele>
        <time>2016-12-24T14:04:37Z</time>
      </trkpt>
      <trkpt lat="43.7252" lon="3.44385">
        <ele>432.4</ele>
        <time>2016-12-24T14:04:41Z</time>
      </trkpt>
      <trkpt lat="43.72523" lon="3.44389">
        <ele>431.9</ele>
        <time>2016-12-24T14:04:48Z</time>
      </trkpt>
      <trkpt lat="43.72515" lon="3.44392">
        <ele>431.7</ele>
        <time>2016-12-24T14:04:52Z</time>
      </trkpt>
      <trkpt lat="43.72507" lon="3.44396">
        <ele>431.6</ele>
        <time>2016-12-24T14:04:56Z</time>
      </trkpt>
      <trkpt lat="43.72503" lon="3.44405">
        <ele>431.6</ele>
        <time>2016-12-24T14:05:00Z</time>
      </trkpt>
      <trkpt lat="43.72512" lon="3.44407">
        <ele>431.7</ele>
        <time>2016-12-24T14:05:06Z</time>
      </trkpt>
      <trkpt lat="43.72519" lon="3.44406">
        <ele>431.8</ele>
        <time>2016-12-24T14:05:09Z</time>
      </trkpt>
      <trkpt lat="43.72527" lon="3.4441">
        <ele>432.2</ele>
        <time>2016-12-24T14:05:13Z</time>
      </trkpt>
      <trkpt lat="43.72534" lon="3.44415">
        <ele>432.6</ele>
        <time>2016-12-24T14:05:17Z</time>
      </trkpt>
      <trkpt lat="43.72541" lon="3.4442">
        <ele>432.9</ele>
        <time>2016-12-24T14:05:20Z</time>
      </trkpt>
      <trkpt lat="43.72549" lon="3.44425">
        <ele>433.1</ele>
        <time>2016-12-24T14:05:24Z</time>
      </trkpt>
      <trkpt lat="43.72557" lon="3.44429">
        <ele>433.3</ele>
        <time>2016-12-24T14:05:28Z</time>
      </trkpt>
      <trkpt lat="43.72564" lon="3.44436">
        <ele>433.6</ele>
        <time>2016-12-24T14:05:32Z</time>
      </trkpt>
      <trkpt lat="43.7257" lon="3.44443">
        <ele>434</ele>
        <time>2016-12-24T14:05:36Z</time>
      </trkpt>
      <trkpt lat="43.72576" lon="3.44449">
        <ele>434.6</ele>
        <time>2016-12-24T14:05:40Z</time>
      </trkpt>
      <trkpt lat="43.72583" lon="3.44457">
        <ele>435.1</ele>
        <time>2016-12-24T14:05:44Z</time>
      </trkpt>
      <trkpt lat="43.72589" lon="3.44463">
        <ele>435.7</ele>
        <time>2016-12-24T14:05:48Z</time>
      </trkpt>
      <trkpt lat="43.72595" lon="3.44471">
        <ele>436.3</ele>
        <time>2016-12-24T14:05:52Z</time>
      </trkpt>
      <trkpt lat="43.72601" lon="3.44478">
        <ele>436.9</ele>
        <time>2016-12-24T14:05:56Z</time>
      </trkpt>
      <trkpt lat="43.72607" lon="3.44485">
        <ele>437.1</ele>
        <time>2016-12-24T14:06:00Z</time>
      </trkpt>
      <trkpt lat="43.72611" lon="3.44494">
        <ele>437.4</ele>
        <time>2016-12-24T14:06:04Z</time>
      </trkpt>
      <trkpt lat="43.72612" lon="3.44504">
        <ele>437.7</ele>
        <time>2016-12-24T14:06:08Z</time>
      </trkpt>
      <trkpt lat="43.7261" lon="3.44514">
        <ele>438.5</ele>
        <time>2016-12-24T14:06:13Z</time>
      </trkpt>
      <trkpt lat="43.72606" lon="3.44523">
        <ele>439.6</ele>
        <time>2016-12-24T14:06:17Z</time>
      </trkpt>
      <trkpt lat="43.72603" lon="3.44533">
        <ele>441</ele>
        <time>2016-12-24T14:06:22Z</time>
      </trkpt>
      <trkpt lat="43.72604" lon="3.44545">
        <ele>442.1</ele>
        <time>2016-12-24T14:06:26Z</time>
      </trkpt>
      <trkpt lat="43.72608" lon="3.44556">
        <ele>442.7</ele>
        <time>2016-12-24T14:06:29Z</time>
      </trkpt>
      <trkpt lat="43.72613" lon="3.44564">
        <ele>443.6</ele>
        <time>2016-12-24T14:06:33Z</time>
      </trkpt>
      <trkpt lat="43.7262" lon="3.44572">
        <ele>444.4</ele>
        <time>2016-12-24T14:06:37Z</time>
      </trkpt>
      <trkpt lat="43.72626" lon="3.44579">
        <ele>444.8</ele>
        <time>2016-12-24T14:06:41Z</time>
      </trkpt>
      <trkpt lat="43.72633" lon="3.44586">
        <ele>445.2</ele>
        <time>2016-12-24T14:06:45Z</time>
      </trkpt>
      <trkpt lat="43.72641" lon="3.4459">
        <ele>445.7</ele>
        <time>2016-12-24T14:06:49Z</time>
      </trkpt>
      <trkpt lat="43.72647" lon="3.44597">
        <ele>446.3</ele>
        <time>2016-12-24T14:06:53Z</time>
      </trkpt>
      <trkpt lat="43.72654" lon="3.44603">
        <ele>447</ele>
        <time>2016-12-24T14:06:57Z</time>
      </trkpt>
      <trkpt lat="43.72661" lon="3.4461">
        <ele>447.6</ele>
        <time>2016-12-24T14:07:01Z</time>
      </trkpt>
      <trkpt lat="43.72667" lon="3.44617">
        <ele>448.3</ele>
        <time>2016-12-24T14:07:05Z</time>
      </trkpt>
      <trkpt lat="43.72674" lon="3.44626">
        <ele>448.8</ele>
        <time>2016-12-24T14:07:09Z</time>
      </trkpt>
      <trkpt lat="43.72681" lon="3.44635">
        <ele>449.2</ele>
        <time>2016-12-24T14:07:13Z</time>
      </trkpt>
      <trkpt lat="43.72687" lon="3.44642">
        <ele>449.6</ele>
        <time>2016-12-24T14:07:16Z</time>
      </trkpt>
      <trkpt lat="43.72693" lon="3.44649">
        <ele>450</ele>
        <time>2016-12-24T14:07:21Z</time>
      </trkpt>
      <trkpt lat="43.72699" lon="3.44655">
        <ele>450.1</ele>
        <time>2016-12-24T14:07:25Z</time>
      </trkpt>
      <trkpt lat="43.72707" lon="3.4466">
        <ele>450.5</ele>
        <time>2016-12-24T14:07:29Z</time>
      </trkpt>
      <trkpt lat="43.72715" lon="3.44666">
        <ele>450.9</ele>
        <time>2016-12-24T14:07:33Z</time>
      </trkpt>
      <trkpt lat="43.72722" lon="3.4467">
        <ele>450.9</ele>
        <time>2016-12-24T14:07:36Z</time>
      </trkpt>
      <trkpt lat="43.7273" lon="3.44672">
        <ele>451</ele>
        <time>2016-12-24T14:07:40Z</time>
      </trkpt>
      <trkpt lat="43.72738" lon="3.44673">
        <ele>451.4</ele>
        <time>2016-12-24T14:07:44Z</time>
      </trkpt>
      <trkpt lat="43.72745" lon="3.44671">
        <ele>451.9</ele>
        <time>2016-12-24T14:07:48Z</time>
      </trkpt>
      <trkpt lat="43.72752" lon="3.44665">
        <ele>453.1</ele>
        <time>2016-12-24T14:07:53Z</time>
      </trkpt>
      <trkpt lat="43.72761" lon="3.44665">
        <ele>454.4</ele>
        <time>2016-12-24T14:07:57Z</time>
      </trkpt>
      <trkpt lat="43.72769" lon="3.44666">
        <ele>455.6</ele>
        <time>2016-12-24T14:08:01Z</time>
      </trkpt>
      <trkpt lat="43.72777" lon="3.44663">
        <ele>456.4</ele>
        <time>2016-12-24T14:08:04Z</time>
      </trkpt>
      <trkpt lat="43.72785" lon="3.44662">
        <ele>458</ele>
        <time>2016-12-24T14:08:09Z</time>
      </trkpt>
      <trkpt lat="43.72794" lon="3.4466">
        <ele>458.9</ele>
        <time>2016-12-24T14:08:13Z</time>
      </trkpt>
      <trkpt lat="43.72801" lon="3.44658">
        <ele>459.5</ele>
        <time>2016-12-24T14:08:16Z</time>
      </trkpt>
      <trkpt lat="43.72808" lon="3.44655">
        <ele>460.4</ele>
        <time>2016-12-24T14:08:20Z</time>
      </trkpt>
      <trkpt lat="43.72816" lon="3.4465">
        <ele>461.4</ele>
        <time>2016-12-24T14:08:23Z</time>
      </trkpt>
      <trkpt lat="43.72823" lon="3.44646">
        <ele>462.3</ele>
        <time>2016-12-24T14:08:26Z</time>
      </trkpt>
      <trkpt lat="43.72831" lon="3.44643">
        <ele>463.5</ele>
        <time>2016-12-24T14:08:31Z</time>
      </trkpt>
      <trkpt lat="43.72839" lon="3.44639">
        <ele>464.3</ele>
        <time>2016-12-24T14:08:35Z</time>
      </trkpt>
      <trkpt lat="43.72846" lon="3.44633">
        <ele>465</ele>
        <time>2016-12-24T14:08:40Z</time>
      </trkpt>
      <trkpt lat="43.72855" lon="3.44628">
        <ele>465.3</ele>
        <time>2016-12-24T14:08:44Z</time>
      </trkpt>
      <trkpt lat="43.72863" lon="3.44626">
        <ele>465.3</ele>
        <time>2016-12-24T14:08:47Z</time>
      </trkpt>
      <trkpt lat="43.72871" lon="3.44621">
        <ele>465.4</ele>
        <time>2016-12-24T14:08:50Z</time>
      </trkpt>
      <trkpt lat="43.72878" lon="3.44619">
        <ele>466.1</ele>
        <time>2016-12-24T14:08:54Z</time>
      </trkpt>
      <trkpt lat="43.72887" lon="3.44615">
        <ele>467.1</ele>
        <time>2016-12-24T14:08:58Z</time>
      </trkpt>
      <trkpt lat="43.72895" lon="3.4461">
        <ele>467.9</ele>
        <time>2016-12-24T14:09:02Z</time>
      </trkpt>
      <trkpt lat="43.72901" lon="3.44606">
        <ele>468.3</ele>
        <time>2016-12-24T14:09:05Z</time>
      </trkpt>
      <trkpt lat="43.7291" lon="3.44606">
        <ele>468.6</ele>
        <time>2016-12-24T14:09:09Z</time>
      </trkpt>
      <trkpt lat="43.72918" lon="3.44601">
        <ele>468.5</ele>
        <time>2016-12-24T14:09:15Z</time>
      </trkpt>
      <trkpt lat="43.72927" lon="3.44598">
        <ele>469.1</ele>
        <time>2016-12-24T14:09:19Z</time>
      </trkpt>
      <trkpt lat="43.72934" lon="3.44595">
        <ele>469.6</ele>
        <time>2016-12-24T14:09:23Z</time>
      </trkpt>
      <trkpt lat="43.72942" lon="3.4459">
        <ele>470.4</ele>
        <time>2016-12-24T14:09:27Z</time>
      </trkpt>
      <trkpt lat="43.7295" lon="3.44586">
        <ele>471</ele>
        <time>2016-12-24T14:09:31Z</time>
      </trkpt>
      <trkpt lat="43.72958" lon="3.44581">
        <ele>471.8</ele>
        <time>2016-12-24T14:09:34Z</time>
      </trkpt>
      <trkpt lat="43.72965" lon="3.44574">
        <ele>472.8</ele>
        <time>2016-12-24T14:09:38Z</time>
      </trkpt>
      <trkpt lat="43.72972" lon="3.44569">
        <ele>473.9</ele>
        <time>2016-12-24T14:09:42Z</time>
      </trkpt>
      <trkpt lat="43.7298" lon="3.44563">
        <ele>475</ele>
        <time>2016-12-24T14:09:46Z</time>
      </trkpt>
      <trkpt lat="43.72989" lon="3.4456">
        <ele>476.2</ele>
        <time>2016-12-24T14:09:50Z</time>
      </trkpt>
      <trkpt lat="43.72999" lon="3.4456">
        <ele>477.5</ele>
        <time>2016-12-24T14:09:54Z</time>
      </trkpt>
      <trkpt lat="43.73009" lon="3.44561">
        <ele>478.2</ele>
        <time>2016-12-24T14:09:58Z</time>
      </trkpt>
      <trkpt lat="43.73017" lon="3.44564">
        <ele>478.7</ele>
        <time>2016-12-24T14:10:01Z</time>
      </trkpt>
      <trkpt lat="43.73023" lon="3.44569">
        <ele>478.9</ele>
        <time>2016-12-24T14:10:04Z</time>
      </trkpt>
      <trkpt lat="43.73029" lon="3.44578">
        <ele>479.1</ele>
        <time>2016-12-24T14:10:08Z</time>
      </trkpt>
      <trkpt lat="43.73034" lon="3.44585">
        <ele>479.4</ele>
        <time>2016-12-24T14:10:11Z</time>
      </trkpt>
      <trkpt lat="43.73041" lon="3.44592">
        <ele>479.8</ele>
        <time>2016-12-24T14:10:15Z</time>
      </trkpt>
      <trkpt lat="43.73049" lon="3.446">
        <ele>480.1</ele>
        <time>2016-12-24T14:10:19Z</time>
      </trkpt>
      <trkpt lat="43.73054" lon="3.44608">
        <ele>480.3</ele>
        <time>2016-12-24T14:10:22Z</time>
      </trkpt>
      <trkpt lat="43.7306" lon="3.44617">
        <ele>480.8</ele>
        <time>2016-12-24T14:10:26Z</time>
      </trkpt>
      <trkpt lat="43.73065" lon="3.44628">
        <ele>481.1</ele>
        <time>2016-12-24T14:10:30Z</time>
      </trkpt>
      <trkpt lat="43.73069" lon="3.44638">
        <ele>481.8</ele>
        <time>2016-12-24T14:10:35Z</time>
      </trkpt>
      <trkpt lat="43.73074" lon="3.44648">
        <ele>482.4</ele>
        <time>2016-12-24T14:10:39Z</time>
      </trkpt>
      <trkpt lat="43.73077" lon="3.44659">
        <ele>482.9</ele>
        <time>2016-12-24T14:10:43Z</time>
      </trkpt>
      <trkpt lat="43.73081" lon="3.44669">
        <ele>483.2</ele>
        <time>2016-12-24T14:10:47Z</time>
      </trkpt>
      <trkpt lat="43.73085" lon="3.44678">
        <ele>483.5</ele>
        <time>2016-12-24T14:10:51Z</time>
      </trkpt>
      <trkpt lat="43.73087" lon="3.44689">
        <ele>484</ele>
        <time>2016-12-24T14:10:56Z</time>
      </trkpt>
      <trkpt lat="43.73089" lon="3.447">
        <ele>484.4</ele>
        <time>2016-12-24T14:11:00Z</time>
      </trkpt>
      <trkpt lat="43.73092" lon="3.44711">
        <ele>484.7</ele>
        <time>2016-12-24T14:11:04Z</time>
      </trkpt>
      <trkpt lat="43.73095" lon="3.44722">
        <ele>485</ele>
        <time>2016-12-24T14:11:07Z</time>
      </trkpt>
      <trkpt lat="43.73097" lon="3.44734">
        <ele>485.1</ele>
        <time>2016-12-24T14:11:11Z</time>
      </trkpt>
      <trkpt lat="43.73098" lon="3.44745">
        <ele>485.3</ele>
        <time>2016-12-24T14:11:16Z</time>
      </trkpt>
      <trkpt lat="43.73098" lon="3.44758">
        <ele>486.2</ele>
        <time>2016-12-24T14:11:21Z</time>
      </trkpt>
      <trkpt lat="43.73097" lon="3.44769">
        <ele>487</ele>
        <time>2016-12-24T14:11:25Z</time>
      </trkpt>
      <trkpt lat="43.73099" lon="3.4478">
        <ele>487.8</ele>
        <time>2016-12-24T14:11:29Z</time>
      </trkpt>
      <trkpt lat="43.73101" lon="3.44793">
        <ele>488.6</ele>
        <time>2016-12-24T14:11:33Z</time>
      </trkpt>
      <trkpt lat="43.73105" lon="3.44804">
        <ele>489.1</ele>
        <time>2016-12-24T14:11:36Z</time>
      </trkpt>
      <trkpt lat="43.7311" lon="3.44814">
        <ele>489.5</ele>
        <time>2016-12-24T14:11:39Z</time>
      </trkpt>
      <trkpt lat="43.73114" lon="3.44822">
        <ele>490.2</ele>
        <time>2016-12-24T14:11:42Z</time>
      </trkpt>
      <trkpt lat="43.7312" lon="3.44829">
        <ele>490.9</ele>
        <time>2016-12-24T14:11:45Z</time>
      </trkpt>
      <trkpt lat="43.73127" lon="3.44835">
        <ele>491.9</ele>
        <time>2016-12-24T14:11:50Z</time>
      </trkpt>
      <trkpt lat="43.73134" lon="3.44843">
        <ele>492.1</ele>
        <time>2016-12-24T14:11:54Z</time>
      </trkpt>
      <trkpt lat="43.73141" lon="3.44853">
        <ele>492.1</ele>
        <time>2016-12-24T14:11:57Z</time>
      </trkpt>
      <trkpt lat="43.73143" lon="3.44863">
        <ele>492</ele>
        <time>2016-12-24T14:12:00Z</time>
      </trkpt>
      <trkpt lat="43.73136" lon="3.44871">
        <ele>492.1</ele>
        <time>2016-12-24T14:12:04Z</time>
      </trkpt>
      <trkpt lat="43.73129" lon="3.44875">
        <ele>492.5</ele>
        <time>2016-12-24T14:12:09Z</time>
      </trkpt>
      <trkpt lat="43.73122" lon="3.44875">
        <ele>492.8</ele>
        <time>2016-12-24T14:12:13Z</time>
      </trkpt>
      <trkpt lat="43.73115" lon="3.44873">
        <ele>493.1</ele>
        <time>2016-12-24T14:12:17Z</time>
      </trkpt>
      <trkpt lat="43.73107" lon="3.44871">
        <ele>493.4</ele>
        <time>2016-12-24T14:12:22Z</time>
      </trkpt>
      <trkpt lat="43.73099" lon="3.4487">
        <ele>493.6</ele>
        <time>2016-12-24T14:12:25Z</time>
      </trkpt>
      <trkpt lat="43.73092" lon="3.44868">
        <ele>494</ele>
        <time>2016-12-24T14:12:28Z</time>
      </trkpt>
      <trkpt lat="43.73084" lon="3.44867">
        <ele>494.5</ele>
        <time>2016-12-24T14:12:32Z</time>
      </trkpt>
      <trkpt lat="43.73077" lon="3.44867">
        <ele>495.8</ele>
        <time>2016-12-24T14:12:38Z</time>
      </trkpt>
      <trkpt lat="43.73068" lon="3.44865">
        <ele>496.7</ele>
        <time>2016-12-24T14:12:43Z</time>
      </trkpt>
      <trkpt lat="43.7306" lon="3.44864">
        <ele>497.3</ele>
        <time>2016-12-24T14:12:47Z</time>
      </trkpt>
      <trkpt lat="43.73052" lon="3.44862">
        <ele>498.3</ele>
        <time>2016-12-24T14:12:52Z</time>
      </trkpt>
      <trkpt lat="43.73045" lon="3.44862">
        <ele>498.8</ele>
        <time>2016-12-24T14:12:56Z</time>
      </trkpt>
      <trkpt lat="43.73036" lon="3.44862">
        <ele>499.7</ele>
        <time>2016-12-24T14:13:02Z</time>
      </trkpt>
      <trkpt lat="43.73029" lon="3.4486">
        <ele>500.5</ele>
        <time>2016-12-24T14:13:06Z</time>
      </trkpt>
      <trkpt lat="43.73019" lon="3.44859">
        <ele>501.4</ele>
        <time>2016-12-24T14:13:11Z</time>
      </trkpt>
      <trkpt lat="43.73011" lon="3.4486">
        <ele>502.2</ele>
        <time>2016-12-24T14:13:15Z</time>
      </trkpt>
      <trkpt lat="43.73002" lon="3.44861">
        <ele>503.1</ele>
        <time>2016-12-24T14:13:19Z</time>
      </trkpt>
      <trkpt lat="43.72994" lon="3.44862">
        <ele>504</ele>
        <time>2016-12-24T14:13:22Z</time>
      </trkpt>
      <trkpt lat="43.72986" lon="3.44865">
        <ele>504.8</ele>
        <time>2016-12-24T14:13:25Z</time>
      </trkpt>
      <trkpt lat="43.72977" lon="3.44865">
        <ele>505.7</ele>
        <time>2016-12-24T14:13:29Z</time>
      </trkpt>
      <trkpt lat="43.7297" lon="3.44867">
        <ele>506.6</ele>
        <time>2016-12-24T14:13:33Z</time>
      </trkpt>
      <trkpt lat="43.72961" lon="3.44866">
        <ele>507.2</ele>
        <time>2016-12-24T14:13:36Z</time>
      </trkpt>
      <trkpt lat="43.72952" lon="3.44864">
        <ele>507.6</ele>
        <time>2016-12-24T14:13:39Z</time>
      </trkpt>
      <trkpt lat="43.72945" lon="3.44861">
        <ele>507.8</ele>
        <time>2016-12-24T14:13:42Z</time>
      </trkpt>
      <trkpt lat="43.72938" lon="3.4486">
        <ele>507.8</ele>
        <time>2016-12-24T14:13:45Z</time>
      </trkpt>
      <trkpt lat="43.72929" lon="3.44858">
        <ele>507.9</ele>
        <time>2016-12-24T14:13:48Z</time>
      </trkpt>
      <trkpt lat="43.72922" lon="3.44854">
        <ele>508.3</ele>
        <time>2016-12-24T14:13:52Z</time>
      </trkpt>
      <trkpt lat="43.72915" lon="3.44851">
        <ele>508.6</ele>
        <time>2016-12-24T14:13:56Z</time>
      </trkpt>
      <trkpt lat="43.72906" lon="3.44845">
        <ele>509.1</ele>
        <time>2016-12-24T14:13:59Z</time>
      </trkpt>
      <trkpt lat="43.72896" lon="3.44839">
        <ele>509.8</ele>
        <time>2016-12-24T14:14:02Z</time>
      </trkpt>
      <trkpt lat="43.72887" lon="3.4484">
        <ele>510.1</ele>
        <time>2016-12-24T14:14:04Z</time>
      </trkpt>
      <trkpt lat="43.72877" lon="3.44843">
        <ele>511.2</ele>
        <time>2016-12-24T14:14:06Z</time>
      </trkpt>
      <trkpt lat="43.72867" lon="3.44846">
        <ele>512.7</ele>
        <time>2016-12-24T14:14:08Z</time>
      </trkpt>
      <trkpt lat="43.7286" lon="3.44847">
        <ele>512.9</ele>
        <time>2016-12-24T14:14:10Z</time>
      </trkpt>
      <trkpt lat="43.72847" lon="3.44849">
        <ele>512.8</ele>
        <time>2016-12-24T14:14:12Z</time>
      </trkpt>
      <trkpt lat="43.72836" lon="3.44849">
        <ele>513.1</ele>
        <time>2016-12-24T14:14:14Z</time>
      </trkpt>
      <trkpt lat="43.72824" lon="3.44848">
        <ele>512.5</ele>
        <time>2016-12-24T14:14:16Z</time>
      </trkpt>
      <trkpt lat="43.72809" lon="3.44847">
        <ele>512</ele>
        <time>2016-12-24T14:14:18Z</time>
      </trkpt>
      <trkpt lat="43.72801" lon="3.44845">
        <ele>511.9</ele>
        <time>2016-12-24T14:14:19Z</time>
      </trkpt>
      <trkpt lat="43.72792" lon="3.44844">
        <ele>511.2</ele>
        <time>2016-12-24T14:14:20Z</time>
      </trkpt>
      <trkpt lat="43.72784" lon="3.44843">
        <ele>510.8</ele>
        <time>2016-12-24T14:14:21Z</time>
      </trkpt>
      <trkpt lat="43.72768" lon="3.44838">
        <ele>508.9</ele>
        <time>2016-12-24T14:14:23Z</time>
      </trkpt>
      <trkpt lat="43.72754" lon="3.44838">
        <ele>508.9</ele>
        <time>2016-12-24T14:14:25Z</time>
      </trkpt>
      <trkpt lat="43.72742" lon="3.44839">
        <ele>507.4</ele>
        <time>2016-12-24T14:14:27Z</time>
      </trkpt>
      <trkpt lat="43.72731" lon="3.44839">
        <ele>506.5</ele>
        <time>2016-12-24T14:14:29Z</time>
      </trkpt>
      <trkpt lat="43.7272" lon="3.44838">
        <ele>505.9</ele>
        <time>2016-12-24T14:14:31Z</time>
      </trkpt>
      <trkpt lat="43.72711" lon="3.44839">
        <ele>505.7</ele>
        <time>2016-12-24T14:14:33Z</time>
      </trkpt>
      <trkpt lat="43.72703" lon="3.44839">
        <ele>505.5</ele>
        <time>2016-12-24T14:14:36Z</time>
      </trkpt>
      <trkpt lat="43.72696" lon="3.44837">
        <ele>505.5</ele>
        <time>2016-12-24T14:14:38Z</time>
      </trkpt>
      <trkpt lat="43.72688" lon="3.44835">
        <ele>505.6</ele>
        <time>2016-12-24T14:14:41Z</time>
      </trkpt>
      <trkpt lat="43.72678" lon="3.44835">
        <ele>505.6</ele>
        <time>2016-12-24T14:14:44Z</time>
      </trkpt>
      <trkpt lat="43.72667" lon="3.44835">
        <ele>505.9</ele>
        <time>2016-12-24T14:14:47Z</time>
      </trkpt>
      <trkpt lat="43.72659" lon="3.44836">
        <ele>506.1</ele>
        <time>2016-12-24T14:14:49Z</time>
      </trkpt>
      <trkpt lat="43.72651" lon="3.44835">
        <ele>506.1</ele>
        <time>2016-12-24T14:14:51Z</time>
      </trkpt>
      <trkpt lat="43.72643" lon="3.44833">
        <ele>506.1</ele>
        <time>2016-12-24T14:14:53Z</time>
      </trkpt>
      <trkpt lat="43.72635" lon="3.44833">
        <ele>505.9</ele>
        <time>2016-12-24T14:14:55Z</time>
      </trkpt>
      <trkpt lat="43.72625" lon="3.44834">
        <ele>506</ele>
        <time>2016-12-24T14:14:57Z</time>
      </trkpt>
      <trkpt lat="43.72616" lon="3.44833">
        <ele>506.2</ele>
        <time>2016-12-24T14:14:59Z</time>
      </trkpt>
      <trkpt lat="43.72607" lon="3.44833">
        <ele>506.3</ele>
        <time>2016-12-24T14:15:01Z</time>
      </trkpt>
      <trkpt lat="43.72599" lon="3.44832">
        <ele>506.4</ele>
        <time>2016-12-24T14:15:03Z</time>
      </trkpt>
      <trkpt lat="43.72588" lon="3.4483">
        <ele>506.3</ele>
        <time>2016-12-24T14:15:05Z</time>
      </trkpt>
      <trkpt lat="43.72581" lon="3.44828">
        <ele>505.2</ele>
        <time>2016-12-24T14:15:07Z</time>
      </trkpt>
      <trkpt lat="43.72569" lon="3.44825">
        <ele>506.1</ele>
        <time>2016-12-24T14:15:10Z</time>
      </trkpt>
      <trkpt lat="43.72561" lon="3.44823">
        <ele>506.3</ele>
        <time>2016-12-24T14:15:12Z</time>
      </trkpt>
      <trkpt lat="43.72553" lon="3.4482">
        <ele>506.5</ele>
        <time>2016-12-24T14:15:15Z</time>
      </trkpt>
      <trkpt lat="43.72545" lon="3.44818">
        <ele>506.7</ele>
        <time>2016-12-24T14:15:18Z</time>
      </trkpt>
      <trkpt lat="43.72536" lon="3.44819">
        <ele>506.8</ele>
        <time>2016-12-24T14:15:20Z</time>
      </trkpt>
      <trkpt lat="43.72529" lon="3.44821">
        <ele>507</ele>
        <time>2016-12-24T14:15:22Z</time>
      </trkpt>
      <trkpt lat="43.72521" lon="3.44823">
        <ele>507.3</ele>
        <time>2016-12-24T14:15:24Z</time>
      </trkpt>
      <trkpt lat="43.72513" lon="3.44824">
        <ele>509.3</ele>
        <time>2016-12-24T14:15:26Z</time>
      </trkpt>
      <trkpt lat="43.72505" lon="3.44824">
        <ele>511.1</ele>
        <time>2016-12-24T14:15:28Z</time>
      </trkpt>
      <trkpt lat="43.72497" lon="3.44825">
        <ele>511</ele>
        <time>2016-12-24T14:15:31Z</time>
      </trkpt>
      <trkpt lat="43.72486" lon="3.44823">
        <ele>511</ele>
        <time>2016-12-24T14:15:33Z</time>
      </trkpt>
      <trkpt lat="43.72476" lon="3.44821">
        <ele>510.8</ele>
        <time>2016-12-24T14:15:36Z</time>
      </trkpt>
      <trkpt lat="43.72467" lon="3.4482">
        <ele>510.9</ele>
        <time>2016-12-24T14:15:39Z</time>
      </trkpt>
      <trkpt lat="43.72459" lon="3.44819">
        <ele>510.9</ele>
        <time>2016-12-24T14:15:41Z</time>
      </trkpt>
      <trkpt lat="43.72452" lon="3.4482">
        <ele>511</ele>
        <time>2016-12-24T14:15:43Z</time>
      </trkpt>
      <trkpt lat="43.72444" lon="3.44822">
        <ele>510.7</ele>
        <time>2016-12-24T14:15:46Z</time>
      </trkpt>
      <trkpt lat="43.72436" lon="3.44824">
        <ele>510.8</ele>
        <time>2016-12-24T14:15:48Z</time>
      </trkpt>
      <trkpt lat="43.72428" lon="3.44826">
        <ele>510.9</ele>
        <time>2016-12-24T14:15:50Z</time>
      </trkpt>
      <trkpt lat="43.7242" lon="3.44829">
        <ele>511</ele>
        <time>2016-12-24T14:15:53Z</time>
      </trkpt>
      <trkpt lat="43.7241" lon="3.44833">
        <ele>511.1</ele>
        <time>2016-12-24T14:15:56Z</time>
      </trkpt>
      <trkpt lat="43.724" lon="3.44837">
        <ele>511.1</ele>
        <time>2016-12-24T14:15:59Z</time>
      </trkpt>
      <trkpt lat="43.72392" lon="3.44842">
        <ele>511.2</ele>
        <time>2016-12-24T14:16:02Z</time>
      </trkpt>
      <trkpt lat="43.72384" lon="3.44844">
        <ele>511.4</ele>
        <time>2016-12-24T14:16:06Z</time>
      </trkpt>
      <trkpt lat="43.72375" lon="3.44846">
        <ele>511.4</ele>
        <time>2016-12-24T14:16:10Z</time>
      </trkpt>
      <trkpt lat="43.72363" lon="3.44848">
        <ele>511</ele>
        <time>2016-12-24T14:16:12Z</time>
      </trkpt>
      <trkpt lat="43.72353" lon="3.44846">
        <ele>510.6</ele>
        <time>2016-12-24T14:16:15Z</time>
      </trkpt>
      <trkpt lat="43.72344" lon="3.44843">
        <ele>510.1</ele>
        <time>2016-12-24T14:16:18Z</time>
      </trkpt>
      <trkpt lat="43.72335" lon="3.44838">
        <ele>509.4</ele>
        <time>2016-12-24T14:16:22Z</time>
      </trkpt>
      <trkpt lat="43.72327" lon="3.44834">
        <ele>508.6</ele>
        <time>2016-12-24T14:16:26Z</time>
      </trkpt>
      <trkpt lat="43.72319" lon="3.44831">
        <ele>507.8</ele>
        <time>2016-12-24T14:16:30Z</time>
      </trkpt>
      <trkpt lat="43.72312" lon="3.44827">
        <ele>507.4</ele>
        <time>2016-12-24T14:16:34Z</time>
      </trkpt>
      <trkpt lat="43.72305" lon="3.44822">
        <ele>507.2</ele>
        <time>2016-12-24T14:16:38Z</time>
      </trkpt>
      <trkpt lat="43.72298" lon="3.44814">
        <ele>507.6</ele>
        <time>2016-12-24T14:16:42Z</time>
      </trkpt>
      <trkpt lat="43.7229" lon="3.44809">
        <ele>508.4</ele>
        <time>2016-12-24T14:16:47Z</time>
      </trkpt>
      <trkpt lat="43.72286" lon="3.44807">
        <ele>508.9</ele>
        <time>2016-12-24T14:16:54Z</time>
      </trkpt>
      <trkpt lat="43.72277" lon="3.44804">
        <ele>509</ele>
        <time>2016-12-24T14:16:57Z</time>
      </trkpt>
      <trkpt lat="43.7227" lon="3.44806">
        <ele>509.5</ele>
        <time>2016-12-24T14:17:04Z</time>
      </trkpt>
      <trkpt lat="43.72263" lon="3.44809">
        <ele>510.3</ele>
        <time>2016-12-24T14:17:10Z</time>
      </trkpt>
      <trkpt lat="43.72253" lon="3.44826">
        <ele>510.9</ele>
        <time>2016-12-24T14:18:17Z</time>
      </trkpt>
      <trkpt lat="43.72246" lon="3.44831">
        <ele>510.8</ele>
        <time>2016-12-24T14:18:20Z</time>
      </trkpt>
      <trkpt lat="43.72239" lon="3.44836">
        <ele>510.7</ele>
        <time>2016-12-24T14:18:23Z</time>
      </trkpt>
      <trkpt lat="43.72233" lon="3.44842">
        <ele>510.6</ele>
        <time>2016-12-24T14:18:26Z</time>
      </trkpt>
      <trkpt lat="43.72226" lon="3.44848">
        <ele>510.5</ele>
        <time>2016-12-24T14:18:29Z</time>
      </trkpt>
      <trkpt lat="43.72221" lon="3.44856">
        <ele>510.6</ele>
        <time>2016-12-24T14:18:32Z</time>
      </trkpt>
      <trkpt lat="43.72215" lon="3.44862">
        <ele>510.8</ele>
        <time>2016-12-24T14:18:35Z</time>
      </trkpt>
      <trkpt lat="43.72209" lon="3.44869">
        <ele>511</ele>
        <time>2016-12-24T14:18:38Z</time>
      </trkpt>
      <trkpt lat="43.72201" lon="3.44871">
        <ele>511.6</ele>
        <time>2016-12-24T14:18:42Z</time>
      </trkpt>
      <trkpt lat="43.72193" lon="3.44873">
        <ele>512.2</ele>
        <time>2016-12-24T14:18:46Z</time>
      </trkpt>
      <trkpt lat="43.72185" lon="3.44877">
        <ele>513</ele>
        <time>2016-12-24T14:18:50Z</time>
      </trkpt>
      <trkpt lat="43.72177" lon="3.44881">
        <ele>513.3</ele>
        <time>2016-12-24T14:18:53Z</time>
      </trkpt>
      <trkpt lat="43.72168" lon="3.44883">
        <ele>513.7</ele>
        <time>2016-12-24T14:18:57Z</time>
      </trkpt>
      <trkpt lat="43.72159" lon="3.44885">
        <ele>514.2</ele>
        <time>2016-12-24T14:19:02Z</time>
      </trkpt>
      <trkpt lat="43.72151" lon="3.44885">
        <ele>514.5</ele>
        <time>2016-12-24T14:19:06Z</time>
      </trkpt>
      <trkpt lat="43.72143" lon="3.44881">
        <ele>514.8</ele>
        <time>2016-12-24T14:19:11Z</time>
      </trkpt>
      <trkpt lat="43.72135" lon="3.44877">
        <ele>515</ele>
        <time>2016-12-24T14:19:15Z</time>
      </trkpt>
      <trkpt lat="43.72128" lon="3.44873">
        <ele>515.6</ele>
        <time>2016-12-24T14:19:17Z</time>
      </trkpt>
      <trkpt lat="43.72118" lon="3.44868">
        <ele>516.6</ele>
        <time>2016-12-24T14:19:19Z</time>
      </trkpt>
      <trkpt lat="43.72103" lon="3.44863">
        <ele>518</ele>
        <time>2016-12-24T14:19:21Z</time>
      </trkpt>
      <trkpt lat="43.72096" lon="3.44861">
        <ele>519</ele>
        <time>2016-12-24T14:19:22Z</time>
      </trkpt>
      <trkpt lat="43.72088" lon="3.44858">
        <ele>519.8</ele>
        <time>2016-12-24T14:19:23Z</time>
      </trkpt>
      <trkpt lat="43.72081" lon="3.44855">
        <ele>520.1</ele>
        <time>2016-12-24T14:19:24Z</time>
      </trkpt>
      <trkpt lat="43.72074" lon="3.44852">
        <ele>520.5</ele>
        <time>2016-12-24T14:19:25Z</time>
      </trkpt>
      <trkpt lat="43.72067" lon="3.44848">
        <ele>520.5</ele>
        <time>2016-12-24T14:19:26Z</time>
      </trkpt>
      <trkpt lat="43.72055" lon="3.44842">
        <ele>520</ele>
        <time>2016-12-24T14:19:28Z</time>
      </trkpt>
      <trkpt lat="43.72043" lon="3.44835">
        <ele>519.6</ele>
        <time>2016-12-24T14:19:30Z</time>
      </trkpt>
      <trkpt lat="43.7203" lon="3.44826">
        <ele>519.3</ele>
        <time>2016-12-24T14:19:32Z</time>
      </trkpt>
      <trkpt lat="43.72023" lon="3.44823">
        <ele>519.4</ele>
        <time>2016-12-24T14:19:33Z</time>
      </trkpt>
      <trkpt lat="43.72015" lon="3.44819">
        <ele>519.5</ele>
        <time>2016-12-24T14:19:34Z</time>
      </trkpt>
      <trkpt lat="43.72008" lon="3.44816">
        <ele>518.6</ele>
        <time>2016-12-24T14:19:35Z</time>
      </trkpt>
      <trkpt lat="43.71993" lon="3.44816">
        <ele>516.8</ele>
        <time>2016-12-24T14:19:37Z</time>
      </trkpt>
      <trkpt lat="43.71979" lon="3.44816">
        <ele>515</ele>
        <time>2016-12-24T14:19:39Z</time>
      </trkpt>
      <trkpt lat="43.71969" lon="3.44827">
        <ele>513.7</ele>
        <time>2016-12-24T14:19:41Z</time>
      </trkpt>
      <trkpt lat="43.71963" lon="3.44841">
        <ele>513.9</ele>
        <time>2016-12-24T14:19:43Z</time>
      </trkpt>
      <trkpt lat="43.71958" lon="3.44856">
        <ele>513.5</ele>
        <time>2016-12-24T14:19:45Z</time>
      </trkpt>
      <trkpt lat="43.71956" lon="3.4487">
        <ele>512.9</ele>
        <time>2016-12-24T14:19:47Z</time>
      </trkpt>
      <trkpt lat="43.71955" lon="3.44882">
        <ele>512.7</ele>
        <time>2016-12-24T14:19:50Z</time>
      </trkpt>
      <trkpt lat="43.71951" lon="3.44893">
        <ele>512.4</ele>
        <time>2016-12-24T14:19:53Z</time>
      </trkpt>
      <trkpt lat="43.71947" lon="3.44905">
        <ele>512.2</ele>
        <time>2016-12-24T14:19:56Z</time>
      </trkpt>
      <trkpt lat="43.71944" lon="3.44915">
        <ele>512</ele>
        <time>2016-12-24T14:19:59Z</time>
      </trkpt>
      <trkpt lat="43.71939" lon="3.44926">
        <ele>511.8</ele>
        <time>2016-12-24T14:20:02Z</time>
      </trkpt>
      <trkpt lat="43.71935" lon="3.44936">
        <ele>511.5</ele>
        <time>2016-12-24T14:20:05Z</time>
      </trkpt>
      <trkpt lat="43.71931" lon="3.44945">
        <ele>511.6</ele>
        <time>2016-12-24T14:20:08Z</time>
      </trkpt>
      <trkpt lat="43.71927" lon="3.44957">
        <ele>511.5</ele>
        <time>2016-12-24T14:20:11Z</time>
      </trkpt>
      <trkpt lat="43.71924" lon="3.44969">
        <ele>511.6</ele>
        <time>2016-12-24T14:20:14Z</time>
      </trkpt>
      <trkpt lat="43.71922" lon="3.44981">
        <ele>511.7</ele>
        <time>2016-12-24T14:20:18Z</time>
      </trkpt>
      <trkpt lat="43.7192" lon="3.44991">
        <ele>511.9</ele>
        <time>2016-12-24T14:20:21Z</time>
      </trkpt>
      <trkpt lat="43.71918" lon="3.45003">
        <ele>512.1</ele>
        <time>2016-12-24T14:20:25Z</time>
      </trkpt>
      <trkpt lat="43.71916" lon="3.45013">
        <ele>512.5</ele>
        <time>2016-12-24T14:20:29Z</time>
      </trkpt>
      <trkpt lat="43.71915" lon="3.45024">
        <ele>512.9</ele>
        <time>2016-12-24T14:20:33Z</time>
      </trkpt>
      <trkpt lat="43.71914" lon="3.45036">
        <ele>513.4</ele>
        <time>2016-12-24T14:20:37Z</time>
      </trkpt>
      <trkpt lat="43.71912" lon="3.45045">
        <ele>513.8</ele>
        <time>2016-12-24T14:20:40Z</time>
      </trkpt>
      <trkpt lat="43.71909" lon="3.45055">
        <ele>514.2</ele>
        <time>2016-12-24T14:20:45Z</time>
      </trkpt>
      <trkpt lat="43.71906" lon="3.45066">
        <ele>514.9</ele>
        <time>2016-12-24T14:20:50Z</time>
      </trkpt>
      <trkpt lat="43.71904" lon="3.45078">
        <ele>515.3</ele>
        <time>2016-12-24T14:20:54Z</time>
      </trkpt>
      <trkpt lat="43.71903" lon="3.45089">
        <ele>515.7</ele>
        <time>2016-12-24T14:20:58Z</time>
      </trkpt>
      <trkpt lat="43.719" lon="3.451">
        <ele>516</ele>
        <time>2016-12-24T14:21:02Z</time>
      </trkpt>
      <trkpt lat="43.71899" lon="3.45111">
        <ele>517.4</ele>
        <time>2016-12-24T14:21:05Z</time>
      </trkpt>
      <trkpt lat="43.71897" lon="3.45122">
        <ele>518.4</ele>
        <time>2016-12-24T14:21:07Z</time>
      </trkpt>
      <trkpt lat="43.71896" lon="3.45132">
        <ele>519.2</ele>
        <time>2016-12-24T14:21:09Z</time>
      </trkpt>
      <trkpt lat="43.71893" lon="3.45145">
        <ele>520</ele>
        <time>2016-12-24T14:21:11Z</time>
      </trkpt>
      <trkpt lat="43.71891" lon="3.45159">
        <ele>520.3</ele>
        <time>2016-12-24T14:21:13Z</time>
      </trkpt>
      <trkpt lat="43.71889" lon="3.45174">
        <ele>519.8</ele>
        <time>2016-12-24T14:21:15Z</time>
      </trkpt>
      <trkpt lat="43.71888" lon="3.45194">
        <ele>519.3</ele>
        <time>2016-12-24T14:21:17Z</time>
      </trkpt>
      <trkpt lat="43.71887" lon="3.45212">
        <ele>518.8</ele>
        <time>2016-12-24T14:21:19Z</time>
      </trkpt>
      <trkpt lat="43.71887" lon="3.45228">
        <ele>517.5</ele>
        <time>2016-12-24T14:21:21Z</time>
      </trkpt>
      <trkpt lat="43.71888" lon="3.45243">
        <ele>516.8</ele>
        <time>2016-12-24T14:21:23Z</time>
      </trkpt>
      <trkpt lat="43.71887" lon="3.45255">
        <ele>516.3</ele>
        <time>2016-12-24T14:21:25Z</time>
      </trkpt>
      <trkpt lat="43.71885" lon="3.45265">
        <ele>516.9</ele>
        <time>2016-12-24T14:21:27Z</time>
      </trkpt>
      <trkpt lat="43.71885" lon="3.45277">
        <ele>517.8</ele>
        <time>2016-12-24T14:21:29Z</time>
      </trkpt>
      <trkpt lat="43.71885" lon="3.45287">
        <ele>518.4</ele>
        <time>2016-12-24T14:21:31Z</time>
      </trkpt>
      <trkpt lat="43.71884" lon="3.45301">
        <ele>518.3</ele>
        <time>2016-12-24T14:21:34Z</time>
      </trkpt>
      <trkpt lat="43.71883" lon="3.45315">
        <ele>518.5</ele>
        <time>2016-12-24T14:21:37Z</time>
      </trkpt>
      <trkpt lat="43.71883" lon="3.45325">
        <ele>518.6</ele>
        <time>2016-12-24T14:21:39Z</time>
      </trkpt>
      <trkpt lat="43.71882" lon="3.45336">
        <ele>518.7</ele>
        <time>2016-12-24T14:21:41Z</time>
      </trkpt>
      <trkpt lat="43.71881" lon="3.45347">
        <ele>518.9</ele>
        <time>2016-12-24T14:21:44Z</time>
      </trkpt>
      <trkpt lat="43.71881" lon="3.45359">
        <ele>519</ele>
        <time>2016-12-24T14:21:47Z</time>
      </trkpt>
      <trkpt lat="43.71881" lon="3.4537">
        <ele>519.4</ele>
        <time>2016-12-24T14:21:51Z</time>
      </trkpt>
      <trkpt lat="43.71882" lon="3.45382">
        <ele>519.8</ele>
        <time>2016-12-24T14:21:55Z</time>
      </trkpt>
      <trkpt lat="43.7188" lon="3.45393">
        <ele>521.1</ele>
        <time>2016-12-24T14:21:59Z</time>
      </trkpt>
      <trkpt lat="43.71877" lon="3.45406">
        <ele>522.3</ele>
        <time>2016-12-24T14:22:01Z</time>
      </trkpt>
      <trkpt lat="43.71876" lon="3.45418">
        <ele>522.3</ele>
        <time>2016-12-24T14:22:03Z</time>
      </trkpt>
      <trkpt lat="43.71876" lon="3.45435">
        <ele>521.7</ele>
        <time>2016-12-24T14:22:05Z</time>
      </trkpt>
      <trkpt lat="43.71877" lon="3.4545">
        <ele>521.5</ele>
        <time>2016-12-24T14:22:07Z</time>
      </trkpt>
      <trkpt lat="43.71877" lon="3.45462">
        <ele>520.7</ele>
        <time>2016-12-24T14:22:09Z</time>
      </trkpt>
      <trkpt lat="43.71874" lon="3.45475">
        <ele>520.6</ele>
        <time>2016-12-24T14:22:11Z</time>
      </trkpt>
      <trkpt lat="43.71868" lon="3.4549">
        <ele>520.6</ele>
        <time>2016-12-24T14:22:13Z</time>
      </trkpt>
      <trkpt lat="43.71863" lon="3.45498">
        <ele>520.5</ele>
        <time>2016-12-24T14:22:15Z</time>
      </trkpt>
      <trkpt lat="43.71855" lon="3.45501">
        <ele>520.4</ele>
        <time>2016-12-24T14:22:18Z</time>
      </trkpt>
      <trkpt lat="43.71844" lon="3.45506">
        <ele>520.5</ele>
        <time>2016-12-24T14:22:21Z</time>
      </trkpt>
      <trkpt lat="43.71838" lon="3.45512">
        <ele>520.3</ele>
        <time>2016-12-24T14:22:23Z</time>
      </trkpt>
      <trkpt lat="43.71832" lon="3.4552">
        <ele>520.1</ele>
        <time>2016-12-24T14:22:26Z</time>
      </trkpt>
      <trkpt lat="43.71824" lon="3.45529">
        <ele>520</ele>
        <time>2016-12-24T14:22:30Z</time>
      </trkpt>
      <trkpt lat="43.71818" lon="3.45535">
        <ele>520</ele>
        <time>2016-12-24T14:22:33Z</time>
      </trkpt>
      <trkpt lat="43.71811" lon="3.45542">
        <ele>520</ele>
        <time>2016-12-24T14:22:36Z</time>
      </trkpt>
      <trkpt lat="43.71807" lon="3.45551">
        <ele>520</ele>
        <time>2016-12-24T14:22:38Z</time>
      </trkpt>
      <trkpt lat="43.71802" lon="3.4556">
        <ele>519.9</ele>
        <time>2016-12-24T14:22:40Z</time>
      </trkpt>
      <trkpt lat="43.71798" lon="3.45569">
        <ele>518.9</ele>
        <time>2016-12-24T14:22:42Z</time>
      </trkpt>
      <trkpt lat="43.71791" lon="3.4558">
        <ele>518.3</ele>
        <time>2016-12-24T14:22:44Z</time>
      </trkpt>
      <trkpt lat="43.71785" lon="3.45596">
        <ele>517.4</ele>
        <time>2016-12-24T14:22:46Z</time>
      </trkpt>
      <trkpt lat="43.71782" lon="3.45607">
        <ele>516.5</ele>
        <time>2016-12-24T14:22:48Z</time>
      </trkpt>
      <trkpt lat="43.71781" lon="3.45618">
        <ele>516</ele>
        <time>2016-12-24T14:22:50Z</time>
      </trkpt>
      <trkpt lat="43.71783" lon="3.45625">
        <ele>515.9</ele>
        <time>2016-12-24T14:22:57Z</time>
      </trkpt>
      <trkpt lat="43.71782" lon="3.45652">
        <ele>514.3</ele>
        <time>2016-12-24T14:22:24Z</time>
      </trkpt>
      <trkpt lat="43.71781" lon="3.45669">
        <ele>513.3</ele>
        <time>2016-12-24T14:22:26Z</time>
      </trkpt>
      <trkpt lat="43.71773" lon="3.45678">
        <ele>512</ele>
        <time>2016-12-24T14:22:28Z</time>
      </trkpt>
      <trkpt lat="43.71768" lon="3.45686">
        <ele>511.8</ele>
        <time>2016-12-24T14:22:30Z</time>
      </trkpt>
      <trkpt lat="43.71763" lon="3.45696">
        <ele>511.1</ele>
        <time>2016-12-24T14:22:32Z</time>
      </trkpt>
      <trkpt lat="43.71756" lon="3.45706">
        <ele>509.4</ele>
        <time>2016-12-24T14:23:41Z</time>
      </trkpt>
      <trkpt lat="43.71748" lon="3.45709">
        <ele>506.6</ele>
        <time>2016-12-24T14:23:43Z</time>
      </trkpt>
      <trkpt lat="43.7174" lon="3.45713">
        <ele>504.6</ele>
        <time>2016-12-24T14:23:45Z</time>
      </trkpt>
      <trkpt lat="43.7173" lon="3.45717">
        <ele>504.4</ele>
        <time>2016-12-24T14:23:47Z</time>
      </trkpt>
      <trkpt lat="43.71719" lon="3.45719">
        <ele>503.7</ele>
        <time>2016-12-24T14:23:50Z</time>
      </trkpt>
      <trkpt lat="43.71714" lon="3.45725">
        <ele>503.2</ele>
        <time>2016-12-24T14:23:54Z</time>
      </trkpt>
      <trkpt lat="43.71708" lon="3.45735">
        <ele>502.9</ele>
        <time>2016-12-24T14:23:57Z</time>
      </trkpt>
      <trkpt lat="43.71702" lon="3.45741">
        <ele>502.8</ele>
        <time>2016-12-24T14:23:59Z</time>
      </trkpt>
      <trkpt lat="43.71695" lon="3.45747">
        <ele>502.5</ele>
        <time>2016-12-24T14:24:02Z</time>
      </trkpt>
      <trkpt lat="43.71692" lon="3.45753">
        <ele>502.1</ele>
        <time>2016-12-24T14:24:09Z</time>
      </trkpt>
      <trkpt lat="43.71668" lon="3.45786">
        <ele>498.1</ele>
        <time>2016-12-24T14:24:43Z</time>
      </trkpt>
      <trkpt lat="43.71665" lon="3.45795">
        <ele>497.8</ele>
        <time>2016-12-24T14:24:45Z</time>
      </trkpt>
      <trkpt lat="43.7166" lon="3.45803">
        <ele>497.5</ele>
        <time>2016-12-24T14:24:47Z</time>
      </trkpt>
      <trkpt lat="43.71652" lon="3.45803">
        <ele>496.5</ele>
        <time>2016-12-24T14:24:52Z</time>
      </trkpt>
      <trkpt lat="43.71645" lon="3.45803">
        <ele>495.9</ele>
        <time>2016-12-24T14:24:56Z</time>
      </trkpt>
      <trkpt lat="43.71637" lon="3.45806">
        <ele>495.2</ele>
        <time>2016-12-24T14:25:01Z</time>
      </trkpt>
      <trkpt lat="43.71623" lon="3.45813">
        <ele>493.4</ele>
        <time>2016-12-24T14:25:18Z</time>
      </trkpt>
      <trkpt lat="43.7162" lon="3.45818">
        <ele>493.7</ele>
        <time>2016-12-24T14:25:25Z</time>
      </trkpt>
      <trkpt lat="43.71603" lon="3.45839">
        <ele>496.5</ele>
        <time>2016-12-24T14:25:55Z</time>
      </trkpt>
      <trkpt lat="43.71601" lon="3.45846">
        <ele>496.6</ele>
        <time>2016-12-24T14:26:02Z</time>
      </trkpt>
      <trkpt lat="43.71597" lon="3.45857">
        <ele>497.6</ele>
        <time>2016-12-24T14:26:16Z</time>
      </trkpt>
      <trkpt lat="43.71591" lon="3.45864">
        <ele>497.9</ele>
        <time>2016-12-24T14:26:18Z</time>
      </trkpt>
      <trkpt lat="43.7159" lon="3.45866">
        <ele>498.6</ele>
        <time>2016-12-24T14:26:25Z</time>
      </trkpt>
      <trkpt lat="43.716" lon="3.45887">
        <ele>499.2</ele>
        <time>2016-12-24T14:26:36Z</time>
      </trkpt>
      <trkpt lat="43.71604" lon="3.45898">
        <ele>499.6</ele>
        <time>2016-12-24T14:26:40Z</time>
      </trkpt>
      <trkpt lat="43.7161" lon="3.4591">
        <ele>499.7</ele>
        <time>2016-12-24T14:26:43Z</time>
      </trkpt>
      <trkpt lat="43.71607" lon="3.4592">
        <ele>499.7</ele>
        <time>2016-12-24T14:26:45Z</time>
      </trkpt>
      <trkpt lat="43.7161" lon="3.45931">
        <ele>500.3</ele>
        <time>2016-12-24T14:26:47Z</time>
      </trkpt>
      <trkpt lat="43.71607" lon="3.45946">
        <ele>500.5</ele>
        <time>2016-12-24T14:26:49Z</time>
      </trkpt>
      <trkpt lat="43.71605" lon="3.45958">
        <ele>500.8</ele>
        <time>2016-12-24T14:26:51Z</time>
      </trkpt>
      <trkpt lat="43.71609" lon="3.4597">
        <ele>500.8</ele>
        <time>2016-12-24T14:26:53Z</time>
      </trkpt>
      <trkpt lat="43.71605" lon="3.45979">
        <ele>500.6</ele>
        <time>2016-12-24T14:26:55Z</time>
      </trkpt>
      <trkpt lat="43.71605" lon="3.45992">
        <ele>500.5</ele>
        <time>2016-12-24T14:26:57Z</time>
      </trkpt>
      <trkpt lat="43.71607" lon="3.46007">
        <ele>500.3</ele>
        <time>2016-12-24T14:26:59Z</time>
      </trkpt>
      <trkpt lat="43.71608" lon="3.46022">
        <ele>498</ele>
        <time>2016-12-24T14:27:01Z</time>
      </trkpt>
      <trkpt lat="43.71607" lon="3.46038">
        <ele>495.1</ele>
        <time>2016-12-24T14:27:03Z</time>
      </trkpt>
      <trkpt lat="43.71605" lon="3.4605">
        <ele>493.8</ele>
        <time>2016-12-24T14:27:05Z</time>
      </trkpt>
      <trkpt lat="43.71602" lon="3.46062">
        <ele>492.2</ele>
        <time>2016-12-24T14:27:07Z</time>
      </trkpt>
      <trkpt lat="43.71599" lon="3.46075">
        <ele>491.4</ele>
        <time>2016-12-24T14:27:09Z</time>
      </trkpt>
      <trkpt lat="43.71592" lon="3.46089">
        <ele>491.2</ele>
        <time>2016-12-24T14:27:12Z</time>
      </trkpt>
      <trkpt lat="43.71591" lon="3.46103">
        <ele>491</ele>
        <time>2016-12-24T14:27:14Z</time>
      </trkpt>
      <trkpt lat="43.71591" lon="3.46113">
        <ele>490.6</ele>
        <time>2016-12-24T14:27:16Z</time>
      </trkpt>
      <trkpt lat="43.71588" lon="3.46124">
        <ele>490.2</ele>
        <time>2016-12-24T14:27:19Z</time>
      </trkpt>
      <trkpt lat="43.71584" lon="3.46137">
        <ele>489.6</ele>
        <time>2016-12-24T14:27:22Z</time>
      </trkpt>
      <trkpt lat="43.71578" lon="3.46145">
        <ele>488.9</ele>
        <time>2016-12-24T14:27:26Z</time>
      </trkpt>
      <trkpt lat="43.71572" lon="3.46154">
        <ele>488.4</ele>
        <time>2016-12-24T14:27:29Z</time>
      </trkpt>
      <trkpt lat="43.7157" lon="3.46164">
        <ele>488.1</ele>
        <time>2016-12-24T14:27:31Z</time>
      </trkpt>
      <trkpt lat="43.71569" lon="3.46175">
        <ele>487.8</ele>
        <time>2016-12-24T14:27:33Z</time>
      </trkpt>
      <trkpt lat="43.71567" lon="3.46188">
        <ele>487.2</ele>
        <time>2016-12-24T14:27:36Z</time>
      </trkpt>
      <trkpt lat="43.71564" lon="3.46197">
        <ele>486.9</ele>
        <time>2016-12-24T14:27:38Z</time>
      </trkpt>
      <trkpt lat="43.71562" lon="3.46207">
        <ele>486.4</ele>
        <time>2016-12-24T14:27:41Z</time>
      </trkpt>
      <trkpt lat="43.71558" lon="3.46219">
        <ele>485.9</ele>
        <time>2016-12-24T14:27:45Z</time>
      </trkpt>
      <trkpt lat="43.71556" lon="3.46231">
        <ele>485.3</ele>
        <time>2016-12-24T14:27:48Z</time>
      </trkpt>
      <trkpt lat="43.71554" lon="3.46242">
        <ele>484.9</ele>
        <time>2016-12-24T14:27:51Z</time>
      </trkpt>
      <trkpt lat="43.71555" lon="3.46252">
        <ele>483.1</ele>
        <time>2016-12-24T14:27:53Z</time>
      </trkpt>
      <trkpt lat="43.71554" lon="3.46264">
        <ele>481</ele>
        <time>2016-12-24T14:27:55Z</time>
      </trkpt>
      <trkpt lat="43.71553" lon="3.46278">
        <ele>479</ele>
        <time>2016-12-24T14:27:57Z</time>
      </trkpt>
      <trkpt lat="43.71551" lon="3.46288">
        <ele>478.8</ele>
        <time>2016-12-24T14:27:59Z</time>
      </trkpt>
      <trkpt lat="43.71546" lon="3.46298">
        <ele>478.3</ele>
        <time>2016-12-24T14:28:04Z</time>
      </trkpt>
      <trkpt lat="43.71539" lon="3.46305">
        <ele>477.9</ele>
        <time>2016-12-24T14:28:07Z</time>
      </trkpt>
      <trkpt lat="43.7153" lon="3.4631">
        <ele>477.3</ele>
        <time>2016-12-24T14:28:10Z</time>
      </trkpt>
      <trkpt lat="43.71521" lon="3.46316">
        <ele>472.8</ele>
        <time>2016-12-24T14:28:13Z</time>
      </trkpt>
      <trkpt lat="43.71514" lon="3.46323">
        <ele>469.1</ele>
        <time>2016-12-24T14:28:15Z</time>
      </trkpt>
      <trkpt lat="43.71507" lon="3.46328">
        <ele>468.8</ele>
        <time>2016-12-24T14:28:17Z</time>
      </trkpt>
      <trkpt lat="43.715" lon="3.46336">
        <ele>465.7</ele>
        <time>2016-12-24T14:28:19Z</time>
      </trkpt>
      <trkpt lat="43.71493" lon="3.46343">
        <ele>464.8</ele>
        <time>2016-12-24T14:28:21Z</time>
      </trkpt>
      <trkpt lat="43.7149" lon="3.46356">
        <ele>464.5</ele>
        <time>2016-12-24T14:28:25Z</time>
      </trkpt>
      <trkpt lat="43.71484" lon="3.46362">
        <ele>463.2</ele>
        <time>2016-12-24T14:28:32Z</time>
      </trkpt>
      <trkpt lat="43.7148" lon="3.46358">
        <ele>462.6</ele>
        <time>2016-12-24T14:28:39Z</time>
      </trkpt>
      <trkpt lat="43.71475" lon="3.46355">
        <ele>461.9</ele>
        <time>2016-12-24T14:28:46Z</time>
      </trkpt>
      <trkpt lat="43.7147" lon="3.46351">
        <ele>461.5</ele>
        <time>2016-12-24T14:28:53Z</time>
      </trkpt>
      <trkpt lat="43.71465" lon="3.46351">
        <ele>461.7</ele>
        <time>2016-12-24T14:29:00Z</time>
      </trkpt>
      <trkpt lat="43.71459" lon="3.4635">
        <ele>461.9</ele>
        <time>2016-12-24T14:29:07Z</time>
      </trkpt>
      <trkpt lat="43.71452" lon="3.46348">
        <ele>462.5</ele>
        <time>2016-12-24T14:29:12Z</time>
      </trkpt>
      <trkpt lat="43.71445" lon="3.46346">
        <ele>463.2</ele>
        <time>2016-12-24T14:29:19Z</time>
      </trkpt>
      <trkpt lat="43.7144" lon="3.46347">
        <ele>463.7</ele>
        <time>2016-12-24T14:29:26Z</time>
      </trkpt>
      <trkpt lat="43.71433" lon="3.46347">
        <ele>464.2</ele>
        <time>2016-12-24T14:29:33Z</time>
      </trkpt>
      <trkpt lat="43.71426" lon="3.46348">
        <ele>464.9</ele>
        <time>2016-12-24T14:29:40Z</time>
      </trkpt>
      <trkpt lat="43.71423" lon="3.46347">
        <ele>465</ele>
        <time>2016-12-24T14:29:47Z</time>
      </trkpt>
      <trkpt lat="43.71416" lon="3.4635">
        <ele>465.2</ele>
        <time>2016-12-24T14:29:54Z</time>
      </trkpt>
      <trkpt lat="43.71415" lon="3.4635">
        <ele>465.5</ele>
        <time>2016-12-24T14:30:01Z</time>
      </trkpt>
      <trkpt lat="43.7141" lon="3.46352">
        <ele>465.8</ele>
        <time>2016-12-24T14:30:08Z</time>
      </trkpt>
      <trkpt lat="43.71402" lon="3.46355">
        <ele>466.3</ele>
        <time>2016-12-24T14:30:14Z</time>
      </trkpt>
      <trkpt lat="43.71393" lon="3.46356">
        <ele>467.2</ele>
        <time>2016-12-24T14:30:20Z</time>
      </trkpt>
      <trkpt lat="43.71384" lon="3.46356">
        <ele>467.8</ele>
        <time>2016-12-24T14:30:26Z</time>
      </trkpt>
      <trkpt lat="43.71376" lon="3.46358">
        <ele>468.5</ele>
        <time>2016-12-24T14:30:32Z</time>
      </trkpt>
      <trkpt lat="43.71369" lon="3.4636">
        <ele>468.9</ele>
        <time>2016-12-24T14:30:37Z</time>
      </trkpt>
      <trkpt lat="43.71361" lon="3.46365">
        <ele>469.2</ele>
        <time>2016-12-24T14:30:41Z</time>
      </trkpt>
      <trkpt lat="43.71354" lon="3.46367">
        <ele>469.8</ele>
        <time>2016-12-24T14:30:46Z</time>
      </trkpt>
      <trkpt lat="43.71346" lon="3.46369">
        <ele>470.4</ele>
        <time>2016-12-24T14:30:50Z</time>
      </trkpt>
      <trkpt lat="43.71336" lon="3.46369">
        <ele>471.2</ele>
        <time>2016-12-24T14:30:54Z</time>
      </trkpt>
      <trkpt lat="43.71328" lon="3.46371">
        <ele>472.1</ele>
        <time>2016-12-24T14:30:59Z</time>
      </trkpt>
      <trkpt lat="43.7132" lon="3.46369">
        <ele>472.6</ele>
        <time>2016-12-24T14:31:03Z</time>
      </trkpt>
      <trkpt lat="43.71313" lon="3.46368">
        <ele>472.9</ele>
        <time>2016-12-24T14:31:08Z</time>
      </trkpt>
      <trkpt lat="43.71305" lon="3.46364">
        <ele>473.2</ele>
        <time>2016-12-24T14:31:13Z</time>
      </trkpt>
      <trkpt lat="43.71299" lon="3.46358">
        <ele>473.8</ele>
        <time>2016-12-24T14:31:18Z</time>
      </trkpt>
      <trkpt lat="43.71292" lon="3.46352">
        <ele>474.7</ele>
        <time>2016-12-24T14:31:23Z</time>
      </trkpt>
      <trkpt lat="43.71287" lon="3.46344">
        <ele>475.3</ele>
        <time>2016-12-24T14:31:28Z</time>
      </trkpt>
      <trkpt lat="43.71283" lon="3.46335">
        <ele>475.8</ele>
        <time>2016-12-24T14:31:33Z</time>
      </trkpt>
      <trkpt lat="43.71282" lon="3.46324">
        <ele>476.6</ele>
        <time>2016-12-24T14:31:38Z</time>
      </trkpt>
      <trkpt lat="43.71282" lon="3.46312">
        <ele>477.9</ele>
        <time>2016-12-24T14:31:45Z</time>
      </trkpt>
      <trkpt lat="43.71287" lon="3.46304">
        <ele>478.8</ele>
        <time>2016-12-24T14:31:51Z</time>
      </trkpt>
      <trkpt lat="43.71295" lon="3.46302">
        <ele>480</ele>
        <time>2016-12-24T14:31:58Z</time>
      </trkpt>
      <trkpt lat="43.71301" lon="3.46301">
        <ele>481.8</ele>
        <time>2016-12-24T14:32:05Z</time>
      </trkpt>
      <trkpt lat="43.7131" lon="3.46298">
        <ele>483.3</ele>
        <time>2016-12-24T14:32:11Z</time>
      </trkpt>
      <trkpt lat="43.71317" lon="3.46295">
        <ele>484.1</ele>
        <time>2016-12-24T14:32:14Z</time>
      </trkpt>
      <trkpt lat="43.71323" lon="3.46288">
        <ele>485.3</ele>
        <time>2016-12-24T14:32:19Z</time>
      </trkpt>
      <trkpt lat="43.71322" lon="3.46285">
        <ele>486.9</ele>
        <time>2016-12-24T14:32:26Z</time>
      </trkpt>
      <trkpt lat="43.71317" lon="3.46278">
        <ele>488.7</ele>
        <time>2016-12-24T14:32:33Z</time>
      </trkpt>
      <trkpt lat="43.71314" lon="3.46276">
        <ele>490.4</ele>
        <time>2016-12-24T14:32:40Z</time>
      </trkpt>
      <trkpt lat="43.71311" lon="3.46267">
        <ele>491.4</ele>
        <time>2016-12-24T14:32:47Z</time>
      </trkpt>
      <trkpt lat="43.71308" lon="3.46257">
        <ele>492.6</ele>
        <time>2016-12-24T14:32:53Z</time>
      </trkpt>
      <trkpt lat="43.71305" lon="3.46247">
        <ele>493.3</ele>
        <time>2016-12-24T14:32:58Z</time>
      </trkpt>
      <trkpt lat="43.71302" lon="3.46237">
        <ele>494</ele>
        <time>2016-12-24T14:33:05Z</time>
      </trkpt>
      <trkpt lat="43.71297" lon="3.46227">
        <ele>494.9</ele>
        <time>2016-12-24T14:33:10Z</time>
      </trkpt>
      <trkpt lat="43.71293" lon="3.46218">
        <ele>496.5</ele>
        <time>2016-12-24T14:33:17Z</time>
      </trkpt>
      <trkpt lat="43.7129" lon="3.46207">
        <ele>498.2</ele>
        <time>2016-12-24T14:33:24Z</time>
      </trkpt>
      <trkpt lat="43.71287" lon="3.46197">
        <ele>499.4</ele>
        <time>2016-12-24T14:33:28Z</time>
      </trkpt>
      <trkpt lat="43.71272" lon="3.46186">
        <ele>504.6</ele>
        <time>2016-12-24T14:33:48Z</time>
      </trkpt>
      <trkpt lat="43.71265" lon="3.46182">
        <ele>505.6</ele>
        <time>2016-12-24T14:33:55Z</time>
      </trkpt>
      <trkpt lat="43.71259" lon="3.46179">
        <ele>506.6</ele>
        <time>2016-12-24T14:34:02Z</time>
      </trkpt>
      <trkpt lat="43.7125" lon="3.46179">
        <ele>507.1</ele>
        <time>2016-12-24T14:34:06Z</time>
      </trkpt>
      <trkpt lat="43.71242" lon="3.46173">
        <ele>507.7</ele>
        <time>2016-12-24T14:34:09Z</time>
      </trkpt>
      <trkpt lat="43.71233" lon="3.46171">
        <ele>508.7</ele>
        <time>2016-12-24T14:34:14Z</time>
      </trkpt>
      <trkpt lat="43.71224" lon="3.46171">
        <ele>510</ele>
        <time>2016-12-24T14:34:20Z</time>
      </trkpt>
      <trkpt lat="43.71217" lon="3.46166">
        <ele>510.7</ele>
        <time>2016-12-24T14:34:24Z</time>
      </trkpt>
      <trkpt lat="43.7121" lon="3.46161">
        <ele>511.6</ele>
        <time>2016-12-24T14:34:29Z</time>
      </trkpt>
      <trkpt lat="43.71202" lon="3.46156">
        <ele>512.7</ele>
        <time>2016-12-24T14:34:34Z</time>
      </trkpt>
      <trkpt lat="43.71195" lon="3.46152">
        <ele>513.9</ele>
        <time>2016-12-24T14:34:39Z</time>
      </trkpt>
      <trkpt lat="43.71188" lon="3.46147">
        <ele>515.4</ele>
        <time>2016-12-24T14:34:46Z</time>
      </trkpt>
      <trkpt lat="43.7118" lon="3.46143">
        <ele>516</ele>
        <time>2016-12-24T14:34:50Z</time>
      </trkpt>
      <trkpt lat="43.71174" lon="3.46136">
        <ele>516.4</ele>
        <time>2016-12-24T14:34:55Z</time>
      </trkpt>
      <trkpt lat="43.71169" lon="3.4613">
        <ele>517.2</ele>
        <time>2016-12-24T14:35:01Z</time>
      </trkpt>
      <trkpt lat="43.71163" lon="3.46124">
        <ele>518.7</ele>
        <time>2016-12-24T14:35:08Z</time>
      </trkpt>
      <trkpt lat="43.71156" lon="3.46117">
        <ele>519.8</ele>
        <time>2016-12-24T14:35:13Z</time>
      </trkpt>
      <trkpt lat="43.7115" lon="3.4611">
        <ele>520.3</ele>
        <time>2016-12-24T14:35:17Z</time>
      </trkpt>
      <trkpt lat="43.71143" lon="3.46103">
        <ele>521.1</ele>
        <time>2016-12-24T14:35:23Z</time>
      </trkpt>
      <trkpt lat="43.71137" lon="3.46098">
        <ele>521.9</ele>
        <time>2016-12-24T14:35:29Z</time>
      </trkpt>
      <trkpt lat="43.71131" lon="3.46091">
        <ele>522</ele>
        <time>2016-12-24T14:35:33Z</time>
      </trkpt>
      <trkpt lat="43.71125" lon="3.46084">
        <ele>522.5</ele>
        <time>2016-12-24T14:35:37Z</time>
      </trkpt>
      <trkpt lat="43.71122" lon="3.46073">
        <ele>522.6</ele>
        <time>2016-12-24T14:35:42Z</time>
      </trkpt>
      <trkpt lat="43.71129" lon="3.46071">
        <ele>523.2</ele>
        <time>2016-12-24T14:35:49Z</time>
      </trkpt>
      <trkpt lat="43.71135" lon="3.46076">
        <ele>523.8</ele>
        <time>2016-12-24T14:35:54Z</time>
      </trkpt>
      <trkpt lat="43.71143" lon="3.46081">
        <ele>524.7</ele>
        <time>2016-12-24T14:36:00Z</time>
      </trkpt>
      <trkpt lat="43.71151" lon="3.46084">
        <ele>525.2</ele>
        <time>2016-12-24T14:36:05Z</time>
      </trkpt>
      <trkpt lat="43.71158" lon="3.46089">
        <ele>525.6</ele>
        <time>2016-12-24T14:36:09Z</time>
      </trkpt>
      <trkpt lat="43.71166" lon="3.46091">
        <ele>526.4</ele>
        <time>2016-12-24T14:36:15Z</time>
      </trkpt>
      <trkpt lat="43.71173" lon="3.46096">
        <ele>527.2</ele>
        <time>2016-12-24T14:36:20Z</time>
      </trkpt>
      <trkpt lat="43.7118" lon="3.461">
        <ele>528</ele>
        <time>2016-12-24T14:36:25Z</time>
      </trkpt>
      <trkpt lat="43.71189" lon="3.46099">
        <ele>528.7</ele>
        <time>2016-12-24T14:36:30Z</time>
      </trkpt>
      <trkpt lat="43.71196" lon="3.46093">
        <ele>529.4</ele>
        <time>2016-12-24T14:36:35Z</time>
      </trkpt>
      <trkpt lat="43.71203" lon="3.46089">
        <ele>530.1</ele>
        <time>2016-12-24T14:36:40Z</time>
      </trkpt>
      <trkpt lat="43.7121" lon="3.46087">
        <ele>530.9</ele>
        <time>2016-12-24T14:36:47Z</time>
      </trkpt>
      <trkpt lat="43.71215" lon="3.46081">
        <ele>531.5</ele>
        <time>2016-12-24T14:36:52Z</time>
      </trkpt>
      <trkpt lat="43.71221" lon="3.46072">
        <ele>532.5</ele>
        <time>2016-12-24T14:36:58Z</time>
      </trkpt>
      <trkpt lat="43.71226" lon="3.46063">
        <ele>533.6</ele>
        <time>2016-12-24T14:37:05Z</time>
      </trkpt>
      <trkpt lat="43.71229" lon="3.46055">
        <ele>534.3</ele>
        <time>2016-12-24T14:37:11Z</time>
      </trkpt>
      <trkpt lat="43.71238" lon="3.46055">
        <ele>535.2</ele>
        <time>2016-12-24T14:37:18Z</time>
      </trkpt>
      <trkpt lat="43.71245" lon="3.46054">
        <ele>536.3</ele>
        <time>2016-12-24T14:37:23Z</time>
      </trkpt>
      <trkpt lat="43.71253" lon="3.46055">
        <ele>537.8</ele>
        <time>2016-12-24T14:37:29Z</time>
      </trkpt>
      <trkpt lat="43.71262" lon="3.46056">
        <ele>539.2</ele>
        <time>2016-12-24T14:37:34Z</time>
      </trkpt>
      <trkpt lat="43.71269" lon="3.46056">
        <ele>539.6</ele>
        <time>2016-12-24T14:37:37Z</time>
      </trkpt>
      <trkpt lat="43.71271" lon="3.46061">
        <ele>540.4</ele>
        <time>2016-12-24T14:37:44Z</time>
      </trkpt>
      <trkpt lat="43.71271" lon="3.4607">
        <ele>541.8</ele>
        <time>2016-12-24T14:37:51Z</time>
      </trkpt>
      <trkpt lat="43.71279" lon="3.46077">
        <ele>543.2</ele>
        <time>2016-12-24T14:37:57Z</time>
      </trkpt>
      <trkpt lat="43.71286" lon="3.46079">
        <ele>544</ele>
        <time>2016-12-24T14:38:02Z</time>
      </trkpt>
      <trkpt lat="43.71294" lon="3.46082">
        <ele>544.9</ele>
        <time>2016-12-24T14:38:07Z</time>
      </trkpt>
      <trkpt lat="43.713" lon="3.4609">
        <ele>545.7</ele>
        <time>2016-12-24T14:38:12Z</time>
      </trkpt>
      <trkpt lat="43.71304" lon="3.46099">
        <ele>547.2</ele>
        <time>2016-12-24T14:38:18Z</time>
      </trkpt>
      <trkpt lat="43.71311" lon="3.46102">
        <ele>548.2</ele>
        <time>2016-12-24T14:38:23Z</time>
      </trkpt>
      <trkpt lat="43.71317" lon="3.46106">
        <ele>549.7</ele>
        <time>2016-12-24T14:38:30Z</time>
      </trkpt>
      <trkpt lat="43.71322" lon="3.46112">
        <ele>550.6</ele>
        <time>2016-12-24T14:38:37Z</time>
      </trkpt>
      <trkpt lat="43.71343" lon="3.46111">
        <ele>563.7</ele>
        <time>2016-12-24T14:40:45Z</time>
      </trkpt>
      <trkpt lat="43.71346" lon="3.46111">
        <ele>563.6</ele>
        <time>2016-12-24T14:40:52Z</time>
      </trkpt>
      <trkpt lat="43.71356" lon="3.46111">
        <ele>564</ele>
        <time>2016-12-24T14:41:13Z</time>
      </trkpt>
      <trkpt lat="43.71348" lon="3.46099">
        <ele>568.4</ele>
        <time>2016-12-24T14:42:35Z</time>
      </trkpt>
      <trkpt lat="43.71346" lon="3.46098">
        <ele>568.8</ele>
        <time>2016-12-24T14:42:42Z</time>
      </trkpt>
      <trkpt lat="43.71346" lon="3.4609">
        <ele>570.2</ele>
        <time>2016-12-24T14:42:59Z</time>
      </trkpt>
      <trkpt lat="43.71344" lon="3.46079">
        <ele>572.8</ele>
        <time>2016-12-24T14:43:38Z</time>
      </trkpt>
      <trkpt lat="43.71338" lon="3.46076">
        <ele>573.5</ele>
        <time>2016-12-24T14:43:45Z</time>
      </trkpt>
      <trkpt lat="43.71338" lon="3.46072">
        <ele>574</ele>
        <time>2016-12-24T14:43:52Z</time>
      </trkpt>
      <trkpt lat="43.71341" lon="3.46073">
        <ele>574.8</ele>
        <time>2016-12-24T14:43:59Z</time>
      </trkpt>
      <trkpt lat="43.71347" lon="3.46073">
        <ele>575.3</ele>
        <time>2016-12-24T14:44:06Z</time>
      </trkpt>
      <trkpt lat="43.71351" lon="3.46072">
        <ele>575.5</ele>
        <time>2016-12-24T14:44:13Z</time>
      </trkpt>
      <trkpt lat="43.7136" lon="3.4607">
        <ele>577.3</ele>
        <time>2016-12-24T14:44:45Z</time>
      </trkpt>
      <trkpt lat="43.71367" lon="3.46072">
        <ele>578</ele>
        <time>2016-12-24T14:44:52Z</time>
      </trkpt>
      <trkpt lat="43.71373" lon="3.46073">
        <ele>578.6</ele>
        <time>2016-12-24T14:44:59Z</time>
      </trkpt>
      <trkpt lat="43.71377" lon="3.46073">
        <ele>579.5</ele>
        <time>2016-12-24T14:45:06Z</time>
      </trkpt>
      <trkpt lat="43.71384" lon="3.46073">
        <ele>580.2</ele>
        <time>2016-12-24T14:45:13Z</time>
      </trkpt>
      <trkpt lat="43.71386" lon="3.46071">
        <ele>580.6</ele>
        <time>2016-12-24T14:45:20Z</time>
      </trkpt>
      <trkpt lat="43.71386" lon="3.46072">
        <ele>580.8</ele>
        <time>2016-12-24T14:45:27Z</time>
      </trkpt>
      <trkpt lat="43.71379" lon="3.46073">
        <ele>580.9</ele>
        <time>2016-12-24T14:45:34Z</time>
      </trkpt>
      <trkpt lat="43.71377" lon="3.46082">
        <ele>581.2</ele>
        <time>2016-12-24T14:45:41Z</time>
      </trkpt>
      <trkpt lat="43.71381" lon="3.46073">
        <ele>581.6</ele>
        <time>2016-12-24T14:45:48Z</time>
      </trkpt>
      <trkpt lat="43.71376" lon="3.46074">
        <ele>582.2</ele>
        <time>2016-12-24T14:45:55Z</time>
      </trkpt>
      <trkpt lat="43.71374" lon="3.46074">
        <ele>582.3</ele>
        <time>2016-12-24T14:46:02Z</time>
      </trkpt>
      <trkpt lat="43.71357" lon="3.46072">
        <ele>584.9</ele>
        <time>2016-12-24T14:50:02Z</time>
      </trkpt>
      <trkpt lat="43.71354" lon="3.46073">
        <ele>584.4</ele>
        <time>2016-12-24T14:50:09Z</time>
      </trkpt>
      <trkpt lat="43.7136" lon="3.46071">
        <ele>582.9</ele>
        <time>2016-12-24T14:50:38Z</time>
      </trkpt>
      <trkpt lat="43.71367" lon="3.46076">
        <ele>583.3</ele>
        <time>2016-12-24T14:50:44Z</time>
      </trkpt>
      <trkpt lat="43.71368" lon="3.46073">
        <ele>583.5</ele>
        <time>2016-12-24T14:50:51Z</time>
      </trkpt>
      <trkpt lat="43.7136" lon="3.46072">
        <ele>583.6</ele>
        <time>2016-12-24T14:50:55Z</time>
      </trkpt>
      <trkpt lat="43.71353" lon="3.46072">
        <ele>583.5</ele>
        <time>2016-12-24T14:51:01Z</time>
      </trkpt>
      <trkpt lat="43.71344" lon="3.46071">
        <ele>583.1</ele>
        <time>2016-12-24T14:51:06Z</time>
      </trkpt>
      <trkpt lat="43.71341" lon="3.46074">
        <ele>582.1</ele>
        <time>2016-12-24T14:51:13Z</time>
      </trkpt>
      <trkpt lat="43.71344" lon="3.46084">
        <ele>581.7</ele>
        <time>2016-12-24T14:51:17Z</time>
      </trkpt>
      <trkpt lat="43.71348" lon="3.46093">
        <ele>581.3</ele>
        <time>2016-12-24T14:51:20Z</time>
      </trkpt>
      <trkpt lat="43.71352" lon="3.46102">
        <ele>580.8</ele>
        <time>2016-12-24T14:51:24Z</time>
      </trkpt>
      <trkpt lat="43.7135" lon="3.46112">
        <ele>579.7</ele>
        <time>2016-12-24T14:51:31Z</time>
      </trkpt>
      <trkpt lat="43.71341" lon="3.46109">
        <ele>579.1</ele>
        <time>2016-12-24T14:51:34Z</time>
      </trkpt>
      <trkpt lat="43.71335" lon="3.46115">
        <ele>578.3</ele>
        <time>2016-12-24T14:51:38Z</time>
      </trkpt>
      <trkpt lat="43.71327" lon="3.46115">
        <ele>576.9</ele>
        <time>2016-12-24T14:51:42Z</time>
      </trkpt>
      <trkpt lat="43.71322" lon="3.46108">
        <ele>575.6</ele>
        <time>2016-12-24T14:51:45Z</time>
      </trkpt>
      <trkpt lat="43.71313" lon="3.46105">
        <ele>572</ele>
        <time>2016-12-24T14:51:47Z</time>
      </trkpt>
      <trkpt lat="43.71302" lon="3.46096">
        <ele>567.1</ele>
        <time>2016-12-24T14:51:49Z</time>
      </trkpt>
      <trkpt lat="43.71291" lon="3.4609">
        <ele>563.3</ele>
        <time>2016-12-24T14:51:51Z</time>
      </trkpt>
      <trkpt lat="43.71279" lon="3.46086">
        <ele>560.7</ele>
        <time>2016-12-24T14:51:53Z</time>
      </trkpt>
      <trkpt lat="43.71273" lon="3.46075">
        <ele>560.5</ele>
        <time>2016-12-24T14:51:55Z</time>
      </trkpt>
      <trkpt lat="43.71271" lon="3.46062">
        <ele>558.5</ele>
        <time>2016-12-24T14:51:57Z</time>
      </trkpt>
      <trkpt lat="43.71263" lon="3.46058">
        <ele>558.1</ele>
        <time>2016-12-24T14:51:59Z</time>
      </trkpt>
      <trkpt lat="43.71255" lon="3.46058">
        <ele>557.9</ele>
        <time>2016-12-24T14:52:01Z</time>
      </trkpt>
      <trkpt lat="43.7125" lon="3.46066">
        <ele>556.6</ele>
        <time>2016-12-24T14:52:08Z</time>
      </trkpt>
      <trkpt lat="43.71249" lon="3.46078">
        <ele>554.3</ele>
        <time>2016-12-24T14:52:15Z</time>
      </trkpt>
      <trkpt lat="43.71251" lon="3.46092">
        <ele>552.8</ele>
        <time>2016-12-24T14:52:20Z</time>
      </trkpt>
      <trkpt lat="43.71253" lon="3.46104">
        <ele>552.1</ele>
        <time>2016-12-24T14:52:22Z</time>
      </trkpt>
      <trkpt lat="43.71257" lon="3.46113">
        <ele>550.5</ele>
        <time>2016-12-24T14:52:26Z</time>
      </trkpt>
      <trkpt lat="43.71263" lon="3.46122">
        <ele>549</ele>
        <time>2016-12-24T14:52:30Z</time>
      </trkpt>
      <trkpt lat="43.71261" lon="3.46133">
        <ele>547.8</ele>
        <time>2016-12-24T14:52:33Z</time>
      </trkpt>
      <trkpt lat="43.71264" lon="3.46143">
        <ele>546.9</ele>
        <time>2016-12-24T14:52:35Z</time>
      </trkpt>
      <trkpt lat="43.71267" lon="3.46154">
        <ele>545.6</ele>
        <time>2016-12-24T14:52:38Z</time>
      </trkpt>
      <trkpt lat="43.7127" lon="3.46173">
        <ele>536.3</ele>
        <time>2016-12-24T14:52:40Z</time>
      </trkpt>
      <trkpt lat="43.71273" lon="3.4619">
        <ele>532.1</ele>
        <time>2016-12-24T14:52:42Z</time>
      </trkpt>
      <trkpt lat="43.71275" lon="3.46203">
        <ele>530.9</ele>
        <time>2016-12-24T14:52:45Z</time>
      </trkpt>
      <trkpt lat="43.71271" lon="3.46215">
        <ele>530</ele>
        <time>2016-12-24T14:52:47Z</time>
      </trkpt>
      <trkpt lat="43.71269" lon="3.46228">
        <ele>527.9</ele>
        <time>2016-12-24T14:52:51Z</time>
      </trkpt>
      <trkpt lat="43.71267" lon="3.46239">
        <ele>521.6</ele>
        <time>2016-12-24T14:52:53Z</time>
      </trkpt>
      <trkpt lat="43.71266" lon="3.46249">
        <ele>520.5</ele>
        <time>2016-12-24T14:52:55Z</time>
      </trkpt>
      <trkpt lat="43.71262" lon="3.46258">
        <ele>519.3</ele>
        <time>2016-12-24T14:52:57Z</time>
      </trkpt>
      <trkpt lat="43.71256" lon="3.46265">
        <ele>518</ele>
        <time>2016-12-24T14:52:59Z</time>
      </trkpt>
      <trkpt lat="43.71256" lon="3.46276">
        <ele>516.8</ele>
        <time>2016-12-24T14:53:01Z</time>
      </trkpt>
      <trkpt lat="43.71253" lon="3.46285">
        <ele>515.6</ele>
        <time>2016-12-24T14:53:03Z</time>
      </trkpt>
      <trkpt lat="43.71248" lon="3.46295">
        <ele>514.4</ele>
        <time>2016-12-24T14:53:05Z</time>
      </trkpt>
      <trkpt lat="43.71245" lon="3.46305">
        <ele>513.2</ele>
        <time>2016-12-24T14:53:07Z</time>
      </trkpt>
      <trkpt lat="43.71241" lon="3.46315">
        <ele>505.6</ele>
        <time>2016-12-24T14:53:09Z</time>
      </trkpt>
      <trkpt lat="43.71236" lon="3.46325">
        <ele>504.5</ele>
        <time>2016-12-24T14:53:11Z</time>
      </trkpt>
      <trkpt lat="43.71231" lon="3.46336">
        <ele>492.9</ele>
        <time>2016-12-24T14:53:13Z</time>
      </trkpt>
      <trkpt lat="43.7123" lon="3.46351">
        <ele>487.7</ele>
        <time>2016-12-24T14:53:15Z</time>
      </trkpt>
      <trkpt lat="43.71227" lon="3.4636">
        <ele>482.8</ele>
        <time>2016-12-24T14:53:17Z</time>
      </trkpt>
      <trkpt lat="43.71223" lon="3.4637">
        <ele>482</ele>
        <time>2016-12-24T14:53:19Z</time>
      </trkpt>
      <trkpt lat="43.71222" lon="3.46384">
        <ele>480.4</ele>
        <time>2016-12-24T14:53:22Z</time>
      </trkpt>
      <trkpt lat="43.7122" lon="3.464">
        <ele>470.5</ele>
        <time>2016-12-24T14:53:24Z</time>
      </trkpt>
      <trkpt lat="43.71217" lon="3.46415">
        <ele>465.7</ele>
        <time>2016-12-24T14:53:27Z</time>
      </trkpt>
      <trkpt lat="43.71218" lon="3.46427">
        <ele>465</ele>
        <time>2016-12-24T14:53:29Z</time>
      </trkpt>
      <trkpt lat="43.71213" lon="3.46436">
        <ele>460.5</ele>
        <time>2016-12-24T14:53:31Z</time>
      </trkpt>
      <trkpt lat="43.71208" lon="3.46448">
        <ele>453.3</ele>
        <time>2016-12-24T14:53:34Z</time>
      </trkpt>
      <trkpt lat="43.71213" lon="3.46462">
        <ele>446.9</ele>
        <time>2016-12-24T14:53:36Z</time>
      </trkpt>
      <trkpt lat="43.71217" lon="3.46477">
        <ele>442.3</ele>
        <time>2016-12-24T14:53:38Z</time>
      </trkpt>
      <trkpt lat="43.71214" lon="3.46489">
        <ele>439.3</ele>
        <time>2016-12-24T14:53:41Z</time>
      </trkpt>
      <trkpt lat="43.71215" lon="3.46503">
        <ele>434</ele>
        <time>2016-12-24T14:53:44Z</time>
      </trkpt>
      <trkpt lat="43.71221" lon="3.46515">
        <ele>432.4</ele>
        <time>2016-12-24T14:53:46Z</time>
      </trkpt>
      <trkpt lat="43.71229" lon="3.46527">
        <ele>430.4</ele>
        <time>2016-12-24T14:53:48Z</time>
      </trkpt>
      <trkpt lat="43.71235" lon="3.46533">
        <ele>429.6</ele>
        <time>2016-12-24T14:53:49Z</time>
      </trkpt>
      <trkpt lat="43.71245" lon="3.46541">
        <ele>428.8</ele>
        <time>2016-12-24T14:53:51Z</time>
      </trkpt>
      <trkpt lat="43.71248" lon="3.46552">
        <ele>428.6</ele>
        <time>2016-12-24T14:53:53Z</time>
      </trkpt>
      <trkpt lat="43.71252" lon="3.4657">
        <ele>428.4</ele>
        <time>2016-12-24T14:53:55Z</time>
      </trkpt>
      <trkpt lat="43.71256" lon="3.4659">
        <ele>426.5</ele>
        <time>2016-12-24T14:53:57Z</time>
      </trkpt>
      <trkpt lat="43.71256" lon="3.46602">
        <ele>425.2</ele>
        <time>2016-12-24T14:53:58Z</time>
      </trkpt>
      <trkpt lat="43.71255" lon="3.46613">
        <ele>424</ele>
        <time>2016-12-24T14:53:59Z</time>
      </trkpt>
      <trkpt lat="43.71253" lon="3.46623">
        <ele>423.4</ele>
        <time>2016-12-24T14:54:00Z</time>
      </trkpt>
      <trkpt lat="43.71249" lon="3.46639">
        <ele>422.2</ele>
        <time>2016-12-24T14:54:02Z</time>
      </trkpt>
      <trkpt lat="43.71242" lon="3.4665">
        <ele>421.2</ele>
        <time>2016-12-24T14:54:04Z</time>
      </trkpt>
      <trkpt lat="43.71235" lon="3.46654">
        <ele>421.2</ele>
        <time>2016-12-24T14:54:07Z</time>
      </trkpt>
      <trkpt lat="43.71227" lon="3.46655">
        <ele>421.4</ele>
        <time>2016-12-24T14:54:11Z</time>
      </trkpt>
      <trkpt lat="43.7122" lon="3.4666">
        <ele>421.6</ele>
        <time>2016-12-24T14:54:14Z</time>
      </trkpt>
      <trkpt lat="43.71216" lon="3.46669">
        <ele>421.8</ele>
        <time>2016-12-24T14:54:18Z</time>
      </trkpt>
      <trkpt lat="43.71212" lon="3.46678">
        <ele>422</ele>
        <time>2016-12-24T14:54:22Z</time>
      </trkpt>
      <trkpt lat="43.71222" lon="3.46662">
        <ele>422.3</ele>
        <time>2016-12-24T14:55:36Z</time>
      </trkpt>
      <trkpt lat="43.71228" lon="3.46656">
        <ele>422.2</ele>
        <time>2016-12-24T14:55:41Z</time>
      </trkpt>
      <trkpt lat="43.71235" lon="3.46652">
        <ele>422.4</ele>
        <time>2016-12-24T14:55:46Z</time>
      </trkpt>
      <trkpt lat="43.71237" lon="3.4664">
        <ele>422.4</ele>
        <time>2016-12-24T14:55:50Z</time>
      </trkpt>
      <trkpt lat="43.71238" lon="3.4663">
        <ele>422.3</ele>
        <time>2016-12-24T14:55:53Z</time>
      </trkpt>
      <trkpt lat="43.71242" lon="3.46619">
        <ele>422.2</ele>
        <time>2016-12-24T14:55:57Z</time>
      </trkpt>
      <trkpt lat="43.71244" lon="3.46605">
        <ele>422.1</ele>
        <time>2016-12-24T14:56:01Z</time>
      </trkpt>
      <trkpt lat="43.71245" lon="3.46595">
        <ele>422.1</ele>
        <time>2016-12-24T14:56:04Z</time>
      </trkpt>
      <trkpt lat="43.71245" lon="3.46584">
        <ele>422.4</ele>
        <time>2016-12-24T14:56:07Z</time>
      </trkpt>
      <trkpt lat="43.71249" lon="3.46575">
        <ele>422.6</ele>
        <time>2016-12-24T14:56:12Z</time>
      </trkpt>
      <trkpt lat="43.71245" lon="3.46544">
        <ele>426.5</ele>
        <time>2016-12-24T14:58:45Z</time>
      </trkpt>
      <trkpt lat="43.71233" lon="3.46531">
        <ele>426.7</ele>
        <time>2016-12-24T14:58:54Z</time>
      </trkpt>
      <trkpt lat="43.71227" lon="3.46524">
        <ele>427</ele>
        <time>2016-12-24T14:58:59Z</time>
      </trkpt>
      <trkpt lat="43.71223" lon="3.46515">
        <ele>427.7</ele>
        <time>2016-12-24T14:59:06Z</time>
      </trkpt>
      <trkpt lat="43.7122" lon="3.46508">
        <ele>428</ele>
        <time>2016-12-24T14:59:13Z</time>
      </trkpt>
      <trkpt lat="43.71217" lon="3.46506">
        <ele>428.2</ele>
        <time>2016-12-24T14:59:20Z</time>
      </trkpt>
      <trkpt lat="43.7121" lon="3.46497">
        <ele>429.7</ele>
        <time>2016-12-24T14:59:37Z</time>
      </trkpt>
      <trkpt lat="43.71223" lon="3.46514">
        <ele>429.7</ele>
        <time>2016-12-24T14:59:55Z</time>
      </trkpt>
      <trkpt lat="43.71228" lon="3.46525">
        <ele>428.6</ele>
        <time>2016-12-24T14:59:57Z</time>
      </trkpt>
      <trkpt lat="43.71237" lon="3.46533">
        <ele>428.3</ele>
        <time>2016-12-24T14:59:59Z</time>
      </trkpt>
      <trkpt lat="43.71245" lon="3.46541">
        <ele>428.8</ele>
        <time>2016-12-24T15:00:01Z</time>
      </trkpt>
      <trkpt lat="43.71249" lon="3.46555">
        <ele>428.1</ele>
        <time>2016-12-24T15:00:03Z</time>
      </trkpt>
      <trkpt lat="43.71253" lon="3.46574">
        <ele>425.8</ele>
        <time>2016-12-24T15:00:05Z</time>
      </trkpt>
      <trkpt lat="43.71257" lon="3.46592">
        <ele>423.9</ele>
        <time>2016-12-24T15:00:07Z</time>
      </trkpt>
      <trkpt lat="43.71257" lon="3.46603">
        <ele>422.9</ele>
        <time>2016-12-24T15:00:08Z</time>
      </trkpt>
      <trkpt lat="43.71254" lon="3.46621">
        <ele>420.4</ele>
        <time>2016-12-24T15:00:10Z</time>
      </trkpt>
      <trkpt lat="43.71252" lon="3.46635">
        <ele>419.1</ele>
        <time>2016-12-24T15:00:12Z</time>
      </trkpt>
      <trkpt lat="43.71251" lon="3.46646">
        <ele>419.3</ele>
        <time>2016-12-24T15:00:16Z</time>
      </trkpt>
      <trkpt lat="43.71254" lon="3.46641">
        <ele>419.5</ele>
        <time>2016-12-24T15:00:23Z</time>
      </trkpt>
      <trkpt lat="43.71249" lon="3.46632">
        <ele>419.5</ele>
        <time>2016-12-24T15:00:28Z</time>
      </trkpt>
      <trkpt lat="43.71247" lon="3.46629">
        <ele>419.5</ele>
        <time>2016-12-24T15:00:35Z</time>
      </trkpt>
      <trkpt lat="43.71246" lon="3.46622">
        <ele>420</ele>
        <time>2016-12-24T15:03:06Z</time>
      </trkpt>
      <trkpt lat="43.71247" lon="3.46627">
        <ele>419.8</ele>
        <time>2016-12-24T15:03:13Z</time>
      </trkpt>
      <trkpt lat="43.71253" lon="3.46609">
        <ele>420.9</ele>
        <time>2016-12-24T15:05:23Z</time>
      </trkpt>
      <trkpt lat="43.71255" lon="3.46597">
        <ele>420.9</ele>
        <time>2016-12-24T15:05:28Z</time>
      </trkpt>
      <trkpt lat="43.71255" lon="3.46587">
        <ele>421</ele>
        <time>2016-12-24T15:05:31Z</time>
      </trkpt>
      <trkpt lat="43.71251" lon="3.46577">
        <ele>421.1</ele>
        <time>2016-12-24T15:05:35Z</time>
      </trkpt>
      <trkpt lat="43.71249" lon="3.46564">
        <ele>421.1</ele>
        <time>2016-12-24T15:05:38Z</time>
      </trkpt>
      <trkpt lat="43.71247" lon="3.4656">
        <ele>421</ele>
        <time>2016-12-24T15:05:45Z</time>
      </trkpt>
      <trkpt lat="43.71241" lon="3.46556">
        <ele>421.6</ele>
        <time>2016-12-24T15:05:52Z</time>
      </trkpt>
      <trkpt lat="43.71233" lon="3.46553">
        <ele>421.9</ele>
        <time>2016-12-24T15:05:56Z</time>
      </trkpt>
      <trkpt lat="43.71224" lon="3.46551">
        <ele>422.2</ele>
        <time>2016-12-24T15:05:59Z</time>
      </trkpt>
      <trkpt lat="43.71214" lon="3.46548">
        <ele>422.2</ele>
        <time>2016-12-24T15:06:01Z</time>
      </trkpt>
      <trkpt lat="43.71203" lon="3.46542">
        <ele>420.8</ele>
        <time>2016-12-24T15:06:03Z</time>
      </trkpt>
      <trkpt lat="43.71196" lon="3.4654">
        <ele>420.3</ele>
        <time>2016-12-24T15:06:04Z</time>
      </trkpt>
      <trkpt lat="43.71189" lon="3.46535">
        <ele>420.3</ele>
        <time>2016-12-24T15:06:05Z</time>
      </trkpt>
      <trkpt lat="43.71177" lon="3.46533">
        <ele>419.7</ele>
        <time>2016-12-24T15:06:07Z</time>
      </trkpt>
      <trkpt lat="43.71168" lon="3.46529">
        <ele>417.8</ele>
        <time>2016-12-24T15:06:09Z</time>
      </trkpt>
      <trkpt lat="43.71159" lon="3.46524">
        <ele>417.7</ele>
        <time>2016-12-24T15:06:11Z</time>
      </trkpt>
      <trkpt lat="43.7115" lon="3.46524">
        <ele>416.8</ele>
        <time>2016-12-24T15:06:13Z</time>
      </trkpt>
      <trkpt lat="43.7114" lon="3.46528">
        <ele>414.9</ele>
        <time>2016-12-24T15:06:15Z</time>
      </trkpt>
      <trkpt lat="43.71128" lon="3.46526">
        <ele>414</ele>
        <time>2016-12-24T15:06:17Z</time>
      </trkpt>
      <trkpt lat="43.71116" lon="3.46525">
        <ele>412.4</ele>
        <time>2016-12-24T15:06:19Z</time>
      </trkpt>
      <trkpt lat="43.71102" lon="3.46527">
        <ele>411.6</ele>
        <time>2016-12-24T15:06:21Z</time>
      </trkpt>
      <trkpt lat="43.71089" lon="3.46532">
        <ele>411</ele>
        <time>2016-12-24T15:06:23Z</time>
      </trkpt>
      <trkpt lat="43.71081" lon="3.46534">
        <ele>410.4</ele>
        <time>2016-12-24T15:06:25Z</time>
      </trkpt>
      <trkpt lat="43.71072" lon="3.46535">
        <ele>410.2</ele>
        <time>2016-12-24T15:06:28Z</time>
      </trkpt>
      <trkpt lat="43.71065" lon="3.46536">
        <ele>409.6</ele>
        <time>2016-12-24T15:06:35Z</time>
      </trkpt>
      <trkpt lat="43.71058" lon="3.46539">
        <ele>409</ele>
        <time>2016-12-24T15:06:38Z</time>
      </trkpt>
      <trkpt lat="43.7105" lon="3.46542">
        <ele>407.5</ele>
        <time>2016-12-24T15:06:40Z</time>
      </trkpt>
      <trkpt lat="43.71042" lon="3.46549">
        <ele>405.2</ele>
        <time>2016-12-24T15:06:42Z</time>
      </trkpt>
      <trkpt lat="43.71034" lon="3.46557">
        <ele>405</ele>
        <time>2016-12-24T15:06:44Z</time>
      </trkpt>
      <trkpt lat="43.71028" lon="3.46563">
        <ele>404.6</ele>
        <time>2016-12-24T15:06:48Z</time>
      </trkpt>
      <trkpt lat="43.71023" lon="3.4657">
        <ele>403.8</ele>
        <time>2016-12-24T15:06:52Z</time>
      </trkpt>
      <trkpt lat="43.7102" lon="3.46575">
        <ele>402.5</ele>
        <time>2016-12-24T15:06:59Z</time>
      </trkpt>
      <trkpt lat="43.71014" lon="3.46583">
        <ele>402.1</ele>
        <time>2016-12-24T15:07:01Z</time>
      </trkpt>
      <trkpt lat="43.71008" lon="3.4659">
        <ele>401.8</ele>
        <time>2016-12-24T15:07:03Z</time>
      </trkpt>
      <trkpt lat="43.71008" lon="3.46601">
        <ele>400.9</ele>
        <time>2016-12-24T15:07:07Z</time>
      </trkpt>
      <trkpt lat="43.71009" lon="3.46613">
        <ele>397.9</ele>
        <time>2016-12-24T15:07:09Z</time>
      </trkpt>
      <trkpt lat="43.71005" lon="3.46623">
        <ele>395.9</ele>
        <time>2016-12-24T15:07:11Z</time>
      </trkpt>
      <trkpt lat="43.70999" lon="3.46631">
        <ele>395.3</ele>
        <time>2016-12-24T15:07:15Z</time>
      </trkpt>
      <trkpt lat="43.70991" lon="3.46637">
        <ele>394.3</ele>
        <time>2016-12-24T15:07:20Z</time>
      </trkpt>
      <trkpt lat="43.70984" lon="3.46636">
        <ele>393.7</ele>
        <time>2016-12-24T15:07:23Z</time>
      </trkpt>
      <trkpt lat="43.70976" lon="3.46634">
        <ele>392.3</ele>
        <time>2016-12-24T15:07:28Z</time>
      </trkpt>
      <trkpt lat="43.70969" lon="3.46642">
        <ele>391.3</ele>
        <time>2016-12-24T15:07:32Z</time>
      </trkpt>
      <trkpt lat="43.7096" lon="3.46645">
        <ele>390.6</ele>
        <time>2016-12-24T15:07:35Z</time>
      </trkpt>
      <trkpt lat="43.70952" lon="3.46648">
        <ele>389.9</ele>
        <time>2016-12-24T15:07:38Z</time>
      </trkpt>
      <trkpt lat="43.70945" lon="3.46655">
        <ele>389.5</ele>
        <time>2016-12-24T15:07:40Z</time>
      </trkpt>
      <trkpt lat="43.7094" lon="3.46666">
        <ele>388.7</ele>
        <time>2016-12-24T15:07:43Z</time>
      </trkpt>
      <trkpt lat="43.70936" lon="3.46676">
        <ele>387</ele>
        <time>2016-12-24T15:07:48Z</time>
      </trkpt>
      <trkpt lat="43.70932" lon="3.46686">
        <ele>385.2</ele>
        <time>2016-12-24T15:07:53Z</time>
      </trkpt>
      <trkpt lat="43.70922" lon="3.46692">
        <ele>384.2</ele>
        <time>2016-12-24T15:07:56Z</time>
      </trkpt>
      <trkpt lat="43.70913" lon="3.46694">
        <ele>383.8</ele>
        <time>2016-12-24T15:07:58Z</time>
      </trkpt>
      <trkpt lat="43.70902" lon="3.46697">
        <ele>379.4</ele>
        <time>2016-12-24T15:08:00Z</time>
      </trkpt>
      <trkpt lat="43.70893" lon="3.467">
        <ele>377.2</ele>
        <time>2016-12-24T15:08:02Z</time>
      </trkpt>
      <trkpt lat="43.70885" lon="3.46701">
        <ele>376.8</ele>
        <time>2016-12-24T15:08:05Z</time>
      </trkpt>
      <trkpt lat="43.70876" lon="3.46704">
        <ele>376.3</ele>
        <time>2016-12-24T15:08:08Z</time>
      </trkpt>
      <trkpt lat="43.70867" lon="3.46706">
        <ele>375.8</ele>
        <time>2016-12-24T15:08:11Z</time>
      </trkpt>
      <trkpt lat="43.70859" lon="3.46707">
        <ele>375.3</ele>
        <time>2016-12-24T15:08:14Z</time>
      </trkpt>
      <trkpt lat="43.70852" lon="3.46706">
        <ele>374.5</ele>
        <time>2016-12-24T15:08:17Z</time>
      </trkpt>
      <trkpt lat="43.70844" lon="3.46708">
        <ele>373.3</ele>
        <time>2016-12-24T15:08:22Z</time>
      </trkpt>
      <trkpt lat="43.70837" lon="3.46708">
        <ele>372.6</ele>
        <time>2016-12-24T15:08:25Z</time>
      </trkpt>
      <trkpt lat="43.7083" lon="3.46707">
        <ele>371.8</ele>
        <time>2016-12-24T15:08:28Z</time>
      </trkpt>
      <trkpt lat="43.70822" lon="3.46707">
        <ele>370.9</ele>
        <time>2016-12-24T15:08:32Z</time>
      </trkpt>
      <trkpt lat="43.70813" lon="3.46709">
        <ele>370</ele>
        <time>2016-12-24T15:08:36Z</time>
      </trkpt>
      <trkpt lat="43.70806" lon="3.46709">
        <ele>369.1</ele>
        <time>2016-12-24T15:08:39Z</time>
      </trkpt>
      <trkpt lat="43.70797" lon="3.46707">
        <ele>368.2</ele>
        <time>2016-12-24T15:08:42Z</time>
      </trkpt>
      <trkpt lat="43.70788" lon="3.46707">
        <ele>367.4</ele>
        <time>2016-12-24T15:08:45Z</time>
      </trkpt>
      <trkpt lat="43.70778" lon="3.46706">
        <ele>366.3</ele>
        <time>2016-12-24T15:08:48Z</time>
      </trkpt>
      <trkpt lat="43.70769" lon="3.46706">
        <ele>365.5</ele>
        <time>2016-12-24T15:08:50Z</time>
      </trkpt>
      <trkpt lat="43.70762" lon="3.46706">
        <ele>364.7</ele>
        <time>2016-12-24T15:08:52Z</time>
      </trkpt>
      <trkpt lat="43.70754" lon="3.46704">
        <ele>363.5</ele>
        <time>2016-12-24T15:08:55Z</time>
      </trkpt>
      <trkpt lat="43.70744" lon="3.46703">
        <ele>361.9</ele>
        <time>2016-12-24T15:08:59Z</time>
      </trkpt>
      <trkpt lat="43.70736" lon="3.46705">
        <ele>361.2</ele>
        <time>2016-12-24T15:09:01Z</time>
      </trkpt>
      <trkpt lat="43.70728" lon="3.46701">
        <ele>357.7</ele>
        <time>2016-12-24T15:09:03Z</time>
      </trkpt>
      <trkpt lat="43.70718" lon="3.46702">
        <ele>356.8</ele>
        <time>2016-12-24T15:09:06Z</time>
      </trkpt>
      <trkpt lat="43.70708" lon="3.46705">
        <ele>355.5</ele>
        <time>2016-12-24T15:09:10Z</time>
      </trkpt>
      <trkpt lat="43.707" lon="3.46707">
        <ele>354.7</ele>
        <time>2016-12-24T15:09:12Z</time>
      </trkpt>
      <trkpt lat="43.70692" lon="3.46713">
        <ele>353.5</ele>
        <time>2016-12-24T15:09:15Z</time>
      </trkpt>
      <trkpt lat="43.70684" lon="3.46722">
        <ele>352.6</ele>
        <time>2016-12-24T15:09:18Z</time>
      </trkpt>
      <trkpt lat="43.7068" lon="3.46732">
        <ele>349.2</ele>
        <time>2016-12-24T15:09:20Z</time>
      </trkpt>
      <trkpt lat="43.7068" lon="3.46744">
        <ele>348.5</ele>
        <time>2016-12-24T15:09:23Z</time>
      </trkpt>
      <trkpt lat="43.70685" lon="3.46754">
        <ele>348.2</ele>
        <time>2016-12-24T15:09:26Z</time>
      </trkpt>
      <trkpt lat="43.70691" lon="3.46763">
        <ele>347.9</ele>
        <time>2016-12-24T15:09:29Z</time>
      </trkpt>
      <trkpt lat="43.70685" lon="3.46771">
        <ele>346.7</ele>
        <time>2016-12-24T15:09:35Z</time>
      </trkpt>
      <trkpt lat="43.70676" lon="3.4677">
        <ele>346.2</ele>
        <time>2016-12-24T15:09:39Z</time>
      </trkpt>
    </trkseg>
  </trk>
</gpx>